[[{"header":{"parameterUnit":"m.s-1","parameterCategory":1,"la1":30.6,"la2":28.766,"lo1":-90.7593,"lo2":-88.6598,"dy":0.0162,"dx":0.0183,"nx":116,"ny":114,"refTime":"2024-04-14T18:00:00:Z","depth":0,"parameterNumber":2,"parameterNumberName":"U-component_of_WINDS"},"data":[0.0,0.0,0.0,0.0,0.0,0.0,0.0,0.0,0.0,0.0,0.0,0.0,0.0,0.0,0.0,0.0,0.0,0.0,0.0,0.0,0.0,0.0,0.0,0.0,0.0,0.0,0.0,0.0,0.0,0.0,0.0,0.0,0.0,0.0,0.0,0.0,0.0,0.0,0.0,0.0,0.0,0.0,0.0,0.0,0.0,0.0,0.0,0.0,0.0,0.0,0.0,0.0,0.0,0.0,0.0,0.0,0.0,0.0,0.0,0.0,0.0,0.0,0.0,0.0,0.0,0.0,0.0,0.0,0.0,0.0,0.0,0.0,0.0,0.0,0.0,0.0,0.0,0.0,0.0,0.0,0.0,0.0,0.0,0.0,0.0,0.0,0.0,0.0,0.0,0.0,0.0,0.0,0.0,0.0,0.0,0.0,0.0,0.0,0.0,0.0,0.0,0.0,0.0,0.0,0.0,0.0,0.0,0.0,0.0,0.0,0.0,0.0,0.0,0.0,0.0,0.0,0.0,0.0,0.0,0.0,0.0,0.0,0.0,0.0,0.0,0.0,0.0,0.0,0.0,0.0,0.0,0.0,0.0,0.0,0.0,0.0,0.0,0.0,0.0,0.0,0.0,0.0,0.0,0.0,0.0,0.0,0.0,0.0,0.0,0.0,0.0,0.0,0.0,0.0,0.0,0.0,0.0,0.0,0.0,0.0,0.0,0.0,0.0,0.0,0.0,0.0,0.0,0.0,0.0,0.0,0.0,0.0,0.0,0.0,0.0,0.0,0.0,0.0,0.0,0.0,0.0,0.0,0.0,0.0,0.0,0.0,0.0,0.0,0.0,0.0,0.0,0.0,0.0,0.0,0.0,0.0,0.0,0.0,0.0,0.0,0.0,0.0,0.0,0.0,0.0,0.0,0.0,0.0,0.0,0.0,0.0,0.0,0.0,0.0,0.0,0.0,0.0,0.0,0.0,0.0,0.0,0.0,0.0,0.0,0.0,0.0,0.0,0.0,0.0,0.0,0.0,0.0,0.0,0.0,0.0,0.0,0.0,0.0,0.0,0.0,0.0,0.0,0.0,0.0,0.0,0.0,0.0,0.0,0.0,0.0,0.0,0.0,0.0,0.0,0.0,0.0,0.0,0.0,0.0,0.0,0.0,0.0,0.0,0.0,0.0,0.0,0.0,0.0,0.0,0.0,0.0,0.0,0.0,0.0,0.0,0.0,0.0,0.0,0.0,0.0,0.0,0.0,0.0,0.0,0.0,0.0,0.0,0.0,0.0,0.0,0.0,0.0,0.0,0.0,0.0,0.0,0.0,0.0,0.0,0.0,0.0,0.0,0.0,0.0,0.0,0.0,0.0,0.0,0.0,0.0,0.0,0.0,0.0,0.0,0.0,0.0,0.0,0.0,0.0,0.0,0.0,0.0,0.0,0.0,0.0,0.0,0.0,0.0,0.0,0.0,0.0,0.0,0.0,0.0,0.0,0.0,0.0,0.0,0.0,0.0,0.0,0.0,0.0,0.0,0.0,0.0,0.0,0.0,0.0,0.0,0.0,0.0,0.0,0.0,0.0,0.0,0.0,0.0,0.0,0.0,0.0,0.0,0.0,0.0,0.0,0.0,0.0,0.0,0.0,0.0,0.0,0.0,0.0,0.0,0.0,0.0,0.0,0.0,0.0,0.0,0.0,0.0,0.0,0.0,0.0,0.0,0.0,0.0,0.0,0.0,0.0,0.0,0.0,0.0,0.0,0.0,0.0,0.0,0.0,0.0,0.0,0.0,0.0,0.0,0.0,0.0,0.0,0.0,0.0,0.0,0.0,0.0,0.0,0.0,0.0,0.0,0.0,0.0,0.0,0.0,0.0,0.0,0.0,0.0,0.0,0.0,0.0,0.0,0.0,0.0,0.0,0.0,0.0,0.0,0.0,0.0,0.0,0.0,0.0,0.0,0.0,0.0,0.0,0.0,0.0,0.0,0.0,0.0,0.0,0.0,0.0,0.0,0.0,0.0,0.0,0.0,0.0,0.0,0.0,0.0,0.0,0.0,0.0,0.0,0.0,0.0,0.0,0.0,0.0,0.0,0.0,0.0,0.0,0.0,0.0,0.0,0.0,0.0,0.0,0.0,0.0,0.0,0.0,0.0,0.0,0.0,0.0,0.0,0.0,0.0,0.0,0.0,0.0,0.0,0.0,0.0,0.0,0.0,0.0,0.0,0.0,0.0,0.0,0.0,0.0,0.0,0.0,0.0,0.0,0.0,0.0,0.0,0.0,0.0,0.0,0.0,0.0,0.0,0.0,0.0,0.0,0.0,0.0,0.0,0.0,0.0,0.0,0.0,0.0,0.0,0.0,0.0,0.0,0.0,0.0,0.0,0.0,0.0,0.0,0.0,0.0,0.0,0.0,0.0,0.0,0.0,0.0,0.0,0.0,0.0,0.0,0.0,0.0,0.0,0.0,0.0,0.0,0.0,0.0,0.0,0.0,0.0,0.0,0.0,0.0,0.0,0.0,0.0,0.0,0.0,0.0,0.0,0.0,0.0,0.0,0.0,0.0,0.0,0.0,0.0,0.0,0.0,0.0,0.0,0.0,0.0,0.0,0.0,0.0,0.0,0.0,0.0,0.0,0.0,0.0,0.0,0.0,0.0,0.0,0.0,0.0,0.0,0.0,0.0,0.0,0.0,0.0,0.0,0.0,0.0,0.0,0.0,0.0,0.0,0.0,0.0,0.0,0.0,0.0,0.0,0.0,0.0,0.0,0.0,0.0,0.0,0.0,0.0,0.0,0.0,0.0,0.0,0.0,0.0,0.0,0.0,0.0,0.0,0.0,0.0,0.0,0.0,0.0,0.0,0.0,0.0,0.0,0.0,0.0,0.0,0.0,0.0,0.0,0.0,0.0,0.0,0.0,0.0,0.0,0.0,0.0,0.0,0.0,0.0,0.0,0.0,0.0,0.0,0.0,0.0,0.0,0.0,0.0,0.0,0.0,0.0,0.0,0.0,0.0,0.0,0.0,0.0,0.0,0.0,0.0,0.0,0.0,0.0,0.0,0.0,0.0,0.0,0.0,0.0,0.0,0.0,0.0,0.0,0.0,0.0,0.0,0.0,0.0,0.0,0.0,0.0,0.0,0.0,0.0,0.0,0.0,0.0,0.0,0.0,0.0,0.0,0.0,0.0,0.0,0.0,0.0,0.0,0.0,0.0,0.0,0.0,0.0,0.0,0.0,0.0,0.0,0.0,0.0,0.0,0.0,0.0,0.0,0.0,0.0,0.0,0.0,0.0,0.0,0.0,0.0,0.0,0.0,0.0,0.0,0.0,0.0,0.0,0.0,0.0,0.0,0.0,0.0,0.0,0.0,0.0,0.0,0.0,0.0,0.0,0.0,0.0,0.0,0.0,0.0,0.0,0.0,0.0,0.0,0.0,0.0,0.0,0.0,0.0,0.0,0.0,0.0,0.0,0.0,0.0,0.0,0.0,0.0,0.0,0.0,0.0,0.0,0.0,0.0,0.0,0.0,0.0,0.0,0.0,0.0,0.0,0.0,0.0,0.0,0.0,0.0,0.0,0.0,0.0,0.0,0.0,0.0,0.0,0.0,0.0,0.0,0.0,0.0,0.0,0.0,0.0,0.0,0.0,0.0,0.0,0.0,0.0,0.0,0.0,0.0,0.0,0.0,0.0,0.0,0.0,0.0,0.0,0.0,0.0,0.0,0.0,0.0,0.0,0.0,0.0,0.0,0.0,0.0,0.0,0.0,0.0,0.0,0.0,0.0,0.0,0.0,0.0,0.0,0.0,0.0,0.0,0.0,0.0,0.0,0.0,0.0,0.0,0.0,0.0,0.0,0.0,0.0,0.0,0.0,0.0,0.0,0.0,0.0,0.0,0.0,0.0,0.0,0.0,0.0,0.0,0.0,0.0,0.0,0.0,0.0,0.0,0.0,0.0,0.0,0.0,0.0,0.0,0.0,0.0,0.0,0.0,0.0,0.0,0.0,0.0,0.0,0.0,0.0,0.0,0.0,0.0,0.0,0.0,0.0,0.0,0.0,0.0,0.0,0.0,0.0,0.0,0.0,0.0,0.0,0.0,0.0,0.0,0.0,0.0,0.0,0.0,0.0,0.0,0.0,0.0,0.0,0.0,0.0,0.0,0.0,0.0,0.0,0.0,0.0,0.0,0.0,0.0,0.0,0.0,0.0,0.0,0.0,0.0,0.0,0.0,0.0,0.0,0.0,0.0,0.0,0.0,0.0,0.0,0.0,0.0,0.0,0.0,0.0,0.0,0.0,0.0,0.0,0.0,0.0,0.0,0.0,0.0,0.0,0.0,0.0,0.0,0.0,0.0,0.0,0.0,0.0,0.0,0.0,0.0,0.0,0.0,0.0,0.0,0.0,0.0,0.0,0.0,0.0,0.0,0.0,0.0,0.0,0.0,0.0,0.0,0.0,0.0,0.0,0.0,0.0,0.0,0.0,0.0,0.0,0.0,0.0,0.0,0.0,0.0,0.0,0.0,0.0,0.0,0.0,0.0,0.0,0.0,0.0,0.0,0.0,0.0,0.0,0.0,0.0,0.0,0.0,0.0,0.0,0.0,0.0,0.0,0.0,0.0,0.0,0.0,0.0,0.0,0.0,0.0,0.0,0.0,0.0,0.0,0.0,0.0,0.0,0.0,0.0,0.0,0.0,0.0,0.0,0.0,0.0,0.0,0.0,0.0,0.0,0.0,0.0,0.0,0.0,0.0,0.0,0.0,0.0,0.0,0.0,0.0,0.0,0.0,0.0,0.0,0.0,0.0,0.0,0.0,0.0,0.0,0.0,0.0,0.0,0.0,0.0,0.0,0.0,0.0,0.0,0.0,0.0,0.0,0.0,0.0,0.0,0.0,0.0,0.0,0.0,0.0,0.0,0.0,0.0,0.0,0.0,0.0,0.0,0.0,0.0,0.0,0.0,0.0,0.0,0.0,0.0,0.0,0.0,0.0,0.0,0.0,0.0,0.0,0.0,0.0,0.0,0.0,0.0,0.0,0.0,0.0,0.0,0.0,0.0,0.0,0.0,0.0,0.0,0.0,0.0,0.0,0.0,0.0,0.0,0.0,0.0,0.0,0.0,0.0,0.0,0.0,0.0,0.0,0.0,0.0,0.0,0.0,0.0,0.0,0.0,0.0,0.0,0.0,0.0,0.0,0.0,0.0,0.0,0.0,0.0,0.0,0.0,0.0,0.0,0.0,0.0,0.0,0.0,0.0,0.0,0.0,0.0,0.0,0.0,0.0,0.0,0.0,0.0,0.0,0.0,0.0,0.0,0.0,0.0,0.0,0.0,0.0,0.0,0.0,0.0,0.0,0.0,0.0,0.0,0.0,0.0,0.0,0.0,0.0,0.0,0.0,0.0,0.0,0.0,0.0,0.0,0.0,0.0,0.0,0.0,0.0,0.0,0.0,0.0,0.0,0.0,0.0,0.0,0.0,0.0,0.0,0.0,0.0,0.0,0.0,0.0,0.0,0.0,0.0,0.0,0.0,0.0,0.0,0.0,0.0,0.0,0.0,0.0,0.0,0.0,0.0,0.0,0.0,0.0,0.0,0.0,0.0,0.0,0.0,0.0,0.0,0.0,0.0,0.0,0.0,0.0,0.0,0.0,0.0,0.0,0.0,0.0,0.0,0.0,0.0,0.0,0.0,0.0,0.0,0.0,0.0,0.0,0.0,0.0,0.0,0.0,0.0,0.0,0.0,0.0,0.0,0.0,0.0,0.0,0.0,0.0,0.0,0.0,0.0,0.0,0.0,0.0,0.0,0.0,0.0,0.0,0.0,0.0,0.0,0.0,0.0,0.0,0.0,0.0,0.0,0.0,0.0,0.0,0.0,0.0,0.0,0.0,0.0,0.0,0.0,0.0,0.0,0.0,0.0,0.0,0.0,0.0,0.0,0.0,0.0,0.0,0.0,0.0,0.0,0.0,0.0,0.0,0.0,0.0,0.0,0.0,0.0,0.0,0.0,0.0,0.0,0.0,0.0,0.0,0.0,0.0,0.0,0.0,0.0,0.0,0.0,0.0,0.0,0.0,0.0,0.0,0.0,0.0,0.0,0.0,0.0,0.0,0.0,-4.7327,0.0,0.0,0.0,0.0,0.0,0.0,0.0,0.0,0.0,0.0,0.0,0.0,0.0,0.0,0.0,0.0,0.0,0.0,0.0,0.0,0.0,0.0,0.0,0.0,-3.5245,-3.5682,-3.584,-3.6892,-3.7547,-3.7547,0.0,0.0,0.0,0.0,0.0,-3.9197,-3.9645,-4.006,-4.0475,-4.0567,-4.0778,-4.1101,-4.2298,-4.3311,-4.4129,0.0,0.0,0.0,0.0,0.0,0.0,0.0,0.0,0.0,0.0,0.0,0.0,0.0,0.0,0.0,0.0,0.0,0.0,0.0,0.0,0.0,0.0,0.0,0.0,0.0,0.0,0.0,0.0,0.0,0.0,0.0,0.0,0.0,0.0,0.0,0.0,0.0,0.0,0.0,0.0,0.0,0.0,0.0,0.0,0.0,0.0,0.0,0.0,0.0,0.0,0.0,0.0,0.0,0.0,0.0,0.0,0.0,0.0,0.0,0.0,0.0,0.0,0.0,0.0,0.0,0.0,0.0,0.0,0.0,0.0,0.0,-4.6725,0.0,0.0,0.0,0.0,0.0,0.0,0.0,0.0,0.0,0.0,0.0,0.0,0.0,0.0,0.0,0.0,0.0,0.0,0.0,0.0,0.0,-3.4,-3.4034,-3.4134,-3.4259,-3.4431,-3.5194,-3.5646,-3.5671,-3.6348,0.0,0.0,0.0,-3.7209,-3.7379,-3.7746,-3.808,-3.8368,-3.8441,-3.8734,-3.923,-4.0177,-4.1217,-4.2321,-4.3155,0.0,0.0,0.0,0.0,0.0,0.0,0.0,0.0,0.0,0.0,0.0,0.0,0.0,0.0,0.0,0.0,0.0,0.0,0.0,0.0,0.0,0.0,0.0,0.0,0.0,0.0,0.0,0.0,0.0,0.0,0.0,0.0,0.0,0.0,0.0,0.0,0.0,0.0,0.0,0.0,0.0,0.0,0.0,0.0,0.0,0.0,0.0,0.0,0.0,0.0,0.0,0.0,0.0,0.0,0.0,0.0,0.0,0.0,0.0,0.0,0.0,0.0,0.0,-4.63,-4.6305,-4.6291,-4.6296,-4.6302,-4.6307,-4.6245,-4.6179,-4.6114,-4.6059,0.0,0.0,0.0,0.0,0.0,0.0,0.0,0.0,0.0,0.0,0.0,0.0,0.0,0.0,0.0,0.0,0.0,0.0,0.0,-3.3435,-3.3044,-3.3002,-3.3135,-3.3381,-3.3408,-3.3456,-3.3587,-3.3692,-3.3782,-3.3782,-3.453,-3.5045,-3.5298,-3.6555,-3.7302,-3.7481,-3.7828,-3.815,-3.8442,-3.8656,-3.873,-3.8834,-4.1821,-4.3159,-4.3194,0.0,0.0,0.0,0.0,0.0,0.0,0.0,0.0,0.0,0.0,0.0,0.0,0.0,0.0,0.0,0.0,0.0,0.0,0.0,0.0,0.0,0.0,0.0,0.0,0.0,0.0,0.0,0.0,0.0,0.0,0.0,0.0,0.0,0.0,0.0,0.0,0.0,0.0,0.0,0.0,0.0,-4.5256,-4.5389,0.0,0.0,0.0,0.0,0.0,0.0,0.0,0.0,0.0,0.0,0.0,0.0,0.0,-4.6358,-4.6475,-4.6358,-4.63,-4.63,-4.63,-4.6302,-4.6302,-4.6303,-4.6293,-4.6302,-4.6286,0.0,-4.6173,-4.6115,0.0,0.0,0.0,0.0,0.0,0.0,0.0,0.0,0.0,0.0,0.0,0.0,0.0,0.0,0.0,0.0,0.0,0.0,0.0,0.0,0.0,-3.254,-3.2621,-3.2579,-3.2606,-3.2644,-3.2806,-3.2875,-3.2971,-3.3093,-3.3535,-3.3826,-3.3926,-3.4575,-3.4943,-3.5003,-3.5407,-3.5671,-3.5801,-3.6515,-3.6844,-3.6973,-3.9027,-4.0496,-4.139,-4.1685,0.0,0.0,0.0,0.0,0.0,0.0,0.0,0.0,0.0,0.0,0.0,0.0,0.0,0.0,0.0,0.0,0.0,0.0,0.0,0.0,0.0,0.0,0.0,0.0,0.0,0.0,0.0,0.0,0.0,0.0,0.0,0.0,0.0,0.0,0.0,0.0,0.0,0.0,0.0,-4.5265,-4.5286,-4.5338,-4.5388,-4.5448,0.0,0.0,0.0,0.0,0.0,0.0,0.0,0.0,0.0,-4.6303,-4.631,-4.6294,-4.63,-4.63,-4.63,-4.63,-4.63,-4.63,-4.63,-4.63,-4.6309,-4.6301,-4.6301,-4.6288,-4.6243,-4.6173,-4.6125,-4.6056,0.0,0.0,0.0,0.0,-4.5803,-4.5798,0.0,0.0,0.0,0.0,0.0,0.0,0.0,0.0,0.0,0.0,0.0,0.0,-3.1705,-3.1819,-3.1875,-3.1734,-3.1775,-3.1845,-3.2013,-3.2139,-3.2293,-3.2419,-3.261,-3.2745,-3.2756,-3.2879,-3.2986,-3.3077,-3.3375,-3.3572,-3.3604,-3.4605,-3.5168,-3.5341,-3.6224,-3.7669,-3.946,-4.0019,-4.0916,-4.1982,0.0,0.0,0.0,0.0,0.0,0.0,0.0,0.0,0.0,0.0,0.0,0.0,0.0,0.0,0.0,0.0,0.0,0.0,0.0,0.0,0.0,0.0,0.0,0.0,0.0,0.0,0.0,0.0,0.0,0.0,0.0,0.0,0.0,0.0,0.0,0.0,0.0,-4.5235,-4.5235,-4.5297,-4.5328,-4.538,0.0,0.0,0.0,0.0,0.0,0.0,-4.5954,-4.6048,-4.6153,-4.6259,-4.6277,-4.6308,-4.6296,-4.63,-4.63,-4.63,-4.63,-4.63,-4.63,-4.63,-4.6309,-4.6301,-4.6301,-4.6306,-4.6289,-4.6235,-4.6172,-4.6119,-4.6027,-4.5969,-4.5925,-4.5845,-4.5812,-4.58,0.0,0.0,0.0,0.0,0.0,0.0,0.0,0.0,0.0,0.0,0.0,-3.1117,-3.0463,-3.0403,-3.0493,-3.0657,-3.0523,-3.0493,-3.0673,-3.0807,-3.0896,-3.0896,-3.1219,-3.1466,-3.1595,-3.2007,-3.2394,-3.2725,-3.2826,-3.2922,-3.3039,-3.3501,-3.3617,-3.3446,-3.4004,-3.5605,-3.7879,-3.8914,-3.949,-3.9756,-4.0769,0.0,0.0,0.0,0.0,0.0,0.0,0.0,0.0,0.0,0.0,0.0,0.0,0.0,0.0,0.0,0.0,0.0,0.0,0.0,0.0,0.0,0.0,0.0,0.0,0.0,0.0,0.0,0.0,0.0,0.0,0.0,0.0,0.0,0.0,0.0,0.0,0.0,0.0,-4.5286,-4.5254,0.0,0.0,0.0,0.0,-4.5603,-4.5676,-4.5729,-4.5814,-4.5993,-4.6103,-4.6106,-4.6231,-4.6306,-4.6306,-4.6296,-4.63,-4.63,-4.63,-4.63,-4.63,-4.63,-4.6309,-4.6301,-4.6301,-4.6306,-4.6289,-4.6235,-4.62,-4.6171,-4.6041,-4.6003,-4.5986,-4.5912,-4.5854,-4.5807,0.0,0.0,0.0,0.0,0.0,-3.3563,-3.3198,-3.2407,-3.1652,-3.1131,-3.0718,-3.0253,-2.9716,-2.9574,-2.9512,-2.9435,-2.9373,-2.9328,-2.9237,-2.9501,-2.9563,-2.9331,-2.9979,-3.0509,-3.0911,-3.1087,-3.1219,-3.1363,-3.1551,-3.1779,-3.2046,-3.2394,-3.2656,-3.2861,-3.306,-3.3788,-3.4973,-3.6439,-3.7853,-3.9143,-3.9637,-4.022,0.0,0.0,0.0,0.0,0.0,0.0,0.0,0.0,0.0,0.0,0.0,0.0,0.0,0.0,0.0,0.0,0.0,0.0,0.0,0.0,0.0,0.0,0.0,0.0,0.0,0.0,0.0,0.0,0.0,0.0,0.0,0.0,0.0,0.0,0.0,0.0,0.0,-4.5213,-4.5213,0.0,-4.5328,-4.5328,-4.535,-4.541,-4.5475,-4.556,-4.5669,-4.5783,-4.5925,-4.6093,-4.6154,-4.6219,-4.6303,-4.6308,-4.6294,-4.63,-4.63,-4.63,-4.63,-4.63,-4.6306,-4.6296,-4.6301,-4.6305,-4.6308,-4.6268,-4.6242,-4.6209,-4.6155,-4.6096,-4.6068,-4.5978,-4.5956,-4.5914,0.0,0.0,0.0,0.0,0.0,-3.3024,-3.2555,-3.1707,-3.0955,-3.0584,-2.9919,-2.9317,-2.8903,-2.8565,-2.8293,-2.8182,-2.8149,-2.8103,-2.7959,-2.8285,-2.8349,-2.8136,-2.8812,-2.9286,-2.9611,-2.9673,-2.9704,-2.9794,-3.0025,-3.0284,-3.0599,-3.0925,-3.1261,-3.1634,-3.1747,-3.2114,-3.2742,-3.38,-3.5538,-3.7628,-3.8263,-3.8967,-3.9713,0.0,0.0,0.0,0.0,0.0,0.0,0.0,0.0,0.0,0.0,0.0,0.0,0.0,0.0,0.0,0.0,0.0,0.0,0.0,0.0,0.0,0.0,0.0,0.0,0.0,0.0,0.0,0.0,0.0,0.0,0.0,0.0,0.0,0.0,-4.4694,-4.4907,-4.5057,-4.5125,-4.5192,-4.5265,-4.5534,-4.5698,-4.5698,-4.603,-4.6292,-4.6404,-4.6494,-4.664,-4.6877,-4.6912,-4.7019,-4.7135,-4.714,-4.7012,-4.6749,-4.6749,-4.6573,-4.63,-4.63,-4.6305,-4.6293,-4.6297,-4.6303,-4.6307,-4.6308,-4.6269,-4.6222,-4.6212,-4.6173,-4.6123,-4.6061,-4.6031,-4.5988,0.0,0.0,0.0,0.0,0.0,-3.2114,-3.1595,-3.0822,-3.0113,-2.9634,-2.8949,-2.833,-2.8019,-2.7332,-2.6883,-2.6883,-2.6883,-2.6883,-2.6849,-2.7165,-2.7365,-2.7365,-2.7657,-2.7775,-2.7683,-2.7808,-2.7952,-2.8168,-2.8363,-2.857,-2.8757,-2.9038,-2.9355,-2.9678,-3.0029,-3.0601,-3.1333,-3.1203,-3.2606,-3.4989,-3.6562,-3.734,-3.7687,0.0,0.0,0.0,0.0,0.0,0.0,0.0,0.0,0.0,0.0,0.0,0.0,0.0,0.0,0.0,0.0,0.0,0.0,0.0,0.0,0.0,0.0,0.0,0.0,0.0,0.0,0.0,0.0,0.0,0.0,0.0,0.0,0.0,-4.4147,-4.4402,-4.4632,-4.477,-4.4986,-4.5163,-4.523,-4.6028,-4.6538,-4.6538,-4.7384,-4.7926,-4.7988,-4.8114,-4.8261,-4.8406,-4.8524,-4.8662,-4.8797,-4.8791,-4.8413,-4.7645,-4.7606,-4.7157,-4.6339,-4.63,-4.6305,-4.6293,-4.6293,-4.63,-4.6307,-4.6307,-4.6308,-4.6289,-4.6222,-4.6192,-4.6181,-4.6125,-4.6064,-4.5993,0.0,0.0,0.0,-3.4642,-3.3245,-3.2112,-3.1521,-3.0569,-2.9822,-2.9509,-2.8565,-2.7855,-2.767,-2.6752,-2.6217,-2.6308,-2.6308,-2.6217,-2.5953,-2.6195,-2.6355,-2.6445,-2.642,-2.6612,-2.7118,-2.7172,-2.7206,-2.7252,-2.7406,-2.765,-2.7992,-2.8322,-2.8725,-2.9139,-2.9386,-2.9787,-3.0318,-3.0437,-3.1014,-3.2021,-3.3764,-3.5442,-3.693,0.0,0.0,0.0,0.0,0.0,0.0,0.0,0.0,0.0,0.0,0.0,0.0,0.0,0.0,0.0,0.0,0.0,0.0,0.0,0.0,0.0,0.0,0.0,0.0,0.0,0.0,0.0,0.0,0.0,0.0,0.0,-4.3105,-4.341,-4.3728,-4.4002,-4.4288,-4.468,-4.5299,-4.5798,-4.6104,-4.6881,-4.7381,-4.7444,-4.7728,-4.7905,-4.7926,-4.802,-4.8155,-4.8398,-4.8431,-4.8569,-4.8799,-4.8805,-4.8683,-4.8452,-4.7828,-4.7424,-4.7217,-4.6593,-4.6302,-4.6305,-4.6291,-4.6297,-4.6304,-4.6306,-4.6308,-4.6308,-4.6288,-4.6268,-4.6266,-4.6191,-4.6133,-4.6068,0.0,0.0,0.0,-3.4577,-3.314,-3.1944,-3.1406,-3.0404,-2.962,-2.932,-2.8163,-2.7278,-2.7056,-2.5871,-2.5087,-2.5182,-2.5182,-2.5087,-2.4897,-2.5064,-2.5194,-2.5182,-2.4992,-2.5087,-2.5521,-2.5438,-2.5473,-2.5636,-2.5706,-2.5901,-2.6211,-2.6472,-2.6832,-2.7287,-2.7565,-2.8055,-2.8652,-2.8852,-2.9292,-2.9954,-3.11,-3.3138,-3.5513,-3.6043,-3.6914,-3.7956,-3.8157,-3.859,-3.9092,-3.9272,0.0,0.0,0.0,0.0,0.0,0.0,0.0,0.0,0.0,0.0,0.0,0.0,0.0,0.0,0.0,0.0,0.0,0.0,0.0,0.0,0.0,0.0,0.0,0.0,-4.2822,-4.3121,-4.3725,-4.4145,-4.4535,-4.4984,-4.5838,-4.6535,-4.688,-4.7712,-4.8254,-4.8308,-4.8689,-4.8925,-4.8947,-4.8973,-4.9115,-4.9355,-4.9417,-4.9553,-4.9808,-4.9838,-4.9685,-4.9338,-4.883,-4.823,-4.7535,-4.7028,-4.6622,-4.6294,-4.63,-4.6309,-4.6299,-4.6301,-4.6306,0.0,0.0,0.0,0.0,0.0,-4.6183,-4.6136,0.0,0.0,0.0,-3.4447,-3.2955,-3.1777,-3.1305,-3.0297,-2.9477,-2.9131,-2.7887,-2.6828,-2.6399,-2.4921,-2.397,-2.3861,-2.3861,-2.3861,-2.3861,-2.4007,-2.4007,-2.3824,-2.3629,-2.3482,-2.3446,-2.3261,-2.3313,-2.3573,-2.3573,-2.3647,-2.3806,-2.4,-2.4301,-2.4671,-2.5158,-2.5834,-2.6599,-2.6888,-2.7544,-2.8451,-2.8671,-3.0685,-3.3713,-3.4501,-3.5782,-3.7128,-3.7147,-3.7549,-3.8141,-3.843,0.0,0.0,0.0,0.0,0.0,0.0,0.0,0.0,0.0,0.0,0.0,0.0,0.0,0.0,0.0,0.0,0.0,0.0,0.0,0.0,0.0,0.0,0.0,0.0,-4.2733,-4.3082,-4.4055,-4.4711,-4.5203,-4.5534,-4.6528,-4.7305,-4.7568,-4.8516,-4.9115,-4.9115,-4.9842,-5.0302,-5.0359,0.0,0.0,0.0,0.0,-5.0694,-5.0894,-5.1059,-5.0787,-5.0104,-5.0104,-4.9249,-4.7649,-4.7532,-4.7053,-4.6284,-4.6284,-4.6296,-4.6291,-4.6291,-4.63,-4.6307,-4.6308,-4.6308,-4.6289,-4.6223,-4.6218,-4.6216,0.0,0.0,0.0,-3.4666,-3.313,-3.1888,-3.1435,-3.0358,-2.9477,-2.9131,-2.8176,-2.7191,-2.6252,-2.5205,-2.4299,-2.3703,-2.3677,-2.3677,-2.3677,-2.3519,-2.3457,-2.3409,-2.3224,-2.2879,-2.2408,-2.2371,-2.2124,-2.1628,-2.1628,-2.1742,-2.192,-2.2146,-2.2371,-2.2632,-2.3506,-2.4159,-2.4708,-2.5568,-2.6171,-2.6637,-2.6989,-2.9085,-3.2072,-3.3121,-3.4363,-3.56,-3.6491,-3.6906,-3.7058,-3.7371,-3.7835,-3.8298,-3.8476,0.0,0.0,0.0,0.0,0.0,0.0,0.0,0.0,0.0,0.0,0.0,0.0,0.0,0.0,0.0,0.0,0.0,0.0,0.0,0.0,-4.3274,-4.3501,-4.387,-4.4721,-4.5617,-4.6135,-4.6,-4.7031,-4.7864,-4.8192,-4.9186,-4.9841,-4.9892,-5.0038,-5.017,-5.0243,-4.9622,-4.9386,-4.9642,-4.9054,-4.8836,-4.9099,-4.98,-5.0157,-5.0105,0.0,0.0,-4.8524,-4.7825,-4.7028,-4.6211,-4.6211,-4.6245,-4.6303,-4.6303,-4.6296,-4.6307,-4.6308,-4.6308,-4.6308,-4.6289,-4.6288,-4.6268,0.0,0.0,0.0,-3.4897,-3.3459,-3.2266,-3.1734,-3.0689,-2.9758,-2.9162,-2.8065,-2.7043,-2.6343,-2.4992,-2.3948,-2.3482,-2.3261,-2.315,-2.315,-2.2964,-2.2815,-2.2703,-2.2402,-2.2101,-2.1825,-2.1711,-2.1395,-2.0865,-2.0711,-2.0585,-2.0498,-2.0604,-2.0797,-2.1133,-2.1721,-2.2408,-2.3136,-2.3795,-2.4433,-2.504,-2.5627,-2.7037,-2.9037,-3.1146,-3.2835,-3.4246,-3.5274,-3.5802,-3.6086,-3.6228,-3.6707,-3.7265,-3.7324,-3.7774,-3.8393,0.0,0.0,0.0,0.0,0.0,0.0,0.0,0.0,0.0,0.0,0.0,0.0,0.0,0.0,-4.1321,-4.1899,0.0,-4.2732,-4.3432,-4.393,-4.4513,-4.5383,-4.6023,-4.6446,-4.6635,-4.7722,-4.8586,-4.8926,-4.9592,-4.9847,-4.9486,-4.9474,-4.9321,-4.8912,-4.854,-4.8436,-4.8585,-4.8305,-4.8234,-4.8393,-4.8928,-4.9473,-4.9986,-4.9522,-4.9121,-4.8773,-4.7832,-4.6963,-4.6195,-4.6195,-4.6228,-4.6247,-4.6296,-4.6293,-4.6305,-4.6307,-4.6308,-4.6308,-4.6308,-4.6308,-4.623,0.0,0.0,0.0,-3.5201,-3.3885,-3.2745,-3.2071,-3.1057,-3.0085,-2.9289,-2.8084,-2.7018,-2.6467,-2.4981,-2.3838,-2.3298,-2.2964,-2.274,-2.2665,-2.2478,-2.2289,-2.2063,-2.1731,-2.1425,-2.1195,-2.1041,-2.0693,-2.0216,-2.001,-1.9687,-1.9244,-1.9244,-1.9432,-1.9767,-2.0071,-2.0855,-2.1945,-2.2349,-2.2957,-2.3787,-2.4479,-2.5205,-2.6141,-2.9042,-3.1215,-3.282,-3.3873,-3.4659,-3.5172,-3.5222,-3.564,-3.6148,-3.6226,-3.6677,-3.7265,-3.7825,-3.8322,0.0,0.0,0.0,0.0,0.0,0.0,0.0,0.0,-4.0188,-4.0337,-4.0731,-4.0851,-4.1073,-4.1762,-4.2506,-4.3195,-4.3738,-4.4381,-4.5146,-4.6078,-4.6363,-4.6664,-4.7202,-4.8287,-4.9048,-4.9183,-4.9669,-4.965,-4.8833,-4.8979,-4.8732,-4.7881,-4.7727,-4.7632,-4.7551,-4.7549,-4.761,-4.7703,-4.8034,-4.867,-4.9598,-4.8869,-4.858,-4.8693,-4.7733,-4.688,-4.6167,-4.62,-4.6192,-4.6206,-4.6267,-4.6285,-4.6278,-4.6282,-4.6286,-4.6308,-4.6308,-4.6191,-4.5957,0.0,0.0,0.0,0.0,0.0,-3.3245,-3.2372,-3.1332,-3.0389,-2.962,-2.9008,-2.8005,-2.6476,-2.5869,-2.4874,-2.3176,-2.3001,-2.2815,-2.2478,-2.2402,-2.2214,-2.1845,-2.1807,-2.1223,-2.0098,-2.0059,-1.9676,-1.8891,-1.8891,-1.8563,-1.7893,-1.7893,-1.8046,-1.827,-1.882,-1.9924,-2.1357,-2.1901,-2.2515,-2.315,-2.3776,-2.4371,-2.5123,-2.7348,-2.9318,-3.1092,-3.2558,-3.3595,-3.4274,-3.4595,-3.4728,-3.4861,-3.5219,-3.5382,-3.5657,-3.66,0.0,-3.7221,-3.8411,-3.905,-3.9405,-3.9405,-3.9484,-3.959,0.0,-3.9858,-3.9986,-4.0171,-4.0697,-4.1299,-4.1732,-4.2694,-4.3761,-4.4824,-4.5382,-4.5945,-4.677,-4.7008,-4.719,-4.7431,-4.8366,-4.876,-4.813,-4.9187,-4.9584,-4.8768,-4.9375,-4.9459,-4.8707,-4.7941,-4.7265,-4.6661,-4.5959,-4.5736,-4.5978,-4.6781,-4.7637,-4.8567,-4.8522,-4.847,-4.843,-4.7644,-4.6824,-4.6022,-4.6157,-4.6206,-4.6209,-4.6206,-4.6201,-4.6212,-4.6214,-4.6249,-4.6304,-4.6308,-4.5801,-4.5137,0.0,0.0,0.0,0.0,0.0,-3.3996,-3.3072,-3.1901,-3.0867,-3.0208,-2.9188,-2.8163,-2.7211,-2.5951,-2.4767,-2.3731,-2.3128,-2.2703,-2.2402,-2.2176,-2.1921,-2.1655,-2.13,-2.0838,-2.0333,-2.0059,-1.9627,-1.9042,-1.8922,-1.8603,-1.8112,-1.7951,-1.7983,-1.8264,-1.8736,-1.9747,-2.1183,-2.1642,-2.2596,-2.3717,-2.4045,-2.4551,-2.5206,-2.6769,-2.833,-2.9862,-3.138,-3.2645,0.0,0.0,-3.3946,-3.4505,-3.4687,-3.4953,-3.535,-3.6134,-3.6415,0.0,-3.7969,-3.8722,-3.9121,-3.9121,-3.9272,-3.9405,-3.9537,-3.9616,-3.9828,-4.0387,-4.0802,-4.1348,-4.2125,-4.3107,-4.4106,-4.5046,-4.5723,-4.6358,-4.6921,-4.7111,-4.7245,-4.7363,-4.7657,-4.7824,-4.7795,-4.8935,-4.9192,-4.8041,-4.8262,-4.8124,-4.7334,-4.6498,-4.5919,-4.5639,-4.5396,-4.535,-4.5467,-4.5904,-4.6621,-4.7572,-4.7063,-4.7115,-4.7676,-4.6784,-4.6238,-4.6003,-4.6063,-4.6126,-4.6206,-4.6192,-4.6209,-4.6206,-4.6206,-4.6218,-4.6254,-4.6284,-4.5741,-4.4922,0.0,0.0,0.0,0.0,0.0,-3.5021,-3.3829,-3.2683,-3.169,-3.0911,-2.9721,-2.857,-2.7736,-2.6158,-2.4981,-2.4469,-2.3768,-2.3165,-2.2793,-2.2467,-2.2138,-2.1845,-2.1185,-2.0789,-2.0683,-2.0059,-1.9578,-1.9301,-1.9262,-1.9024,-1.8665,-1.8616,-1.8776,-1.9085,-1.9362,-2.0294,-2.1642,-2.1962,-2.2898,-2.4143,-2.4384,-2.485,-2.5464,-2.6586,-2.7803,-2.9066,-3.0364,-3.1797,0.0,0.0,-3.3135,-3.4025,-3.4074,-3.4399,-3.4872,-3.5467,-3.5962,-3.6523,-3.7546,-3.827,-3.8788,-3.8914,-3.9067,-3.9218,-3.9325,-3.9555,-3.9907,-4.0602,-4.1198,-4.1789,-4.2615,-4.3568,-4.4475,-4.5099,-4.5866,-4.6495,-4.6778,-4.7002,-4.7178,-4.7254,-4.6964,-4.6892,-4.7155,-4.8169,-4.831,-4.7059,-4.7238,-4.7036,-4.6241,-4.5645,-4.5226,-4.501,-4.5148,-4.5243,-4.5275,-4.538,-4.5917,-4.6878,-4.599,-4.6095,-4.7071,-4.6112,-4.5796,-4.5968,-4.5993,-4.6059,-4.6157,-4.617,-4.6192,-4.6192,-4.6192,-4.6045,-4.5845,-4.5898,-4.5364,-4.4511,0.0,0.0,0.0,0.0,0.0,-3.6339,-3.4565,-3.3728,-3.2928,-3.1821,-3.0955,-2.9692,-2.7723,-2.682,-2.6055,-2.5334,-2.5063,-2.46,-2.3818,-2.3607,-2.3298,-2.2703,-2.189,-2.128,-2.0905,-1.9854,-1.9301,-1.9301,-1.9668,-1.9659,-1.9304,-1.9846,-2.0353,-2.072,-2.0759,-2.1545,-2.2953,-2.3095,-2.3452,-2.3961,-2.4492,-2.5016,-2.5591,-2.6607,-2.7707,-2.8796,-2.9562,0.0,-3.2357,-3.1964,-3.2382,-3.3094,-3.3276,-3.3466,0.0,-3.4312,-3.5222,-3.626,-3.6919,-3.7621,-3.8258,-3.8678,-3.8805,-3.886,-3.8996,-3.9676,-4.0326,-4.0573,-4.1855,-4.2981,-4.3155,-4.4099,-4.493,-4.5169,-4.587,-4.6405,-4.6423,-4.6754,-4.7066,-4.7196,-4.6629,-4.6117,0.0,-4.6669,-4.6803,-4.5918,-4.6819,-4.7036,-4.6241,-4.6184,-4.5804,-4.5029,-4.501,-4.5061,-4.5203,-4.5203,-4.5687,-4.6595,-4.5783,-4.5899,-4.6781,-4.6039,-4.5775,-4.5917,-4.5968,-4.6003,-4.6012,-4.6154,-4.6199,-4.6199,-4.6199,-4.5676,-4.4943,-4.4943,-4.4422,-4.3607,0.0,0.0,0.0,0.0,0.0,0.0,-3.6198,-3.4735,-3.3518,-3.2902,-3.1461,0.0,0.0,0.0,0.0,0.0,-2.5871,-2.5264,-2.4636,-2.4168,-2.3742,-2.3335,-2.2392,-2.1787,-2.1492,-2.075,-2.0352,-2.0352,-2.0508,-2.0576,-2.0566,-2.0914,-2.1145,-2.1288,-2.1811,-2.2601,-2.3585,-2.4289,-2.5169,-2.6136,-2.6445,-2.6875,-2.7391,-2.7716,-2.8332,-2.9027,0.0,0.0,-3.1261,-3.1213,-3.1633,-3.2284,-3.2757,-3.3122,-3.3501,-3.4025,-3.5121,-3.6228,-3.6538,-3.7445,-3.8347,-3.8616,-3.8722,-3.8805,-3.886,-3.9473,-4.0186,-4.0753,-4.177,-4.2725,-4.334,-4.397,-4.4519,-4.4927,-4.5563,-4.6087,-4.6357,-4.6749,-4.702,-4.7066,-4.6506,0.0,0.0,0.0,0.0,-4.5853,-4.6295,-4.6487,-4.6203,-4.5653,-4.5211,-4.495,-4.4986,-4.5014,-4.508,-4.5159,-4.5366,-4.5676,-4.5484,-4.5592,-4.5926,-4.5682,-4.5645,-4.5768,-4.5783,-4.5877,-4.6003,-4.6046,-4.6123,-4.6199,-4.6199,-4.568,-4.4835,-4.425,-4.3526,-4.2801,0.0,0.0,0.0,0.0,0.0,0.0,0.0,0.0,0.0,0.0,0.0,0.0,0.0,0.0,0.0,0.0,0.0,-2.6183,-2.5639,-2.5075,-2.4551,-2.4043,-2.299,-2.2317,-2.2138,-2.128,-2.0895,-2.0905,-2.1126,-2.1346,-2.1652,-2.2145,-2.251,-2.2798,-2.3427,-2.412,-2.4791,-2.5603,-2.6548,-2.7517,-2.7716,-2.8143,-2.8675,-2.8675,-2.8985,0.0,-2.9191,-2.9596,-3.0229,-3.0602,-3.1186,-3.1812,-3.2404,-3.2824,-3.3227,-3.3908,-3.4791,-3.5705,-3.6337,-3.7177,-3.796,-3.8363,-3.8516,-3.86,-3.8655,-3.9478,-4.0357,-4.0814,-4.1812,-4.2795,-4.3469,-4.3776,-4.408,-4.4558,-4.5115,-4.5641,-4.6027,-4.6477,-4.6842,-4.698,-4.6396,-4.5699,0.0,0.0,0.0,-4.5107,-4.5418,-4.564,-4.5691,-4.5186,-4.4895,-4.4895,-4.4931,-4.4955,-4.4955,-4.5057,-4.5125,-4.517,-4.5307,-4.5399,-4.5467,-4.5485,-4.5538,-4.5602,-4.5673,-4.5763,-4.5896,-4.5942,-4.6027,-4.6107,-4.5815,-4.5184,-4.4329,-4.3451,-4.2624,-4.1935,0.0,0.0,0.0,0.0,0.0,0.0,0.0,0.0,0.0,0.0,0.0,0.0,0.0,0.0,0.0,0.0,0.0,0.0,-2.6816,-2.6314,-2.5688,-2.4933,-2.3779,-2.3069,-2.2841,-2.1642,-2.1068,-2.1126,-2.168,-2.2161,-2.2574,-2.3545,-2.4383,-2.5111,-2.5488,-2.5978,-2.6539,-2.7082,-2.7637,-2.8182,-2.8371,-2.8821,-2.939,-2.9373,-2.956,-2.9839,-3.0038,-2.9806,-2.9483,-3.02,-3.0964,-3.1705,-3.2253,-3.2561,-3.2903,-3.3811,-3.4254,-3.4776,-3.6259,-3.6784,-3.7117,-3.7976,-3.8164,-3.8221,-3.8379,-3.9641,-4.0798,-4.0798,-4.201,-4.3174,-4.3492,-4.3568,-4.3671,-4.401,-4.453,-4.5028,-4.5433,-4.6003,-4.6542,-4.6934,0.0,0.0,0.0,0.0,0.0,-4.3837,0.0,-4.4646,-4.477,-4.4846,-4.4895,-4.4895,-4.4895,-4.4895,-4.4895,-4.4895,-4.4974,-4.5103,-4.5213,-4.5317,-4.5408,-4.5467,-4.5467,-4.5419,-4.5602,-4.5692,-4.5715,-4.5848,-4.5933,-4.5915,-4.5104,-4.4308,-4.35,-4.2627,-4.1782,-4.1103,0.0,0.0,0.0,0.0,0.0,0.0,0.0,0.0,0.0,0.0,0.0,0.0,0.0,0.0,0.0,0.0,0.0,0.0,-2.7729,-2.7624,-2.7278,-2.6461,-2.58,-2.5251,-2.4815,-2.4315,-2.4026,-2.394,-2.4218,-2.4421,-2.4564,-2.524,-2.5777,-2.6189,-2.6343,-2.7043,-2.8128,-2.8515,-2.9261,-3.0166,-3.0256,-3.054,-3.0808,-3.0253,-3.0099,-3.016,-3.0129,-3.0306,-3.0584,-3.0846,-3.1419,-3.2109,-3.2519,-3.2846,-3.3234,-3.3722,-3.4591,-3.5512,-3.6149,-3.6723,-3.7268,-3.7831,-3.7976,-3.8017,-3.8193,-3.9463,-4.0572,-4.0572,-4.1722,-4.279,-4.3054,-4.316,-4.3295,-4.3552,-4.4248,-4.4882,-4.5303,-4.5953,-4.6542,-4.6934,-4.6819,-4.6396,-4.5658,-4.503,0.0,0.0,-4.4215,-4.4407,-4.4503,-4.4764,-4.4895,-4.4895,-4.4895,-4.4895,-4.4895,-4.4895,-4.4931,-4.5033,-4.5068,-4.517,-4.5328,-4.5329,-4.5361,-4.541,-4.5456,-4.5537,-4.5621,-4.5719,-4.5794,-4.5782,-4.5074,-4.4277,-4.3439,-4.259,-4.1792,-4.11,0.0,0.0,0.0,0.0,0.0,0.0,0.0,0.0,0.0,0.0,0.0,0.0,0.0,0.0,0.0,0.0,0.0,0.0,0.0,-2.8898,-2.8534,-2.7776,-2.7193,-2.6752,-2.6502,-2.6161,-2.5999,-2.603,-2.6201,-2.6362,-2.6515,-2.7041,-2.7558,-2.8066,-2.8223,-2.8906,-2.9866,-3.0094,-3.0734,0.0,0.0,-3.1929,-3.2139,-3.1607,-3.1542,-3.1708,-3.1516,-3.1909,-3.2463,-3.2178,-3.2455,-3.2952,-3.3101,-3.336,-3.3638,-3.4235,-3.4924,-3.5623,-3.6242,-3.6754,-3.721,-3.77,-3.786,-3.7976,-3.8221,-3.9192,-4.0124,-4.0432,-4.1387,-4.2292,-4.282,-4.2945,-4.3068,-4.3251,-4.3785,-4.4373,-4.4766,-4.5485,-4.6168,0.0,-4.6865,0.0,-4.5873,-4.5483,-4.4899,0.0,-4.388,-4.3974,-4.4125,-4.4462,-4.4687,-4.4776,-4.484,-4.4858,-4.4895,-4.4895,-4.4919,-4.4955,-4.4998,-4.5068,-4.517,-4.5265,-4.5298,-4.532,0.0,-4.5438,-4.5522,-4.5547,-4.5398,-4.5075,-4.4337,-4.358,-4.2796,-4.1972,-4.1441,-4.1091,0.0,0.0,0.0,0.0,0.0,0.0,0.0,0.0,0.0,0.0,-3.6173,-3.5507,0.0,0.0,0.0,0.0,0.0,0.0,0.0,0.0,0.0,-2.9188,-2.8534,-2.8251,-2.8288,-2.7824,-2.7655,-2.786,-2.8116,-2.832,-2.8474,-2.9069,-2.9693,-3.0351,-3.0617,-3.1112,-3.1738,-3.1848,-3.2249,-3.2812,-3.2919,-3.3182,-3.3482,0.0,0.0,-3.3764,-3.3545,-3.3894,-3.4396,-3.3927,-3.3829,-3.3851,-3.3885,-3.3919,-3.409,-3.499,-3.5267,-3.5527,-3.643,-3.6831,-3.7106,-3.7553,-3.7772,-3.7976,-3.8307,-3.8958,-3.9638,-4.0237,-4.1029,-4.1821,-4.2577,-4.2803,-4.2899,-4.3021,-4.3295,-4.3684,-4.4112,-4.4912,-4.564,-4.6137,-4.6661,-4.673,-4.6034,-4.5856,-4.5275,-4.3984,-4.3702,-4.3626,-4.3726,-4.4069,-4.4336,-4.456,-4.4693,-4.4796,-4.4895,-4.4895,-4.4895,-4.4895,-4.4955,-4.4979,-4.501,-4.5181,-4.5254,-4.5203,-4.5311,-4.537,-4.5398,-4.539,-4.4948,-4.4185,-4.3405,-4.266,-4.199,-4.1169,-4.0953,-4.1078,0.0,0.0,0.0,0.0,0.0,0.0,0.0,0.0,0.0,0.0,-3.9009,-3.8148,0.0,0.0,0.0,0.0,0.0,0.0,0.0,0.0,0.0,0.0,-3.1438,-3.1239,-3.085,-3.0646,-3.0455,-3.0218,-3.0805,-3.1019,-3.0918,-3.1729,-3.2313,-3.2694,-3.2536,-3.3032,-3.3948,-3.3966,-3.4137,-3.4414,-3.4365,-3.4702,-3.5131,0.0,0.0,0.0,-3.4712,-3.4774,-3.4985,-3.5516,-3.5068,-3.4245,-3.4428,-3.4576,-3.481,-3.5237,-3.5672,-3.6116,-3.6445,-3.6754,-3.706,-3.7373,-3.7682,-3.796,-3.8193,-3.8901,-3.9538,-3.9651,-4.0704,-4.1644,-4.1805,-4.2276,-4.2665,-4.268,-4.2959,-4.3399,-4.3951,-4.4794,-4.5554,0.0,-4.6661,-4.6944,-4.6801,-4.6195,0.0,0.0,-4.4878,-4.4219,-4.3428,-4.3772,-4.411,-4.4416,-4.4457,-4.4597,-4.4895,-4.4895,-4.4895,-4.4895,-4.4907,-4.4943,-4.4991,-4.5045,-4.5114,-4.5203,-4.5224,0.0,-4.5317,-4.5379,-4.4892,-4.4068,-4.3316,-4.2579,-4.1847,-4.1027,-4.082,-4.0925,0.0,0.0,0.0,0.0,0.0,0.0,0.0,-4.2863,-4.2334,-4.2233,-4.176,-4.0721,-3.8786,-3.7956,-3.7313,0.0,0.0,0.0,0.0,0.0,0.0,0.0,0.0,0.0,-3.2909,-3.2782,-3.2777,-3.2877,0.0,-3.3573,-3.3507,-3.4005,-3.4372,-3.4609,-3.4575,-3.4947,-3.5572,-3.5591,-3.5685,-3.5865,-3.606,-3.6333,0.0,0.0,0.0,0.0,0.0,-3.6045,-3.5938,-3.6244,-3.6006,-3.5546,-3.5464,-3.5447,-3.5527,-3.5737,-3.607,-3.6414,-3.6677,-3.6984,-3.7284,-3.7594,-3.7873,-3.8091,-3.825,-3.8638,-3.9023,-3.9424,-4.004,-4.0737,-4.1466,-4.184,-4.2197,-4.2538,-4.2821,-4.3082,-4.3383,-4.4462,-4.5294,-4.558,-4.6453,-4.6998,-4.6998,-4.6641,-4.6248,-4.5838,-4.5573,-4.4895,-4.3685,-4.3696,-4.3852,-4.408,-4.4285,-4.4471,-4.4642,-4.4802,-4.4895,-4.4895,-4.4895,-4.4907,-4.4943,-4.4979,-4.5045,-4.5103,-4.517,-4.5213,-4.5246,-4.5317,-4.4592,-4.3397,-4.3032,-4.2195,-4.1115,-4.0744,-4.0674,-4.0809,0.0,0.0,0.0,0.0,0.0,0.0,-4.4503,-4.4143,-4.3871,-4.3804,-4.3695,-4.2702,-4.0293,-3.9581,-3.9077,0.0,0.0,0.0,0.0,0.0,0.0,0.0,0.0,0.0,0.0,0.0,0.0,-3.5304,-3.5727,0.0,0.0,0.0,0.0,0.0,-3.6446,-3.6748,-3.7159,-3.7161,-3.7286,0.0,0.0,-3.8049,0.0,0.0,0.0,0.0,0.0,-3.7148,-3.6922,-3.6631,-3.6631,-3.6723,-3.643,-3.6258,-3.6132,-3.6274,-3.6445,-3.6677,-3.6969,-3.727,-3.7565,-3.7812,-3.8062,-3.825,-3.8379,-3.8391,-3.8553,-3.912,-3.9408,-3.9846,-4.0948,-4.1401,-4.179,-4.231,-4.263,-4.2837,-4.2899,-4.4123,-4.5064,-4.5108,-4.6224,0.0,-4.6998,-4.6998,0.0,-4.6105,-4.602,-4.5476,-4.4225,-4.3853,-4.3768,-4.395,-4.4113,-4.4256,-4.4397,-4.4668,-4.4827,-4.4895,-4.4895,-4.4895,-4.4895,-4.4943,-4.4998,-4.501,-4.5114,-4.517,-4.5184,-4.5055,-4.4121,-4.2775,-4.2594,-4.1672,-4.0457,-4.0462,-4.054,-4.0662,0.0,0.0,0.0,0.0,0.0,0.0,-4.477,-4.4426,-4.4162,-4.4147,-4.3823,-4.3437,-4.3047,-4.1903,-4.0935,0.0,0.0,0.0,0.0,0.0,0.0,0.0,0.0,0.0,0.0,0.0,0.0,-3.6884,-3.7656,0.0,0.0,0.0,0.0,0.0,0.0,-3.831,-3.8959,-3.903,0.0,0.0,0.0,0.0,0.0,0.0,0.0,0.0,0.0,-3.765,-3.7682,-3.6922,-3.68,-3.6969,-3.6938,-3.6724,-3.6492,-3.6616,-3.68,-3.6999,-3.7134,-3.7506,-3.7857,-3.7886,-3.8132,-3.8363,-3.8391,-3.8391,-3.8424,-3.8489,-3.9023,-3.9554,-3.9684,-4.0753,-4.1628,-4.1693,0.0,-4.2696,-4.2868,-4.4004,-4.4905,-4.5064,0.0,0.0,-4.6998,-4.6998,-4.6962,-4.689,-4.6342,-4.5688,-4.5019,-4.4287,-4.4067,-4.4507,-4.3842,-4.3783,-4.4383,-4.443,-4.4597,-4.4895,-4.4895,-4.4895,-4.4895,-4.4907,-4.4931,-4.4991,-4.5003,-4.5091,0.0,-4.4353,-4.3545,-4.2717,-4.1925,-4.1083,-4.0325,-4.0314,-4.0406,-4.0526,0.0,0.0,0.0,0.0,0.0,0.0,-4.4858,-4.4648,-4.45,-4.45,-4.4288,-4.4048,-4.3793,-4.3282,-4.2755,-4.2223,0.0,0.0,0.0,0.0,0.0,0.0,0.0,0.0,0.0,0.0,-3.9272,-3.8976,-3.9606,0.0,0.0,0.0,0.0,0.0,0.0,-4.0201,-4.0535,-4.0565,0.0,0.0,0.0,0.0,0.0,0.0,0.0,0.0,0.0,0.0,-3.7915,-3.7238,-3.7104,-3.721,-3.706,-3.6953,-3.6938,-3.6892,-3.7059,-3.727,-3.7449,-3.7772,-3.8091,-3.8177,-3.8307,-3.8391,-3.8391,-3.8391,-3.8391,-3.8391,-3.8634,-3.8958,-3.9424,-3.9975,-4.0623,0.0,0.0,0.0,-4.2632,-4.3525,-4.4339,-4.4851,-4.5749,-4.6507,0.0,0.0,-4.6801,-4.6302,-4.6025,-4.5595,-4.4959,-4.423,-4.3704,-4.3409,-4.3287,-4.3387,-4.3721,-4.414,-4.4421,-4.453,-4.4739,-4.4827,-4.477,-4.4821,-4.4846,-4.4883,-4.4955,-4.5026,0.0,-4.4233,-4.3427,-4.2607,-4.176,-4.0941,-4.0244,-4.0244,-4.0308,-4.0368,0.0,0.0,0.0,0.0,0.0,-4.4895,-4.4895,-4.4802,-4.4712,-4.4712,-4.4578,-4.4397,-4.4143,-4.4113,-4.3974,-4.3565,-4.3014,0.0,0.0,0.0,0.0,0.0,0.0,0.0,0.0,0.0,-4.0907,-4.0764,-4.124,-4.1364,0.0,0.0,-4.1396,-4.1385,0.0,0.0,0.0,0.0,0.0,0.0,0.0,0.0,0.0,0.0,0.0,0.0,0.0,0.0,0.0,0.0,0.0,-3.7506,-3.7285,-3.721,0.0,-3.7105,-3.727,-3.7522,-3.77,-3.7992,-3.8294,-3.8379,-3.8391,-3.8391,-3.8391,-3.8391,-3.8391,-3.8391,-3.8391,-3.8553,-3.9072,-3.936,-3.9829,0.0,0.0,-4.1774,-4.2245,-4.3111,-4.3901,-4.4406,0.0,-4.583,-4.6283,-4.6295,-4.607,-4.5499,-4.5463,-4.5128,-4.4446,-4.3975,-4.3481,-4.2969,-4.2953,-4.3069,-4.3303,-4.3772,-4.4114,-4.4303,-4.4535,-4.468,-4.4712,-4.4764,-4.477,-4.4815,-4.4895,-4.4955,0.0,-4.3904,-4.3145,-4.2487,-4.1433,-4.0662,-4.0176,-4.0176,-4.0206,-4.0263,0.0,0.0,0.0,0.0,0.0,-4.4895,-4.4895,-4.4802,-4.4712,-4.4712,-4.4578,-4.4468,-4.4397,-4.4397,-4.4373,-4.43,-4.3744,0.0,0.0,0.0,0.0,0.0,0.0,0.0,0.0,0.0,-4.2739,-4.2077,-4.2417,-4.2208,-4.1508,-4.1634,-4.1726,-4.1796,0.0,0.0,0.0,0.0,0.0,0.0,0.0,0.0,0.0,0.0,0.0,0.0,0.0,0.0,0.0,0.0,0.0,0.0,0.0,-3.7567,-3.7387,0.0,-3.7449,-3.773,-3.7876,-3.8135,-3.8391,-3.8391,-3.8391,-3.8391,-3.8391,-3.8391,-3.8391,-3.8391,-3.8391,-3.8391,-3.8408,-3.9007,-3.9505,-3.9522,-4.0688,0.0,-4.1612,-4.2828,-4.3698,0.0,-4.4557,-4.501,-4.4761,-4.4655,-4.4621,-4.4603,-4.4603,0.0,-4.3533,-4.3518,-4.3605,-4.3796,-4.3023,-4.2825,-4.3303,-4.3303,-4.3642,-4.4289,-4.4303,-4.4435,-4.4712,-4.4712,-4.4751,-4.4796,-4.4796,-4.487,0.0,-4.3206,-4.2547,-4.243,-4.0764,-4.0106,-4.0106,-4.0106,-4.0147,-4.0196,0.0,0.0,0.0,0.0,0.0,0.0,-4.4895,-4.4802,-4.4712,-4.4712,-4.4578,-4.4501,-4.4473,-4.4473,-4.4473,-4.4444,-4.3983,0.0,0.0,0.0,0.0,0.0,0.0,0.0,0.0,-4.3612,-4.3535,-4.3328,-4.3537,-4.3527,-4.3342,-4.3539,-4.361,-4.3638,-4.3666,-4.3788,0.0,0.0,0.0,0.0,0.0,0.0,-4.25,0.0,0.0,0.0,0.0,0.0,0.0,0.0,0.0,0.0,0.0,0.0,0.0,-3.7685,-3.77,-3.77,-3.7759,-3.802,-3.8266,-3.8266,-3.8335,-3.8391,-3.8391,-3.8391,-3.8391,-3.8391,-3.8391,-3.8391,-3.8391,-3.8586,-3.891,-3.9424,-3.9878,0.0,0.0,0.0,0.0,-4.2204,-4.3216,-4.3915,0.0,0.0,-4.4236,-4.3889,-4.3836,-4.3518,-4.2715,-4.268,-4.2721,-4.2765,-4.2535,-4.251,-4.2764,-4.3032,-4.3284,-4.3543,-4.4008,-4.4236,-4.4302,-4.4519,-4.4646,-4.4672,-4.4725,-4.4436,-4.39,-4.2808,-4.2048,-4.1476,-4.0398,-3.9986,-4.0036,-4.0036,-4.0077,-4.0147,0.0,0.0,0.0,0.0,0.0,0.0,-4.4931,-4.4821,-4.4738,-4.4712,-4.4605,-4.4528,-4.4501,-4.4501,-4.4501,-4.4501,-4.4229,0.0,0.0,0.0,0.0,0.0,0.0,0.0,-4.4039,-4.4039,-4.4039,-4.4039,-4.4128,-4.4203,-4.4244,-4.4454,-4.451,-4.4501,-4.4578,-4.4565,0.0,0.0,0.0,0.0,0.0,0.0,-4.2655,0.0,0.0,0.0,0.0,0.0,0.0,0.0,0.0,0.0,0.0,0.0,0.0,0.0,-3.7905,-3.7788,-3.7876,-3.8094,-3.8294,-3.8294,-3.8351,-3.8391,-3.8391,-3.8391,-3.8391,-3.8391,-3.8391,-3.8391,-3.8391,-3.8391,-3.8553,-3.9007,-3.9327,-3.9651,0.0,-4.0335,-4.0688,-4.1222,-4.1842,0.0,0.0,-4.3016,-4.3107,-4.2903,-4.2991,-4.2822,-4.2343,-4.2308,-4.2308,-4.2308,-4.2308,-4.2366,-4.2503,-4.2747,-4.2976,-4.3214,-4.3629,-4.3918,-4.4124,-4.4317,-4.4477,-4.4605,-4.4646,-4.4214,0.0,-4.2598,-4.1791,-4.0979,-4.0144,-3.9856,-3.9889,-3.9889,-3.9943,-4.0036,0.0,0.0,0.0,0.0,0.0,0.0,0.0,-4.4902,-4.4789,-4.4725,-4.4646,-4.4578,-4.4496,-4.4501,-4.4501,-4.4501,-4.4501,0.0,0.0,0.0,0.0,0.0,0.0,0.0,-4.4314,-4.4314,-4.4314,-4.4314,-4.4314,-4.4329,-4.4344,-4.4524,-4.4578,-4.4542,-4.4725,-4.4738,0.0,0.0,0.0,0.0,-4.3441,-4.3032,0.0,0.0,0.0,0.0,0.0,0.0,0.0,0.0,0.0,0.0,0.0,0.0,0.0,0.0,0.0,0.0,0.0,-3.8294,-3.8408,-3.8408,-3.8391,-3.8391,-3.8391,-3.8391,0.0,-3.8391,-3.8391,-3.8391,-3.8391,-3.8391,-3.8391,-3.8391,-3.8958,-3.9424,-3.9424,-3.9946,-4.041,-4.0606,-4.0418,0.0,-4.1095,-4.1212,-4.1388,-4.1788,-4.2082,-4.2246,-4.2267,-4.2287,-4.2287,-4.2308,-4.2308,-4.2366,-4.2483,-4.2483,-4.2724,-4.316,-4.3196,-4.3512,-4.406,-4.4075,-4.4273,0.0,-4.4522,-4.4073,-4.3316,-4.2442,-4.1612,-4.0832,-4.0021,-3.9689,-3.9701,-3.9701,-3.977,-3.9889,0.0,0.0,0.0,0.0,0.0,0.0,0.0,0.0,0.0,0.0,-4.4672,-4.4592,-4.4578,-4.4542,-4.4501,0.0,0.0,0.0,0.0,0.0,0.0,0.0,0.0,0.0,-4.4458,-4.4458,-4.4487,-4.4524,-4.4524,-4.4578,-4.468,-4.4719,-4.4757,-4.4815,-4.4796,-4.4738,0.0,0.0,0.0,0.0,-4.3644,-4.3248,0.0,0.0,0.0,0.0,-4.1653,-4.1237,0.0,0.0,0.0,0.0,0.0,0.0,0.0,0.0,-3.8391,-3.8278,-3.8351,0.0,-3.8266,-3.8266,-3.8307,-3.8391,0.0,-3.8391,-3.8391,0.0,0.0,0.0,-3.8391,-3.8391,-3.8391,-3.8391,-3.8537,-3.8651,-3.8651,-3.878,-3.8922,-3.8967,-3.9193,-3.9481,-3.9819,-4.0221,-4.0625,-4.1036,-4.1396,-4.1683,-4.1817,-4.2023,-4.2187,-4.2287,-4.2308,-4.2325,-4.2346,-4.2463,-4.2586,-4.2728,-4.305,-4.3409,-4.3793,-4.3999,-4.4244,-4.4491,-4.3662,-4.2941,-4.2269,-4.1242,-4.0489,-4.0,-3.9774,-3.9703,-3.9701,-3.9701,-3.9712,-3.9758,0.0,0.0,0.0,0.0,0.0,0.0,0.0,0.0,0.0,0.0,-4.4712,-4.4632,-4.4605,-4.4537,-4.4501,0.0,0.0,0.0,0.0,0.0,0.0,0.0,0.0,-4.4551,-4.4592,-4.4592,-4.4605,-4.4646,-4.4646,-4.4685,-4.4745,-4.4802,-4.4808,-4.4846,-4.4827,-4.4732,-4.4646,-4.4565,0.0,-4.444,-4.3758,0.0,0.0,0.0,0.0,0.0,-4.2037,-4.1697,0.0,-4.057,-4.0153,-3.974,0.0,0.0,0.0,0.0,-3.8448,-3.8391,-3.8391,-3.8351,-3.8278,-3.8278,-3.8351,-3.8391,-3.8391,0.0,0.0,0.0,0.0,0.0,0.0,-3.8391,-3.8391,-3.8391,-3.8391,-3.8391,-3.8391,-3.8391,-3.8391,-3.8391,-3.8572,-3.886,0.0,-3.9594,-4.0036,-4.0497,-4.0832,-4.1197,-4.1534,-4.1727,-4.1779,-4.1706,-4.1731,-4.1933,-4.2308,-4.2366,-4.2465,-4.2566,-4.2804,-4.3123,-4.346,-4.3275,-4.3333,-4.3524,-4.2582,-4.1818,-4.122,-4.0644,-4.0117,-3.9657,-3.9657,-3.965,-3.9637,-3.9637,-3.9679,-3.9715,0.0,0.0,0.0,0.0,0.0,0.0,0.0,0.0,0.0,0.0,0.0,0.0,0.0,0.0,0.0,0.0,0.0,0.0,0.0,0.0,0.0,0.0,-4.4592,-4.4619,-4.4672,-4.4685,-4.4667,-4.4667,-4.468,-4.4712,-4.4725,-4.477,-4.4827,-4.4827,-4.4827,-4.4789,-4.4725,-4.4659,-4.4578,-4.4468,-4.3905,0.0,0.0,0.0,0.0,0.0,0.0,0.0,0.0,-4.0896,-4.0521,-4.0252,-3.9206,0.0,0.0,0.0,0.0,0.0,-3.8391,-3.8391,-3.8391,-3.8391,-3.8391,-3.8391,-3.8391,0.0,0.0,0.0,0.0,0.0,0.0,-3.8391,-3.8391,-3.8391,-3.8391,-3.8391,-3.8391,-3.8391,-3.8391,-3.8391,-3.8391,0.0,-3.8876,-3.9125,-3.9489,-3.9961,-4.026,-4.0573,-4.0954,-4.1141,-4.1068,-4.0701,-4.0811,-4.1212,-4.1892,-4.193,-4.2009,-4.2127,-4.2189,-4.2425,-4.2813,-4.219,-4.2046,-4.2269,0.0,0.0,-4.0342,-4.0184,-3.9879,-3.954,-3.954,-3.9564,-3.9589,-3.9589,-3.9645,-3.9681,0.0,0.0,0.0,0.0,0.0,0.0,0.0,0.0,0.0,0.0,0.0,0.0,0.0,0.0,0.0,0.0,0.0,0.0,0.0,0.0,0.0,-4.4592,-4.4592,-4.4578,-4.4524,-4.4578,-4.4619,-4.4619,-4.4672,-4.4738,-4.4802,-4.4846,-4.4883,-4.4883,-4.4883,-4.4846,-4.477,-4.4757,-4.4699,-4.4565,-4.424,0.0,0.0,0.0,0.0,0.0,0.0,0.0,0.0,-4.0913,-4.0587,-4.0424,-3.9504,0.0,0.0,0.0,0.0,0.0,-3.8391,-3.8391,-3.8391,-3.8391,-3.8391,-3.8391,-3.8391,-3.8391,0.0,0.0,0.0,0.0,0.0,-3.8391,-3.8391,-3.8391,-3.8391,-3.8391,-3.8391,-3.8391,-3.8391,-3.8391,0.0,-3.842,-3.8476,-3.8628,-3.8805,-3.899,-3.9365,-3.9454,-3.9129,-3.9709,-3.9812,-3.9241,-3.9617,-3.9949,-4.0188,-4.0249,-4.0347,-4.0481,-4.0481,-4.0726,-4.1153,-4.1061,-4.1189,-4.1419,0.0,-4.0013,-4.0093,-3.9166,-3.898,-3.9251,-3.9251,-3.9406,-3.9589,-3.9589,-3.962,-3.9614,0.0,0.0,0.0,0.0,0.0,0.0,0.0,0.0,0.0,0.0,0.0,0.0,0.0,0.0,0.0,0.0,0.0,0.0,0.0,0.0,-4.4542,-4.4592,-4.4592,-4.4605,-4.4605,-4.4632,-4.4672,-4.4712,-4.4751,-4.4802,-4.4846,-4.4955,-4.4998,-4.4962,-4.4979,-4.4943,-4.4846,-4.4827,-4.4732,-4.4632,0.0,0.0,0.0,0.0,0.0,0.0,0.0,0.0,0.0,0.0,-4.0659,-4.0449,-3.9461,0.0,0.0,0.0,0.0,0.0,-3.8391,-3.8391,-3.8351,-3.8078,-3.802,-3.802,-3.802,-3.7786,-3.7594,0.0,0.0,0.0,0.0,-3.7786,-3.7682,-3.7976,-3.802,-3.8107,-3.8363,-3.8391,-3.8391,0.0,0.0,-3.8391,-3.8391,-3.8464,-3.8532,-3.8683,-3.886,-3.8993,-3.9083,-3.9454,-3.96,-3.9393,-3.9258,-3.9145,-3.9037,-3.8709,-3.9037,-3.9991,-4.0066,-4.0199,-4.0402,-4.0075,-4.0013,-4.011,0.0,-3.901,-3.9209,-3.8703,-3.8707,-3.9064,-3.9156,-3.9283,-3.9406,-3.9552,-3.9589,-3.9589,0.0,0.0,0.0,0.0,0.0,0.0,0.0,0.0,0.0,0.0,0.0,0.0,0.0,0.0,0.0,0.0,0.0,0.0,0.0,-4.4678,-4.451,-4.4565,-4.4578,-4.4592,-4.4659,-4.4672,-4.468,-4.4738,-4.4745,-4.4821,-4.4938,-4.5033,-4.5057,-4.4991,-4.5038,-4.5003,-4.4895,-4.4858,-4.4796,-4.4693,0.0,0.0,0.0,0.0,0.0,0.0,0.0,0.0,0.0,0.0,0.0,0.0,0.0,0.0,0.0,-3.8699,-3.856,-3.842,-3.8278,-3.8221,-3.8135,-3.7626,-3.7596,-3.7671,-3.7537,-3.7193,-3.689,0.0,0.0,0.0,-3.7419,-3.7148,-3.6996,-3.7433,-3.7612,-3.7817,-3.8209,-3.8335,-3.8391,-3.8391,-3.8391,-3.8391,-3.8391,-3.8391,-3.842,-3.8548,-3.8532,-3.8673,-3.8894,-3.9125,-3.9185,-3.9038,-3.8654,-3.8339,-3.8106,-3.7581,-3.7978,-3.9284,-3.9417,-3.9474,-3.9494,-3.9068,-3.8869,-3.8885,-3.8411,-3.829,-3.8433,-3.8399,-3.8541,-3.8803,-3.896,-3.9087,-3.9197,-3.9406,-3.9527,-3.9583,0.0,0.0,0.0,0.0,0.0,0.0,0.0,0.0,0.0,0.0,0.0,0.0,0.0,0.0,0.0,0.0,0.0,0.0,0.0,-4.4988,-4.4501,-4.4515,-4.4515,-4.4515,-4.4496,-4.4584,-4.4578,-4.451,-4.4646,-4.4815,-4.4979,-4.4991,-4.4991,-4.4991,-4.501,-4.4955,-4.4895,-4.4955,-4.4907,-4.4783,-4.4757,0.0,0.0,0.0,0.0,0.0,0.0,0.0,0.0,0.0,0.0,0.0,0.0,0.0,-3.8969,-3.8832,-3.8683,-3.8448,-3.7905,-3.7759,-3.7626,-3.7087,-3.7328,-3.7567,-3.7072,-3.6936,0.0,-3.689,0.0,0.0,0.0,-3.6738,-3.6753,-3.6936,-3.7373,-3.77,-3.7759,0.0,-3.8391,-3.8391,-3.8391,-3.8391,-3.8391,-3.8391,-3.8391,-3.8391,-3.8391,-3.8128,-3.7475,-3.7863,-3.7728,-3.6863,-3.7209,-3.7328,-3.7196,-3.7145,-3.7238,-3.7493,-3.7569,-3.7645,-3.7792,-3.7811,-3.7917,-3.8091,-3.8158,-3.8209,-3.8207,-3.8087,-3.8203,-3.843,-3.8446,-3.8722,-3.9115,-3.9129,-3.9301,-3.9508,0.0,0.0,0.0,0.0,0.0,0.0,0.0,0.0,0.0,0.0,0.0,0.0,0.0,0.0,0.0,0.0,0.0,0.0,0.0,-4.5612,-4.5129,-4.4589,-4.451,-4.4501,-4.4501,-4.451,-4.4556,-4.4551,-4.4659,-4.4674,-4.4636,-4.4839,-4.4852,-4.4701,-4.49,-4.4955,-4.4895,-4.4919,-4.4883,-4.4796,-4.4796,-4.4495,0.0,0.0,0.0,0.0,0.0,0.0,0.0,0.0,-4.0919,-4.0635,-3.9781,-3.9255,-3.8996,-3.8942,-3.8766,-3.8476,-3.7976,-3.7772,-3.7508,-3.6662,-3.6631,0.0,0.0,-3.6227,-3.6022,-3.6022,-3.6022,0.0,0.0,-3.6101,-3.6368,-3.629,-3.6554,-3.6983,-3.7612,-3.7847,-3.8078,-3.8379,-3.8391,-3.8391,-3.8391,-3.8391,-3.8391,-3.8391,-3.8391,-3.8278,-3.8003,-3.8149,-3.8038,-3.7561,-3.7537,-3.7472,-3.7293,-3.7163,-3.7108,-3.7124,-3.7278,-3.7354,-3.7428,-3.7577,-3.7685,-3.7775,-3.7984,-3.8088,-3.807,-3.8018,-3.8052,-3.817,-3.8334,-3.8554,-3.8792,-3.8836,-3.888,-3.8942,0.0,0.0,0.0,0.0,0.0,0.0,0.0,0.0,0.0,0.0,0.0,0.0,0.0,0.0,0.0,0.0,0.0,0.0,-4.6913,-4.6278,-4.5649,-4.5038,-4.4701,-4.451,-4.4501,-4.4501,-4.451,-4.4565,-4.4573,-4.4554,-4.4503,-4.4642,-4.4655,-4.4544,-4.4839,-4.4919,-4.487,-4.4955,-4.4943,-4.4858,-4.4858,-4.4562,0.0,0.0,0.0,0.0,0.0,0.0,0.0,0.0,-4.1065,-4.0659,-3.9952,-3.9441,-3.9077,-3.8969,-3.8821,-3.8516,-3.7783,-3.7535,-3.7224,-3.6211,0.0,0.0,-3.5973,-3.5733,-3.5504,-3.5504,-3.5374,-3.5276,-3.5294,0.0,-3.5735,-3.5672,-3.5911,-3.6321,-3.6983,-3.7344,-3.7655,-3.7976,-3.8221,-3.8351,-3.8351,-3.8379,-3.8391,-3.8391,-3.8391,-3.8391,-3.8391,-3.8181,-3.7943,-3.7755,-3.7475,-3.7233,-3.7047,-3.7018,-3.7009,-3.7007,-3.7143,-3.722,-3.7241,-3.7411,-3.7521,-3.754,-3.7792,-3.7862,-3.7862,-3.7862,-3.788,-3.7915,-3.8119,-3.83,-3.8457,-3.8486,-3.8551,-3.8566,0.0,0.0,0.0,0.0,0.0,0.0,0.0,0.0,-4.9912,-4.9912,-4.9912,0.0,0.0,0.0,0.0,0.0,0.0,0.0,-4.8591,-4.6973,-4.5986,-4.5918,-4.5076,-4.4565,-4.4501,-4.4501,-4.4501,-4.4501,-4.4369,-4.4421,-4.4699,-4.4407,-4.4412,-4.4605,-4.4796,-4.4846,-4.4808,-4.5091,-4.5125,-4.501,-4.4991,-4.4552,-4.3912,0.0,0.0,0.0,0.0,0.0,0.0,0.0,-4.1405,-4.0731,-4.0319,-3.9799,-3.9245,-3.8914,-3.8805,-3.8523,-3.7251,-3.689,-3.6662,-3.5733,-3.5504,0.0,-3.5504,-3.5504,-3.5504,-3.5504,-3.5078,-3.4865,-3.5407,-3.5063,0.0,-3.5148,-3.5591,-3.5864,-3.572,-3.6554,-3.7194,-3.7178,-3.7772,-3.8209,-3.8209,-3.8323,-3.8391,-3.8391,-3.8391,-3.8391,-3.8391,-3.7711,-3.7226,-3.7002,-3.6658,-3.6435,-3.628,-3.6629,-3.6851,-3.7007,-3.7007,-3.7029,-3.7108,-3.7239,-3.7317,-3.7393,-3.754,-3.7595,-3.7595,-3.7595,-3.7631,-3.7703,-3.7703,-3.7844,-3.8085,-3.8101,-3.8267,-3.8476,0.0,0.0,0.0,0.0,0.0,0.0,0.0,0.0,-4.9912,-4.9912,-4.9912,0.0,0.0,0.0,0.0,0.0,0.0,0.0,-4.8697,-4.757,-4.666,-4.6067,-4.5151,-4.4646,-4.4565,-4.451,-4.451,-4.4565,-4.4397,-4.4262,-4.4218,-4.4166,-4.4091,-4.3983,-4.4322,-4.4462,-4.4462,-4.4777,-4.4858,-4.4796,-4.4931,-4.4739,-4.4283,0.0,0.0,0.0,0.0,0.0,0.0,0.0,0.0,0.0,-4.0473,-3.9927,-3.9422,-3.9325,-3.9067,-3.8567,-3.7546,-3.7071,-3.6662,-3.5733,-3.5504,-3.5504,0.0,-3.5392,0.0,0.0,-3.5261,-3.5276,-3.5294,-3.5162,0.0,-3.5016,-3.5118,-3.5299,-3.5655,-3.5975,-3.6274,-3.6585,-3.7133,-3.7522,-3.7639,-3.8004,-3.8294,-3.8391,-3.8391,-3.8391,-3.8391,-3.7711,-3.7053,-3.6525,-3.6216,-3.5984,-3.581,-3.622,-3.6612,-3.7007,-3.7007,-3.7009,-3.7029,-3.7126,-3.7166,-3.7204,-3.7374,-3.7466,-3.7466,-3.7466,-3.7448,-3.7411,-3.7485,-3.7541,-3.7631,-3.7703,-3.7792,-3.7862,0.0,0.0,0.0,0.0,0.0,0.0,0.0,0.0,-4.9912,-4.9912,-4.9912,-4.9912,0.0,0.0,0.0,0.0,0.0,0.0,-4.921,-4.8034,-4.7104,-4.6605,-4.54,-4.4699,-4.4605,-4.4524,-4.4482,-4.443,-4.4252,-4.407,-4.3958,-4.3892,-4.3812,-4.3749,-4.4091,-4.4221,-4.4236,-4.4562,-4.4616,-4.4554,-4.4707,-4.4535,-4.417,0.0,0.0,0.0,0.0,0.0,0.0,0.0,0.0,0.0,-4.0784,-4.0195,-3.9635,-3.9362,-3.905,-3.8567,-3.7488,-3.7041,-3.6662,-3.5733,-3.5504,-3.5439,-3.5228,-3.5195,0.0,0.0,-3.503,-3.5063,-3.5082,-3.4983,0.0,-3.485,-3.4817,-3.4902,-3.5151,-3.5365,-3.5608,-3.5897,-3.6446,-3.6906,-3.7193,-3.7581,-3.7918,-3.8164,-3.8294,-3.8193,-3.7903,-3.7279,-3.6594,-3.5882,-3.5579,-3.5464,-3.5526,-3.6006,-3.6468,-3.6928,-3.697,-3.7007,-3.7007,-3.7048,-3.705,-3.7068,-3.7203,-3.726,-3.728,-3.728,-3.7298,-3.7297,-3.7336,-3.7354,-3.7373,-3.7485,-3.7522,-3.7522,0.0,0.0,-5.0095,-5.0095,0.0,0.0,0.0,0.0,-4.9893,-4.9912,-4.9912,-4.9906,0.0,0.0,0.0,0.0,0.0,0.0,0.0,-4.83,-4.7333,-4.721,-4.5647,-4.4751,-4.4619,-4.4537,-4.4393,-4.4177,-4.3989,-4.3881,-4.3865,-4.36,-4.3566,-4.3771,-4.3974,-4.4045,-4.4075,-4.4341,-4.4402,-4.4275,-4.4374,-4.4129,-4.373,-4.3695,0.0,0.0,0.0,0.0,0.0,0.0,0.0,0.0,-4.1174,-4.057,-3.9902,-3.9249,-3.8942,-3.8523,-3.7251,-3.6906,-3.6662,-3.5701,-3.5439,-3.5309,-3.4765,-3.4883,-3.5016,-3.4698,0.0,-3.4481,-3.4802,-3.4601,-3.4414,-3.4631,-3.4631,-3.4563,-3.4414,-3.4787,-3.5103,-3.5136,-3.572,-3.6274,-3.6707,-3.7012,-3.7373,-3.7801,-3.7985,-3.7822,-3.7134,-3.6529,-3.5882,-3.5228,-3.4824,-3.489,-3.5351,-3.582,-3.6305,-3.6771,-3.6928,-3.7007,-3.7007,-3.7007,-3.7007,-3.7007,-3.7007,-3.7029,-3.7089,-3.7089,-3.7164,-3.7278,-3.7278,-3.7278,-3.7297,-3.7354,-3.7374,-3.7411,0.0,0.0,-5.0095,-5.0095,0.0,0.0,0.0,0.0,0.0,0.0,0.0,0.0,0.0,0.0,0.0,0.0,0.0,0.0,0.0,-4.7965,-4.7112,-4.6455,-4.5337,-4.4719,-4.4764,-4.4578,-4.4354,-4.4033,-4.3961,-4.3832,-4.3664,-4.3392,-4.334,-4.3499,-4.36,-4.3666,-4.373,-4.4102,-4.4196,-4.4075,-4.4303,-4.4177,-4.3849,-4.3747,-4.3565,0.0,0.0,0.0,0.0,0.0,0.0,0.0,-4.1328,-4.0778,-4.0195,-3.9573,-3.9175,-3.8678,-3.7383,-3.6981,-3.6631,-3.5524,-3.5063,-3.4765,-3.4346,-3.4298,-3.4332,-3.423,-3.4312,-3.4414,-3.4481,-3.4332,-3.4162,-3.423,-3.4142,-3.4088,-3.4162,-3.4249,-3.4399,-3.4568,-3.5085,-3.5512,-3.5706,-3.6461,-3.7072,-3.7344,-3.7348,-3.7263,-3.7118,-3.6028,-3.5373,-3.5211,-3.4574,-3.4488,-3.5091,-3.5504,-3.6006,-3.6585,-3.6869,-3.7007,-3.7007,-3.7007,-3.7007,-3.7007,-3.7007,-3.7007,-3.7009,-3.7009,-3.7046,-3.7066,-3.7066,-3.7106,-3.7147,-3.7166,-3.7241,-3.7334,0.0,0.0,0.0,0.0,0.0,0.0,0.0,0.0,0.0,0.0,0.0,0.0,0.0,0.0,0.0,0.0,0.0,0.0,0.0,0.0,-4.6449,-4.5615,-4.5016,-4.4725,-4.4745,-4.4578,-4.4277,-4.386,-4.3812,-4.3664,-4.3409,-4.3268,-4.3269,-4.3412,-4.3446,-4.348,-4.3565,-4.3812,-4.3841,-4.3781,-4.3949,-4.3889,-4.3701,-4.3632,-4.3531,-4.3428,-4.3322,0.0,0.0,0.0,0.0,0.0,0.0,0.0,-4.0587,-4.0003,-3.9451,-3.8788,-3.7854,-3.7251,-3.6631,-3.5477,-3.4964,-3.4631,-3.4312,-3.4108,-3.3971,-3.3868,-3.4005,-3.4157,-3.4157,-3.4074,-3.4005,-3.4005,-3.3951,-3.3917,-3.3971,-3.4005,-3.4074,-3.4244,-3.4486,-3.4839,-3.5252,-3.5785,-3.6321,-3.6922,-3.6697,-3.652,-3.6465,-3.561,-3.4972,-3.4667,-3.4295,-3.4382,-3.4961,-3.5115,-3.5526,-3.617,-3.6489,-3.6791,-3.7007,-3.7007,-3.7007,-3.7007,-3.7007,-3.7007,-3.7007,-3.7007,-3.7007,-3.7007,-3.7007,-3.7009,-3.7068,-3.7089,-3.7147,-3.7203,0.0,0.0,0.0,0.0,0.0,0.0,0.0,0.0,0.0,0.0,0.0,0.0,0.0,0.0,0.0,0.0,0.0,0.0,0.0,0.0,0.0,-4.4933,-4.477,-4.4725,-4.4712,-4.4578,-4.4248,-4.3695,-4.3695,-4.3512,-4.3142,-4.3142,-4.3214,-4.3359,-4.3359,-4.3394,-4.348,-4.3548,-4.3548,-4.3515,-4.3565,-4.3548,-4.3515,-4.3515,-4.3515,-4.3497,-4.3446,-4.3412,-4.334,-4.305,0.0,0.0,0.0,0.0,-4.1019,-4.0392,-3.9705,-3.898,-3.827,-3.7504,-3.66,-3.5542,-3.5049,-3.4716,-3.4414,-3.4088,-3.3793,-3.364,-3.3709,-3.3793,-3.3793,-3.3793,-3.3793,-3.3793,-3.3793,-3.3827,-3.3862,-3.3862,-3.3882,-3.404,-3.4074,-3.4317,-3.4938,-3.5103,-3.5499,-3.6322,-3.5977,-3.5671,-3.558,-3.5091,-3.4588,-3.4066,-3.4101,-3.4325,-3.4787,-3.4802,-3.5091,-3.5655,-3.611,-3.655,-3.7007,-3.7007,-3.7007,-3.7007,-3.7007,-3.7007,-3.7007,-3.7007,-3.7007,-3.7007,-3.7007,-3.7007,-3.7007,-3.705,-3.7089,-3.7089,0.0,0.0,0.0,0.0,0.0,0.0,0.0,0.0,0.0,0.0,-4.9397,-4.9011,0.0,0.0,0.0,0.0,0.0,0.0,-4.6424,0.0,0.0,-4.4914,-4.4821,-4.4745,-4.4712,-4.4619,-4.4288,-4.3695,-4.3695,-4.3442,-4.2957,-4.2957,-4.3012,-4.3141,-4.3141,-4.3251,-4.3429,-4.348,-4.3515,-4.3515,-4.3565,-4.3548,-4.3515,-4.3515,-4.3515,-4.3515,-4.3497,-4.3464,-4.3376,-4.316,-4.2975,0.0,0.0,0.0,-4.1561,-4.0497,-3.9952,-3.9447,-3.8395,-3.7415,-3.6538,-3.5816,-3.535,-3.4876,-3.4283,-3.3868,-3.364,-3.3605,-3.3466,-3.3396,-3.3396,-3.3396,-3.3396,-3.3396,-3.3396,-3.3431,-3.3605,-3.364,-3.3709,-3.3882,-3.3931,-3.402,-3.423,-3.4673,-3.5014,-3.5139,-3.5025,-3.4877,-3.4684,-3.4274,-3.3995,-3.3924,-3.405,-3.4201,-3.4374,-3.4658,-3.4904,-3.5115,-3.592,-3.655,-3.7007,-3.7007,-3.7007,-3.7007,-3.7007,-3.7007,-3.7007,-3.7007,-3.7007,-3.7007,-3.7007,-3.7007,-3.7007,-3.7009,-3.7009,-3.7027,0.0,0.0,0.0,0.0,0.0,0.0,0.0,0.0,0.0,0.0,0.0,-4.8093,0.0,0.0,0.0,-4.692,-4.6882,-4.6484,-4.5533,-4.5103,-4.4895,-4.4895,-4.4852,-4.4802,-4.4764,-4.4659,-4.4317,-4.3758,-4.3712,-4.3425,-4.2901,-4.2901,-4.2975,-4.3104,-4.3104,-4.3178,-4.3305,-4.3322,-4.3322,-4.3322,-4.3357,-4.341,-4.3446,-4.3446,-4.3463,-4.3515,-4.3515,-4.348,-4.3446,-4.3305,-4.3196,-4.2994,-4.2534,0.0,0.0,0.0,-4.0285,-3.9135,-3.7833,-3.7061,-3.6526,-3.6167,-3.5689,-3.5124,-3.4658,-3.4128,-3.3744,-3.3605,-3.3431,-3.329,-3.329,-3.329,-3.329,-3.329,-3.329,-3.3326,-3.3431,-3.3431,-3.3501,-3.3709,-3.3709,-3.3848,-3.4094,-3.4317,-3.446,-3.4518,-3.4379,-3.4266,-3.416,-3.3921,-3.3822,-3.3899,-3.4025,-3.4176,-3.43,-3.4382,-3.461,-3.4998,-3.57,-3.6259,-3.6728,-3.6911,-3.7007,-3.7007,-3.7007,-3.7007,-3.7007,-3.7007,-3.7007,-3.7007,-3.7007,-3.7007,-3.7007,-3.7007,-3.7007,-3.7007,0.0,0.0,0.0,0.0,0.0,0.0,0.0,0.0,0.0,0.0,0.0,0.0,0.0,0.0,0.0,0.0,-4.605,-4.5741,-4.4988,-4.4938,-4.4907,-4.4895,-4.4846,-4.4827,-4.4796,-4.4712,-4.4374,-4.3788,-4.3726,-4.3425,-4.2881,-4.2881,-4.2918,-4.303,-4.303,-4.3105,-4.3178,-4.3178,-4.3178,-4.3214,-4.3214,-4.3251,-4.334,-4.3394,-4.3429,-4.348,-4.3479,-4.3515,-4.3497,-4.3411,-4.334,-4.3196,-4.2899,-4.2388,0.0,0.0,0.0,-3.8501,-3.7353,-3.6731,-3.6384,-3.6146,-3.5645,-3.5113,-3.4519,-3.3972,-3.3556,-3.3405,-3.3156,-3.3024,-3.3213,-3.3241,-3.3206,-3.3171,-3.3136,-3.3171,-3.3206,-3.3241,-3.3312,-3.3501,-3.3536,-3.364,-3.3922,-3.404,-3.3999,-3.3883,-3.3785,-3.3679,-3.3578,-3.3519,-3.3575,-3.3848,-3.3975,-3.4126,-3.425,-3.4151,-3.4407,-3.4951,-3.5481,-3.5985,-3.6464,-3.6831,-3.7007,-3.7007,-3.7007,-3.7007,-3.7007,-3.7007,-3.7007,-3.7007,-3.7007,-3.7007,-3.7007,-3.7007,-3.7007,-3.7007,0.0,0.0,0.0,0.0,0.0,0.0,0.0,0.0,0.0,0.0,0.0,0.0,-4.6358,-4.563,-4.5159,-4.5148,-4.516,-4.5118,-4.4991,-4.4991,-4.4955,-4.4895,-4.4895,0.0,-4.4796,-4.4783,-4.4467,-4.3788,-4.3724,-4.3389,-4.2803,-4.2803,-4.2803,-4.2822,-4.2881,-4.2994,-4.3104,-4.3104,-4.3142,-4.3214,-4.3214,-4.3196,-4.3233,-4.334,-4.3412,-4.3394,-4.348,-4.3515,-4.3497,-4.3411,-4.3394,-4.3305,-4.2918,-4.226,-4.1496,0.0,0.0,0.0,-3.7236,-3.6652,-3.6039,-3.5342,-3.5,-3.4505,-3.3283,-3.2889,-3.2759,-3.2734,-3.2455,-3.2347,-3.2925,-3.3023,-3.2952,-3.2775,-3.2739,-3.281,-3.2988,-3.3023,-3.3108,-3.3276,-3.3326,-3.3396,-3.3605,-3.3793,-3.3657,-3.3013,-3.3145,-3.3066,-3.2698,-3.2792,-3.3097,-3.3694,-3.3848,-3.3975,-3.4101,-3.4101,-3.4358,-3.4833,-3.5368,-3.5854,-3.6322,-3.6791,-3.7007,-3.7007,-3.7007,-3.7007,-3.7007,-3.7007,-3.7007,-3.7007,-3.7007,-3.7007,-3.7007,-3.7007,-3.7007,-3.7007,0.0,0.0,0.0,0.0,0.0,0.0,0.0,0.0,0.0,0.0,0.0,0.0,0.0,-4.5157,-4.5003,-4.5026,-4.5045,-4.5033,-4.4991,-4.4955,-4.4938,-4.4895,-4.4895,-4.4883,-4.4858,-4.4821,-4.4462,-4.3804,-4.3724,-4.3355,-4.2668,-4.2668,-4.2725,-4.2803,-4.2862,-4.2938,-4.2975,-4.2975,-4.2994,-4.3013,-4.3013,-4.3068,-4.3142,-4.3196,-4.3287,-4.3412,-4.3429,-4.3463,-4.3497,-4.3463,-4.3463,-4.3319,-4.2541,-4.1996,-4.1321,-3.9605,-3.8521,-3.7679,-3.6973,-3.6463,-3.6177,-3.6348,-3.5663,-3.4798,-3.4087,-3.3301,-3.251,-3.1871,-3.1612,-3.1513,-3.153,-3.2228,-3.2775,-3.2704,-3.2704,-3.2739,-3.281,-3.281,-3.2846,-3.2895,-3.3037,-3.3192,-3.3396,-3.3251,-3.2925,-3.2349,-3.239,-3.2303,-3.2051,-3.2516,-3.3071,-3.3668,-3.3822,-3.3975,-3.4101,-3.4101,-3.4234,-3.4505,-3.4975,-3.5481,-3.6002,-3.6464,-3.6809,-3.7007,-3.7007,-3.7007,-3.7007,-3.7007,-3.7007,-3.7007,-3.7007,-3.7007,-3.7007,-3.7007,-3.7007,-3.7007,0.0,0.0,0.0,0.0,0.0,-4.3968,-4.3968,-4.4045,-4.417,-4.4335,0.0,0.0,0.0,0.0,-4.4986,-4.501,-4.5014,-4.5014,-4.4991,-4.4955,-4.4919,-4.4895,-4.4895,-4.4895,-4.4895,-4.4783,-4.4426,-4.3802,-4.3642,-4.3213,-4.2568,-4.2568,-4.2607,-4.2704,-4.2823,-4.2881,-4.2901,-4.2901,-4.2901,-4.2901,-4.2901,-4.2938,-4.303,-4.3086,-4.3178,-4.3305,-4.3376,-4.3429,-4.3463,-4.3497,-4.3515,-4.3333,-4.2318,-4.1451,-4.0437,-3.8605,-3.7846,-3.7411,-3.6774,-3.6392,-3.6232,-3.6548,-3.5801,-3.4858,-3.4317,-3.3366,-3.2401,-3.1679,-3.1302,-3.1063,-3.1001,-3.1502,-3.2003,-3.2209,-3.2401,-3.2538,-3.2596,-3.2596,-3.2632,-3.2704,-3.2881,-3.3072,-3.3192,-3.2901,-3.2482,-3.1927,-3.1826,0.0,-3.1695,-3.2213,-3.2857,-3.3668,-3.3822,-3.3975,-3.4101,-3.4101,-3.4151,-3.425,-3.4706,-3.5138,-3.5566,-3.6152,-3.6568,-3.6849,-3.6948,-3.7007,-3.7007,-3.7007,-3.7007,-3.7007,-3.7007,-3.7007,-3.7007,-3.7007,-3.7007,-3.7007,0.0,0.0,-4.3515,-4.3515,-4.3515,-4.3515,-4.3515,-4.3718,-4.3881,-4.3897,0.0,0.0,0.0,0.0,0.0,-4.4991,-4.5068,-4.508,-4.4991,-4.501,-4.4955,-4.4895,-4.4895,-4.4895,-4.4895,-4.4712,-4.4327,-4.3802,-4.3458,-4.3013,-4.2483,-4.2483,-4.2483,-4.2503,-4.2704,-4.2823,-4.2882,-4.29,-4.2901,-4.2901,-4.2901,-4.2901,-4.2901,-4.3049,-4.3086,-4.3123,-4.3323,-4.3394,-4.3394,-4.3463,-4.3479,-4.3297,-4.2264,-4.0564,-3.8798,-3.7864,-3.7281,-3.686,0.0,0.0,0.0,-3.5844,-3.5282,-3.4643,-3.3817,-3.2999,-3.2359,-3.2199,-3.15,-3.1048,-3.148,-3.0934,-3.0602,-3.1186,-3.1784,-3.2214,-3.2354,-3.2367,-3.2453,-3.2668,-3.2881,-3.2988,-3.2988,-3.279,-3.2387,-3.1749,-3.1414,-3.1374,-3.1667,-3.1836,-3.2449,-3.3658,-3.3822,-3.3949,-3.4101,-3.4101,-3.4101,-3.4101,-3.4586,-3.4857,-3.5021,-3.5881,-3.636,-3.6523,-3.6831,-3.6987,-3.7007,-3.7007,-3.7007,-3.7007,-3.7007,-3.7007,-3.7007,-3.7007,-3.7007,-3.7007,0.0,-4.3515,-4.3515,-4.3515,-4.3515,-4.3515,-4.3515,-4.3548,-4.3684,0.0,0.0,0.0,-4.4283,-4.4568,-4.4821,-4.4998,-4.5033,-4.5014,-4.4991,-4.4943,-4.4919,-4.4895,-4.4895,-4.4895,-4.4895,-4.4616,-4.4198,-4.3668,-4.3318,-4.2865,-4.2366,-4.2366,-4.2405,-4.2503,-4.2564,-4.2607,-4.2689,-4.2843,-4.2901,-4.2901,-4.2901,-4.2901,-4.2901,-4.2938,-4.303,-4.3104,-4.316,-4.3215,-4.3251,-4.3286,-4.2956,-4.2278,-4.0577,-3.926,-3.8254,-3.7757,-3.743,0.0,-3.6917,0.0,0.0,0.0,0.0,0.0,-3.4703,-3.3575,-3.2468,-3.163,-3.1279,-3.1086,-3.0988,-3.0848,-3.075,-3.0651,-3.1151,-3.1567,-3.1588,-3.1969,-3.2277,-3.2336,-3.261,-3.2775,-3.2775,-3.2206,-3.1782,0.0,-3.0715,-3.0454,-3.1014,-3.2018,-3.2873,-3.3513,-3.3771,-3.3924,-3.3949,-3.405,-3.4101,-3.4101,-3.4333,-3.4586,-3.488,-3.5299,-3.581,-3.6381,-3.6547,-3.6788,-3.7007,-3.7007,-3.7007,-3.7007,-3.7007,-3.7007,-3.7007,-3.7007,-3.7007,-3.7007,-4.3464,-4.348,-4.3515,-4.3515,-4.3515,-4.3515,-4.3515,-4.3515,-4.3566,0.0,0.0,0.0,-4.4181,-4.4369,-4.4581,-4.4808,-4.4821,-4.4858,-4.4943,-4.4919,-4.4895,-4.4895,-4.4895,-4.4858,-4.4789,-4.4388,-4.3955,-4.3471,-4.3087,-4.2691,-4.2308,-4.2308,-4.2346,-4.2425,-4.2483,-4.2506,-4.2568,-4.2709,-4.2805,-4.2861,-4.2861,-4.2881,-4.29,-4.2862,-4.2918,-4.3012,-4.3086,-4.3141,-4.316,-4.3196,-4.2502,-4.1353,-3.9818,-3.8754,-3.8,-3.7721,-3.7577,0.0,0.0,0.0,0.0,-3.7916,0.0,0.0,-3.5942,-3.4553,-3.3145,-3.2321,-3.1847,-3.1491,-3.1246,-3.0996,-3.074,-3.0568,-3.0974,-3.1328,-3.1289,-3.167,-3.2041,-3.2273,-3.2596,-3.2846,-3.2846,-3.2018,-3.1485,-3.1485,-3.045,-3.0192,-3.1116,-3.2158,-3.298,-3.3581,-3.3736,-3.3873,-3.3975,-3.405,-3.4101,-3.4101,-3.4176,-3.4358,-3.461,-3.4904,-3.5413,-3.6092,-3.6318,-3.6629,-3.7007,-3.7007,-3.7007,-3.7007,-3.7007,-3.7007,-3.7007,-3.7007,-3.7007,-3.7007,0.0,-4.3446,-4.3479,-4.348,-4.3497,-4.3497,-4.3497,-4.3497,-4.3515,0.0,-4.3718,-4.3926,-4.4151,-4.4181,-4.4269,-4.4519,-4.4565,-4.4627,-4.4821,-4.4833,-4.4833,-4.4833,-4.4833,-4.4745,-4.4565,-4.4084,-4.3675,-4.3303,-4.2824,-4.249,-4.2308,-4.2308,-4.2308,-4.2308,-4.2425,-4.2483,-4.2483,-4.2548,-4.2667,-4.2782,-4.2764,-4.2804,-4.2862,-4.2822,-4.2842,-4.29,-4.303,-4.3067,-4.305,-4.2941,-4.1958,-4.0593,-3.9584,-3.8667,-3.7949,-3.7757,-3.7649,0.0,0.0,0.0,0.0,0.0,-3.8401,0.0,-3.7277,-3.5679,-3.4235,-3.3764,-3.296,-3.2305,-3.2139,-3.1433,-3.0867,-3.0837,-3.1156,-3.1346,-3.1254,-3.1507,-3.1852,-3.2288,-3.2733,-3.2988,-3.2988,-3.2086,-3.1485,-3.1485,-3.045,-3.0374,-3.1593,-3.2201,-3.2873,-3.3642,-3.3694,-3.3822,-3.4075,-3.4101,-3.4101,-3.4101,-3.4101,-3.4151,-3.43,-3.4593,-3.5091,-3.57,-3.6028,-3.6468,-3.6911,-3.6948,-3.6968,-3.7007,-3.7007,-3.7007,-3.7007,-3.7007,-3.7007,-3.7007,-4.3233,-4.334,-4.3394,-4.3286,-4.3375,-4.348,-4.3429,-4.3481,-4.3515,-4.3515,-4.3549,-4.3684,-4.3926,-4.3961,-4.4033,-4.4254,-4.4283,-4.4298,-4.4322,-4.4336,-4.4336,-4.4336,-4.4336,-4.4327,-4.4283,-4.3772,-4.3423,-4.3303,-4.2785,-4.2427,-4.2308,-4.2308,-4.2308,-4.2308,-4.2346,-4.2346,-4.2346,-4.2465,-4.2526,-4.2564,-4.2627,-4.2649,-4.2668,-4.2764,-4.2803,-4.2841,-4.29,-4.2899,-4.2662,-4.1434,-4.0835,-4.0292,-3.8808,-3.8145,-3.7881,-3.7739,-3.7649,0.0,0.0,0.0,0.0,-3.9193,-3.8938,0.0,-3.7959,-3.647,-3.5163,-3.4844,-3.426,-3.3751,-3.3617,-3.2756,-3.1977,-3.1721,-3.1438,-3.1142,-3.087,-3.171,-3.2234,-3.1958,-3.2541,-3.2988,-3.2988,-3.2086,-3.1485,-3.1485,-3.0573,-3.0463,-3.1406,-3.1836,-3.2492,-3.3503,-3.3642,-3.3771,-3.3949,-3.405,-3.4101,-3.4101,-3.4101,-3.4126,-3.4151,-3.4308,-3.461,-3.5005,-3.5299,-3.5793,-3.6447,-3.6547,-3.6768,-3.7007,-3.7007,-3.7007,-3.7007,-3.7007,-3.7007,-3.7007,-4.316,-4.3233,-4.3269,-4.3214,-4.3268,-4.3358,-4.3376,-4.3429,-4.3463,-4.3497,-4.3515,-4.3566,-4.3684,-4.3701,-4.3798,-4.4033,-4.4048,-4.4075,-4.4192,-4.4192,-4.4192,-4.4192,-4.4192,-4.4151,-4.4048,-4.3594,-4.3285,-4.3105,-4.2629,-4.2366,-4.2308,-4.2308,-4.2308,-4.2308,-4.2308,-4.2308,-4.2287,-4.2145,-4.2225,-4.2425,-4.2508,-4.2568,-4.2609,-4.2645,-4.2685,-4.2688,-4.2728,-4.2765,-4.2568,-4.098,-4.0474,-4.0202,-3.8575,-3.7984,-3.7881,-3.7739,-3.7649,-3.7595,0.0,0.0,-3.9224,-3.8974,-3.9135,0.0,0.0,-3.7183,-3.6251,-3.5549,-3.4985,-3.4576,-3.435,-3.37,-3.3093,-3.2734,-3.2339,-3.1928,-3.1486,-3.1864,-3.2321,-3.2649,-3.3139,-3.3488,-3.3541,-3.2544,-3.1513,-3.0632,-3.0485,-3.0718,-3.1377,-3.1934,-3.2656,-3.3581,-3.3668,-3.3813,-3.4,-3.4075,-3.4101,-3.4101,-3.4101,-3.4101,-3.4101,-3.4176,-3.4431,-3.4809,-3.4951,-3.5504,-3.6301,-3.6364,-3.6629,-3.7007,-3.7007,-3.7007,-3.7007,-3.7007,-3.7007,-3.7007,-4.3049,-4.3142,-4.3178,-4.316,-4.316,-4.3233,-4.3341,-4.334,-4.3376,-4.3445,-4.3427,-4.3427,-4.3427,-4.3427,-4.3513,-4.3751,-4.3767,-4.3846,-4.403,-4.406,-4.406,-4.4057,-4.4042,-4.3971,-4.3767,-4.3391,-4.3087,-4.2825,-4.2472,-4.2308,-4.2308,-4.2308,-4.2308,-4.2287,-4.2207,-4.2187,-4.2166,-4.177,-4.1792,-4.2103,-4.2202,-4.2366,-4.253,-4.2506,-4.2526,-4.257,-4.257,-4.2667,-4.253,-4.0906,-4.0384,-4.0167,-3.8559,-3.7968,-3.7864,-3.7757,-3.7667,-3.7595,-3.7595,-3.8183,-3.877,-3.8658,-3.9101,-3.9305,0.0,0.0,0.0,-3.6204,-3.5664,-3.5261,-3.4948,-3.4552,-3.4137,-3.3866,0.0,0.0,0.0,-3.2332,0.0,-3.3436,-3.3694,-3.388,-3.4076,-3.3021,-3.1645,-2.9998,-3.0548,-3.1102,-3.1478,-3.2158,-3.29,-3.3658,-3.3684,-3.3838,-3.405,-3.4101,-3.4101,-3.4101,-3.4101,-3.4101,-3.4101,-3.4101,-3.4308,-3.4666,-3.469,-3.5191,-3.6028,-3.6135,-3.6468,-3.6871,-3.695,-3.7007,-3.7007,-3.7007,-3.7007,-3.7007,-4.2919,-4.3012,-4.3068,-4.2957,-4.3087,-4.3178,-4.3141,-4.3196,-4.3233,-4.3232,-4.3232,-4.3232,-4.3232,-4.3232,-4.3251,-4.3286,-4.3268,-4.334,-4.3481,-4.3498,-4.3515,-4.3582,-4.3515,-4.341,-4.3268,-4.2994,-4.2785,-4.2631,-4.2409,-4.2308,-4.2308,-4.2308,-4.2308,-4.2287,-4.192,-4.1774,-4.1753,-4.1396,-4.1283,-4.1323,-4.1346,-4.1744,-4.2348,-4.2463,-4.2503,-4.2524,-4.2524,-4.2566,-4.2377,0.0,-4.0237,-3.9986,-3.8611,-3.7968,-3.7739,-3.7864,-3.7739,-3.7595,-3.7595,-3.8183,-3.8789,-3.8789,-3.8749,-3.869,-3.8562,0.0,-3.727,-3.7143,0.0,-3.6197,-3.6045,0.0,0.0,0.0,-3.4544,-3.4185,-3.3987,-3.3503,-3.3181,-3.3225,-3.3312,-3.3565,-3.4041,-3.3068,-3.1963,-3.0924,-3.1197,-3.1543,-3.1824,-3.2216,-3.2753,-3.3503,-3.3658,-3.3771,-3.3924,-3.405,-3.4101,-3.4101,-3.4101,-3.4101,-3.4101,-3.4101,-3.4126,-3.4184,-3.4325,-3.4586,-3.5005,-3.5611,-3.6049,-3.6426,-3.6831,-3.7007,-3.7007,-3.7007,-3.7007,-3.7007,-4.2863,-4.2938,-4.2975,-4.2919,-4.2975,-4.3031,-4.3104,-4.316,-4.3214,-4.3214,-4.3214,-4.3214,-4.3214,-4.3214,-4.3214,-4.3214,-4.3214,-4.3233,-4.3269,-4.3376,-4.3376,-4.334,-4.3376,-4.3323,-4.3142,-4.2918,-4.2745,-4.2609,-4.2409,-4.2308,-4.2308,-4.2308,-4.2308,-4.2287,-4.1878,-4.1709,-4.1666,-4.1082,-4.0984,-4.1186,-4.0937,-4.1192,-4.1679,-4.1723,-4.187,-4.204,-4.204,-4.2267,-4.2295,0.0,-4.018,0.0,0.0,0.0,0.0,-3.7721,0.0,0.0,0.0,0.0,-3.8113,-3.815,-3.8433,-3.859,-3.8127,-3.8052,-3.7904,-3.7443,0.0,0.0,0.0,0.0,0.0,0.0,-3.5163,-3.4767,0.0,0.0,-3.4027,-3.4258,0.0,0.0,-3.4152,-3.3263,-3.2291,-3.1352,-3.1946,-3.2285,-3.2191,-3.266,-3.3091,-3.3477,-3.3617,-3.3771,-3.3899,-3.4025,-3.4101,-3.4101,-3.4101,-3.4101,-3.4101,-3.4101,-3.4101,-3.4101,-3.4151,-3.4431,-3.4833,-3.5098,-3.5526,-3.6067,-3.6447,-3.6771,-3.7007,-3.7007,-3.7007,-3.7007,-4.2478,-4.2537,-4.2575,-4.2518,-4.2518,-4.2537,-4.2652,-4.2711,-4.286,-4.3172,-4.319,-4.3337,-4.3648,-4.3504,-4.3358,-4.3358,-4.3159,-4.305,-4.3087,-4.3178,-4.3196,-4.3123,-4.3196,-4.3142,-4.2955,-4.2802,-4.2647,-4.253,-4.2369,-4.2308,-4.2308,-4.2187,-4.2145,-4.2107,-4.1622,-4.1405,-4.1338,-4.0659,-4.0507,-4.0748,-4.0434,-4.0524,-4.0884,-4.1117,-4.1351,-4.1578,-4.1666,-4.1959,-4.2073,-4.0583,-4.0141,0.0,-3.8277,-3.7739,-3.7685,0.0,0.0,0.0,-3.7685,0.0,0.0,0.0,0.0,0.0,0.0,0.0,0.0,-3.7592,-3.7429,0.0,0.0,0.0,0.0,0.0,0.0,-3.5487,0.0,-3.4846,-3.4827,-3.4936,-3.4968,0.0,0.0,-3.3623,-3.29,-3.2157,-3.2607,-3.2793,-3.2554,-3.3027,-3.3346,-3.3503,-3.3684,-3.3797,-3.3899,-3.4025,-3.4101,-3.4101,-3.4101,-3.4101,-3.4101,-3.4101,-3.4101,-3.4101,-3.4101,-3.4284,-3.4617,-3.4761,-3.5115,-3.5611,-3.6006,-3.6426,-3.6831,-3.695,-3.7007,-3.7007,-4.1547,-4.163,-4.1692,-4.1569,-4.1547,-4.1547,-4.1547,-4.1547,-4.196,-4.3063,-4.3213,-4.3643,-4.48,-4.4248,-4.378,-4.378,-4.3079,-4.2668,-4.2803,-4.2821,-4.286,-4.2919,-4.2842,-4.2764,-4.2629,-4.2546,-4.2445,-4.2308,-4.2308,-4.2308,-4.2287,-4.1899,-4.1731,-4.1687,-4.0966,-4.0652,-4.0604,-3.9995,-3.9755,-3.9755,-3.959,-3.9694,-4.0037,0.0,-4.1209,-4.126,-4.1578,0.0,0.0,-4.0467,-4.0102,0.0,0.0,0.0,0.0,0.0,0.0,0.0,0.0,0.0,0.0,-3.7864,0.0,0.0,0.0,0.0,-3.7649,0.0,0.0,0.0,0.0,0.0,0.0,0.0,0.0,0.0,0.0,-3.5998,-3.5438,-3.4606,-3.4964,0.0,0.0,-3.4158,-3.3931,0.0,-3.3171,-3.2896,-3.2874,-3.315,-3.3346,-3.3503,-3.3761,-3.3899,-3.3899,-3.4025,-3.4101,-3.4101,-3.4101,-3.4101,-3.4101,-3.4101,-3.4101,-3.4101,-3.4101,-3.4101,-3.4176,-3.4617,-3.488,-3.5068,-3.5611,-3.6006,-3.6385,-3.6831,-3.7007,-3.7007,-4.0772,-4.0724,-4.0937,-4.1415,-4.1503,-4.1657,-4.2144,-4.2231,-4.2535,-4.3422,-4.3532,-4.3684,-4.4102,-4.3907,-4.3731,-4.3731,-4.3501,-4.3342,-4.3386,-4.3725,-4.3575,-4.275,-4.3227,-4.3093,-4.2169,-4.2366,-4.2425,-4.2308,-4.2308,-4.2308,-4.2287,-4.1899,-4.1709,-4.1666,-4.0943,-4.049,-4.0311,-3.9893,-3.9582,-3.9382,0.0,-3.9537,-3.9694,0.0,-4.0524,-4.0819,-4.0919,-4.1151,0.0,-3.9761,-3.9314,-3.9074,-3.7776,-3.7337,-3.7355,-3.7577,-3.7613,-3.7613,0.0,0.0,-3.7667,-3.7864,0.0,0.0,0.0,0.0,0.0,0.0,0.0,0.0,0.0,0.0,0.0,0.0,0.0,0.0,0.0,-3.6209,-3.5877,-3.5478,-3.5556,-3.5315,0.0,0.0,0.0,0.0,-3.374,0.0,-3.343,-3.3529,-3.3581,-3.3617,-3.3797,-3.3899,-3.3899,-3.4025,-3.4101,-3.4101,-3.4101,-3.4101,-3.4101,-3.4101,-3.4101,-3.4101,-3.4101,-3.4101,-3.4126,-3.4259,-3.4431,-3.4602,-3.5068,-3.5345,-3.5504,-3.6028,-3.6489,-3.6958,-4.0288,-4.0434,-4.0701,-4.0977,-4.1227,-4.1637,-4.2393,-4.2497,-4.2822,-4.3691,-4.3819,-4.3972,-4.4415,-4.4187,-4.403,-4.403,-4.3744,-4.3587,-4.3587,-4.3927,-4.3744,-4.2911,-4.3173,-4.2931,-4.2066,-4.2055,-4.1995,-4.1895,-4.1895,-4.1895,-4.1895,-4.149,-4.1316,-4.1271,-4.0652,-4.0229,-4.0003,-3.9609,-3.9292,0.0,0.0,-3.9245,0.0,0.0,-3.9867,-4.0286,0.0,-4.0659,-4.0695,-3.9306,-3.8873,-3.8676,-3.7346,-3.6915,-3.6954,-3.7185,-3.7318,-3.743,-3.7504,-3.7577,0.0,-3.7703,-3.7721,0.0,-3.7757,0.0,-3.7828,0.0,0.0,0.0,0.0,0.0,0.0,0.0,0.0,0.0,0.0,-3.6994,-3.6841,-3.6567,-3.6378,-3.5918,-3.5036,0.0,0.0,0.0,0.0,0.0,0.0,-3.413,-3.4044,-3.3787,-3.3899,-3.3975,-3.3975,-3.405,-3.4101,-3.4101,-3.4101,-3.4101,-3.4101,-3.4101,-3.4101,-3.4101,-3.4101,-3.4101,-3.4101,-3.4101,-3.4176,-3.4325,-3.4634,-3.4873,-3.5102,-3.5611,-3.6131,-3.6713,-4.0214,-4.0764,-4.1026,-4.0358,-4.0815,-4.1482,-4.2236,-4.2337,-4.2768,-4.388,-4.4035,-4.4466,-4.5622,-4.5049,-4.459,-4.459,-4.3888,-4.3471,-4.3471,-4.3471,-4.3454,-4.3419,-4.2756,-4.2404,-4.2328,-4.1621,-4.1261,-4.1261,-4.1226,-4.1209,-4.1186,-4.0795,0.0,0.0,-4.0096,-3.9824,-3.9651,-3.9185,-3.8914,-3.8777,-3.8644,-3.8738,-3.8969,-3.8996,-3.9265,-3.9687,-4.0037,-4.0245,-4.0178,-3.9072,-3.8755,-3.8569,-3.7075,-3.6588,-3.6553,-3.6574,-3.6796,-3.7071,-3.715,-3.7394,-3.7595,-3.7413,-3.7504,0.0,0.0,0.0,-3.7703,0.0,0.0,0.0,0.0,0.0,0.0,0.0,0.0,0.0,0.0,0.0,-3.8322,-3.7767,-3.7423,-3.686,-3.5941,-3.5712,0.0,0.0,0.0,0.0,0.0,-3.5015,-3.4745,-3.4027,-3.4138,-3.4214,-3.4214,-3.4214,-3.4182,-3.4149,-3.4149,-3.4133,-3.4101,-3.4101,-3.4101,-3.4101,-3.4101,-3.4101,-3.4101,-3.4101,-3.4176,-3.43,-3.43,-3.4618,-3.5111,-3.5605,-3.5898,-3.6221,-4.1586,-4.1675,-4.1829,-4.2181,-4.2055,-4.2126,-4.2867,-4.305,-4.343,-4.433,-4.4459,-4.4555,-4.4852,-4.4726,-4.4596,-4.4596,-4.4409,-4.4306,-4.4306,-4.4567,-4.4336,-4.3428,-4.3801,-4.3613,-4.2762,-4.2278,-4.2021,-4.2021,-4.147,-4.1209,-4.1186,0.0,0.0,0.0,0.0,-3.9547,-3.9158,-3.8942,-3.8738,-3.8504,-3.856,-3.8644,-3.8727,0.0,-3.8942,-3.9104,-3.9504,-3.9781,-3.9741,-3.8914,-3.827,-3.774,-3.7041,-3.6446,-3.6049,-3.6249,-3.6357,-3.646,-3.658,-3.6661,-3.6761,-3.6935,-3.6993,-3.7052,0.0,0.0,0.0,0.0,0.0,0.0,0.0,0.0,0.0,0.0,0.0,0.0,0.0,0.0,-3.8491,-3.7861,-3.8302,-3.8083,-3.66,-3.627,-3.6055,0.0,0.0,0.0,-3.5905,0.0,-3.5877,-3.5699,-3.571,-3.5736,-3.5736,-3.5736,-3.5461,-3.4936,-3.4936,-3.4619,-3.4101,-3.4101,-3.4101,-3.4101,-3.4101,-3.4101,-3.4101,-3.4101,-3.4126,-3.4151,-3.425,-3.4374,-3.4594,-3.5385,-3.5436,-3.5293,-4.1997,-4.2138,-4.2478,-4.3275,-4.3115,-4.3065,-4.3524,-4.3676,-4.3884,-4.4305,-4.4372,-4.4372,-4.4372,-4.4372,-4.4372,-4.4372,-4.4457,-4.4468,-4.4468,-4.4759,-4.4599,-4.3844,-4.396,-4.3733,-4.2971,-4.2475,-4.2037,-4.1644,-4.1233,-4.0874,-4.0531,0.0,0.0,0.0,0.0,-3.9309,-3.8914,-3.8711,-3.856,-3.8408,-3.8476,-3.8504,0.0,-3.86,-3.8655,-3.8738,-3.9002,-3.9299,-3.942,-3.8738,-3.8271,-3.7835,-3.6953,-3.6399,-3.6022,-3.5868,-3.5924,-3.6037,-3.6118,-3.6228,-3.6333,-3.635,-3.6512,-3.6618,-3.656,-3.6841,-3.7148,0.0,-3.73,-3.7411,0.0,0.0,0.0,0.0,0.0,0.0,0.0,0.0,-3.8234,-3.8117,-3.848,-3.8447,-3.7758,-3.7118,-3.6686,0.0,0.0,0.0,0.0,0.0,-3.6529,-3.6319,-3.6206,-3.6206,-3.6303,-3.6206,-3.5835,-3.5211,-3.5211,-3.4822,-3.4101,-3.4101,-3.4101,-3.4101,-3.4101,-3.4101,-3.4101,-3.4101,-3.4101,-3.4126,-3.425,-3.4275,-3.4275,-3.4826,-3.4904,-3.4873,-4.215,-4.2505,-4.3053,-4.3752,-4.3868,-4.3881,-4.3981,-4.4068,-4.4097,-4.4097,-4.4068,-4.4068,-4.4097,-4.4068,-4.4068,-4.4097,-4.4212,-4.4281,-4.4281,-4.444,-4.4457,-4.4281,-4.3771,-4.3378,-4.3154,-4.2545,-4.1856,-4.1084,-4.09,-4.0438,0.0,0.0,0.0,0.0,0.0,0.0,0.0,-3.8504,-3.8391,-3.8391,-3.8391,-3.8391,-3.8391,-3.8391,-3.8476,-3.8576,-3.8588,-3.8865,-3.9146,-3.8631,-3.8494,-3.8313,-3.7002,-3.6558,-3.6341,-3.5613,-3.5593,-3.5813,-3.5734,-3.5881,-3.5998,-3.5788,-3.6006,-3.6224,-3.6049,-3.6329,-3.6676,-3.6676,-3.6739,-3.6761,-3.6577,0.0,0.0,0.0,0.0,0.0,0.0,-3.7557,-3.784,-3.8277,-3.827,0.0,-3.8744,-3.7981,-3.7386,-3.7247,-3.723,0.0,0.0,0.0,-3.7028,-3.6567,-3.6383,-3.6356,-3.6497,-3.6356,-3.6013,-3.5461,-3.538,-3.4968,-3.423,-3.4133,-3.4101,-3.4101,-3.4101,-3.4101,-3.4101,-3.4101,-3.4101,-3.4126,-3.4226,-3.4201,-3.4126,-3.4226,-3.4423,-3.4715,-4.3335,-4.3376,-4.3492,-4.3641,-4.3568,-4.3509,-4.3522,-4.3864,-4.4097,-4.4097,-4.3964,-4.3906,-4.4068,-4.3964,-4.3935,-4.4097,-4.4126,-4.4126,-4.4126,-4.4155,-4.4155,-4.4126,-4.4021,-4.397,-4.3913,-4.3205,-4.2752,-4.2618,-4.1293,-4.0561,0.0,0.0,0.0,0.0,0.0,0.0,-3.8476,-3.842,0.0,-3.8391,-3.8391,-3.8391,-3.8391,-3.8391,-3.8391,-3.8464,-3.856,-3.8711,-3.8871,-3.8767,-3.8463,-3.8058,-3.7793,-3.7375,-3.6821,-3.6099,-3.5932,-3.5854,-3.5372,-3.5258,-3.5304,-3.5367,-3.5435,-3.5481,-3.5458,-3.5717,-3.5963,-3.5963,-3.6165,-3.6316,-3.6274,0.0,0.0,0.0,0.0,0.0,0.0,0.0,0.0,0.0,-3.8394,-3.8655,-3.7671,-3.7966,-3.8157,-3.8015,-3.8015,-3.8015,-3.8015,0.0,-3.7951,0.0,-3.7838,-3.7737,0.0,0.0,-3.7468,-3.6743,-3.633,-3.572,-3.5001,-3.4376,-3.4101,-3.4101,-3.4101,-3.4101,-3.4101,-3.4101,-3.4101,-3.4101,-3.4126,-3.4126,-3.4101,-3.4126,-3.4176,-3.4275,-4.3509,-4.3402,-4.3325,-4.3325,-4.3295,-4.3235,-4.3235,-4.3432,-4.3565,-4.3565,-4.3505,-4.3459,-4.3565,-4.3489,-4.3476,-4.3565,-4.3671,-4.3747,-4.3747,-4.3789,-4.3818,-4.373,-4.3789,-4.3743,-4.3611,-4.3322,-4.2987,-4.2473,0.0,-4.0953,-4.0227,0.0,0.0,-3.8794,0.0,-3.8532,0.0,0.0,-3.8391,-3.8391,-3.8391,-3.8391,-3.8391,-3.8391,-3.8391,-3.8408,-3.8476,-3.8532,-3.86,-3.875,-3.8646,-3.8356,-3.7978,-3.7669,-3.7294,-3.6661,-3.6472,-3.6332,-3.5726,-3.5575,-3.5476,-3.5164,-3.5135,-3.5198,-3.5198,-3.5367,-3.5532,-3.5532,-3.565,-3.5788,-3.5968,-3.5994,0.0,0.0,0.0,0.0,0.0,0.0,-3.7698,0.0,0.0,0.0,-3.7901,-3.8141,-3.8266,-3.8193,-3.8036,-3.8036,-3.8209,0.0,-3.802,0.0,0.0,0.0,-3.8049,0.0,-3.7753,-3.7213,-3.6928,-3.6254,-3.5195,-3.4813,-3.4457,-3.4101,-3.4101,-3.4101,-3.4101,-3.4101,-3.4101,-3.4101,-3.4101,-3.4101,-3.4101,-3.4101,-3.4327,-3.4727,-4.3342,-4.3113,-4.2943,-4.2943,-4.2803,-4.271,-4.271,-4.2679,-4.2772,-4.3066,-4.3082,-4.3082,-4.3113,-4.3082,-4.3082,-4.3113,-4.3235,-4.3342,-4.3342,-4.3446,-4.3446,-4.3342,-4.3446,-4.3369,-4.3113,-4.3281,-4.2955,0.0,0.0,0.0,0.0,0.0,0.0,0.0,0.0,0.0,0.0,0.0,-3.8391,-3.8391,-3.8391,-3.8391,-3.8391,-3.8391,-3.8391,-3.8391,-3.8391,-3.8391,-3.842,-3.8639,-3.8722,-3.8652,-3.8079,-3.791,-3.7832,-3.7249,-3.7061,-3.6922,-3.6298,-3.6125,-3.6001,-3.5463,-3.5387,-3.545,-3.5324,-3.5385,-3.5405,-3.5255,-3.5355,-3.5605,-3.6135,-3.6147,0.0,0.0,0.0,0.0,0.0,0.0,-3.7474,0.0,0.0,0.0,-3.8132,-3.8141,-3.8135,-3.8209,-3.7921,-3.7847,-3.8094,-3.7876,-3.7847,-3.8094,0.0,-3.7817,-3.8078,0.0,-3.776,-3.7494,-3.736,-3.6724,-3.5649,-3.5341,-3.4862,-3.4327,-3.4165,-3.4101,-3.4101,-3.4101,-3.4101,-3.4101,-3.4101,-3.4101,-3.4117,-3.4279,-3.4683,-3.5286,-4.3143,-4.271,-4.238,-4.238,-4.1852,-4.1475,-4.1475,-4.1294,-4.1656,-4.2943,-4.3007,-4.2976,-4.3082,-4.2976,-4.2976,-4.3082,-4.3113,-4.3143,-4.3143,-4.3143,-4.3143,-4.3143,-4.3143,-4.3127,-4.3113,-4.3113,-4.308,0.0,0.0,-4.1434,0.0,0.0,0.0,0.0,0.0,0.0,0.0,-3.8391,-3.8391,-3.8391,-3.8391,-3.8391,-3.8391,-3.8391,-3.8391,-3.8391,-3.8391,-3.8391,-3.8391,-3.842,-3.8504,-3.86,-3.8535,-3.8613,-3.8559,-3.7822,-3.7625,-3.7462,-3.6731,-3.6528,-3.6563,-3.6675,-3.671,-3.6595,-3.6042,-3.5934,-3.5735,-3.5079,-3.5477,-3.6287,-3.7405,-3.7267,-3.7153,0.0,0.0,0.0,0.0,0.0,-3.7497,-3.7573,0.0,0.0,-3.7441,-3.7721,-3.7992,-3.818,-3.7992,-3.7847,-3.7759,-3.7847,-3.7847,-3.7759,-3.77,-3.77,-3.7759,-3.7847,-3.7988,-3.8124,-3.7547,-3.7214,-3.7053,-3.5768,-3.5163,-3.5065,-3.4376,-3.4101,-3.4101,-3.4101,-3.4101,-3.4101,-3.4101,-3.4101,-3.4182,-3.4845,-3.5146,-3.5416,-4.2029,-4.1754,-4.1525,-4.1525,-4.1294,-4.1142,0.0,-4.1042,-4.1194,-4.1754,-4.1803,-4.177,-4.1819,-4.1803,-4.177,-4.1819,-4.1852,-4.1852,-4.1852,-4.1852,-4.1852,-4.1852,-4.1852,-4.1981,-4.2317,-4.2317,-4.2491,0.0,0.0,0.0,0.0,0.0,0.0,0.0,0.0,-3.8796,-3.8391,-3.8391,-3.8391,-3.8379,-3.8078,-3.7992,-3.7934,-3.7623,-3.749,-3.7549,-3.786,-3.7756,-3.7519,-3.7711,-3.8091,-3.8476,-3.8476,-3.8504,-3.8523,-3.8313,-3.8259,-3.8096,-3.7441,-3.7255,-3.7167,-3.6793,-3.672,-3.668,-3.657,-3.6529,-3.6463,-3.615,-3.6239,-3.6503,-3.6986,-3.6925,-3.7023,-3.7641,0.0,0.0,0.0,0.0,0.0,-3.8149,0.0,-3.8278,-3.8003,-3.793,-3.7934,-3.802,-3.7788,-3.77,-3.7817,-3.773,-3.7671,-3.77,0.0,-3.7612,-3.77,-3.7847,-3.7992,-3.8209,-3.8032,-3.7744,-3.7279,-3.6724,-3.5995,-3.5195,-3.4903,-3.4505,-3.4133,-3.457,-3.4748,-3.4797,-3.525,-3.5428,-3.5461,-3.5752,-3.6108,-3.6546,-4.1209,-4.0974,-4.0771,0.0,-4.06,-4.0428,-4.0428,-4.0393,-4.0343,-4.0343,-4.0343,-4.0516,-4.0959,-4.1008,-4.1008,-4.1008,-4.1008,-4.1008,-4.1008,-4.1008,-4.1008,-4.1008,-4.1008,0.0,-4.1558,-4.1558,-4.1738,-4.2126,-4.2126,0.0,0.0,0.0,0.0,0.0,-3.9599,-3.9071,-3.8251,-3.8251,-3.8139,-3.7873,-3.7522,-3.7373,-3.7268,-3.6966,-3.6799,-3.6799,-3.7254,-3.7133,-3.6799,-3.7027,-3.7431,-3.7857,-3.8033,-3.8164,-3.8221,-3.8476,-3.8532,-3.8446,-3.8019,-3.7916,-3.7785,-3.7316,-3.7186,-3.7163,-3.714,-3.7143,-3.7143,-3.7143,-3.7006,-3.6977,-3.7222,-3.7239,-3.7429,-3.7953,0.0,0.0,0.0,-3.8516,0.0,-3.8476,-3.8335,-3.825,-3.825,-3.7992,-3.7847,-3.7847,-3.7628,-3.7599,-3.7759,-3.7583,-3.7494,0.0,0.0,0.0,-3.7596,-3.7714,-3.786,-3.8107,-3.825,-3.8076,-3.7547,-3.7392,-3.6659,-3.5509,-3.5509,-3.5218,-3.4797,-3.5299,-3.5509,-3.56,-3.6092,-3.6303,-3.6335,-3.6529,-3.6875,-3.7328,-4.1008,-4.0581,-4.0216,-4.0216,-3.9615,-3.9141,-3.9141,-3.8943,-3.8819,-3.8819,-3.8819,-3.937,-4.0823,-4.1008,-4.1008,-4.1008,-4.1008,-4.1008,-4.1008,-4.1008,-4.1008,0.0,0.0,-4.1008,-4.1008,-4.1008,-4.0992,-4.1042,0.0,0.0,-4.0817,0.0,-4.0335,-4.0011,-3.9787,-3.903,-3.7904,-3.7904,-3.7468,-3.6723,-3.6692,-3.6585,-3.6446,-3.6631,-3.6585,-3.6415,-3.6631,-3.6585,-3.6415,-3.6415,-3.6415,-3.6538,-3.7207,-3.7551,-3.7788,-3.825,-3.8391,-3.8391,-3.8391,-3.8375,-3.8403,-3.8544,-3.8572,-3.8432,-3.7844,-3.7691,-3.7691,-3.7691,-3.7691,-3.792,-3.8641,-3.8772,-3.8772,-3.8788,0.0,0.0,0.0,-3.8363,0.0,-3.8193,-3.802,-3.7905,-3.7905,-3.7788,-3.77,-3.77,0.0,-3.751,-3.751,0.0,0.0,-3.7224,-3.7075,0.0,-3.7417,-3.7417,-3.7565,-3.7905,-3.8107,-3.8193,-3.8177,-3.7563,-3.6923,-3.6303,-3.6303,-3.6287,-3.627,-3.6287,-3.6303,-3.6303,-3.6303,-3.6303,-3.6384,-3.7036,-3.7279,-3.7392,-3.9915,-3.9666,-3.9451,-3.9451,-3.9147,-3.8907,-3.8907,-3.8819,-3.8782,-3.8782,-3.8782,-3.9002,-3.9442,-3.9636,-3.9636,0.0,-3.9636,-3.9636,0.0,-3.9636,-3.9636,-3.9514,-3.9636,-3.9814,-4.003,-4.0045,-4.0239,-4.0603,0.0,0.0,0.0,-4.0448,-4.0064,-3.9398,-3.93,-3.8708,-3.7752,-3.7327,-3.7006,-3.6697,-3.5937,-3.5563,-3.5499,-3.5219,-3.5169,-3.5299,-3.5657,-3.5625,-3.5415,-3.5642,-3.5561,-3.5447,-3.5913,-3.6399,-3.6875,-3.7163,-3.7147,-3.7131,-3.7594,-3.7476,-3.7387,-3.7976,-3.7727,-3.7368,-3.7582,-3.7733,-3.7834,-3.7834,-3.8019,-3.8072,-3.7767,-3.7902,-3.7976,-3.774,-3.749,0.0,-3.7312,0.0,-3.7387,-3.7027,-3.7222,-3.7268,-3.6906,-3.6738,0.0,0.0,0.0,0.0,0.0,0.0,0.0,0.0,-3.6831,0.0,-3.7268,-3.7358,-3.7522,-3.7759,-3.7817,-3.7847,-3.7876,-3.791,-3.7524,-3.6862,-3.6944,-3.6713,-3.6351,-3.6778,-3.6972,-3.702,-3.7549,-3.7728,-3.776,-3.797,-3.8051,-3.8084,-3.9301,-3.9068,-3.8885,-3.8885,-3.8649,-3.8449,-3.8449,-3.8412,-3.8352,-3.8352,-3.8352,-3.8352,-3.8352,-3.8538,0.0,-3.8782,-3.8907,-3.8943,-3.8819,-3.8848,-3.8811,-3.8686,-3.8811,-3.898,-3.9169,-3.9241,0.0,-3.9804,-3.9945,-3.9839,-3.9591,-3.9999,-3.9666,-3.8777,-3.8958,-3.8492,-3.7501,-3.7133,-3.6786,-3.6416,-3.5461,-3.5043,-3.4927,-3.4486,-3.4346,-3.4448,-3.4872,-3.482,-3.4568,-3.4905,-3.4839,-3.4635,-3.4857,-3.5237,-3.577,-3.6399,-3.6492,-3.6477,-3.6906,-3.6814,-3.6723,-3.7222,-3.6966,-3.6692,-3.7041,-3.7251,-3.7356,-3.7356,-3.7504,-3.749,-3.6996,-3.7072,-3.7148,-3.6921,-3.6723,-3.66,-3.66,0.0,-3.6693,0.0,0.0,-3.6569,-3.6244,-3.6134,-3.618,0.0,0.0,0.0,0.0,0.0,-3.68,-3.6101,-3.6569,-3.6923,-3.7119,-3.7134,-3.7254,-3.7508,-3.7567,-3.7626,-3.77,-3.7963,-3.7866,-3.7504,-3.7616,-3.7429,-3.7128,-3.7549,-3.7728,-3.7776,-3.823,-3.8391,-3.8391,-3.8391,-3.8391,-3.8391,-3.9031,-3.8738,-3.8441,-3.8441,-3.8127,-3.7886,-3.7886,-3.7711,-3.7625,-3.7625,-3.7625,-3.7625,-3.7625,-3.7749,-3.8113,-3.8671,0.0,0.0,-3.8723,-3.8538,-3.8441,-3.8441,-3.8441,-3.8441,-3.8441,-3.8612,-3.8723,-3.8723,-3.9045,-3.8826,-3.8165,-3.9182,-3.9124,-3.8165,-3.8664,-3.8253,-3.717,-3.7126,-3.6707,-3.5949,-3.5289,-3.4939,-3.4789,-3.435,-3.4071,-3.3988,-3.4283,-3.4185,-3.3965,-3.4244,-3.4244,-3.4094,-3.4094,-3.4196,-3.462,-3.5882,-3.6259,-3.6259,-3.6322,-3.6322,-3.6291,-3.6353,-3.6353,-3.6322,-3.6322,-3.6353,-3.6353,-3.6353,-3.6384,-3.6384,-3.6322,-3.6322,-3.6353,-3.6322,-3.6291,-3.6291,-3.6291,-3.6196,-3.6101,-3.607,0.0,0.0,-3.5785,-3.5785,-3.5737,0.0,0.0,0.0,0.0,0.0,-3.6538,-3.5849,-3.6242,-3.6616,-3.6984,-3.68,-3.6861,-3.7164,-3.7328,-3.7492,-3.7642,-3.7817,-3.7992,-3.818,-3.8209,-3.8294,-3.8391,-3.8391,-3.8391,-3.8391,-3.8391,-3.8391,-3.8391,-3.8391,-3.8391,-3.8391,0.0,0.0,-3.8037,-3.8037,-3.7825,-3.7687,-3.7687,-3.761,-3.7625,-3.7625,-3.7625,-3.7625,-3.7625,-3.7649,-3.7725,-3.7877,-3.8,-3.8037,-3.7877,-3.7976,-3.7976,-3.7801,-3.7938,-3.7976,-3.7801,-3.7877,-3.7877,-3.7877,-3.7976,-3.7901,-3.7763,-3.8,-3.7886,-3.7534,-3.7658,-3.7458,-3.6995,-3.6566,-3.6245,-3.6024,-3.5402,-3.5111,-3.5111,-3.4992,-3.471,-3.4384,-3.4455,-3.4227,-3.3896,-3.3985,-3.3985,-3.3951,-3.3951,-3.3985,-3.4122,-3.4721,-3.4872,-3.5004,-3.5497,-3.5382,-3.5249,-3.5849,-3.5849,-3.5642,-3.5642,-3.5753,-3.5864,-3.5864,-3.615,-3.6212,-3.5606,-3.5672,-3.5769,-3.5542,-3.5249,-3.5085,-3.5085,-3.5314,-3.5267,0.0,-3.5136,-3.5201,-3.4787,-3.462,-3.4673,0.0,0.0,-3.4695,-3.4312,-3.5077,-3.5417,-3.5139,-3.5623,-3.6179,-3.677,-3.6723,-3.6739,-3.6831,-3.7104,-3.721,-3.7181,-3.7553,-3.7817,-3.7992,-3.8135,-3.8294,-3.8391,-3.8391,-3.8391,-3.8391,-3.8391,-3.8391,-3.8391,-3.8391,-3.8391,-3.8391,-3.8037,-3.7825,-3.7634,-3.7634,-3.7457,-3.7341,-3.7341,-3.7341,-3.7341,-3.7341,-3.7341,-3.7341,-3.7341,-3.7341,-3.7341,-3.7341,-3.7596,-3.7711,-3.7625,-3.761,-3.7596,-3.7457,-3.7558,-3.7558,-3.7457,-3.7534,-3.7534,-3.7457,-3.7457,-3.7419,-3.7341,-3.7341,-3.7264,-3.7148,-3.7148,-3.7109,-3.6964,-3.6666,-3.6525,-3.6469,-3.585,-3.5611,-3.5583,-3.5302,-3.5052,-3.48,-3.4604,-3.4314,-3.4023,-3.3913,-3.3862,-3.3744,-3.3744,-3.3827,-3.3931,-3.402,-3.4088,-3.4278,-3.4706,-3.462,-3.4534,-3.507,-3.507,-3.4938,-3.4938,-3.5037,-3.5118,-3.5118,-3.5317,-3.535,-3.4902,-3.4986,-3.5052,-3.4883,-3.4683,-3.4515,-3.4448,-3.4668,-3.4687,-3.4298,-3.452,-3.4587,-3.4298,-3.4108,-3.4094,-3.4269,-3.4201,0.0,-3.3845,-3.4119,-3.4356,-3.4509,-3.5285,-3.5911,-3.6321,-3.6585,-3.6662,-3.66,-3.6877,-3.6968,-3.6999,-3.7345,-3.7596,-3.7817,-3.7992,-3.8164,-3.8307,-3.8363,-3.8391,-3.8391,-3.8391,-3.8391,-3.8391,-3.8391,-3.8391,-3.8391,-3.7772,-3.7481,-3.7264,-3.7264,-3.7109,-3.6978,-3.6978,-3.6978,-3.6978,-3.6978,-3.6978,-3.6978,-3.6978,-3.6978,-3.6978,-3.6978,-3.7303,-3.7495,-3.7495,-3.7341,-3.7264,-3.7264,-3.7264,-3.7264,-3.7264,-3.7419,-3.7419,-3.7264,-3.7264,-3.7187,-3.6978,-3.6978,-3.6978,-3.6978,-3.6978,-3.6978,-3.6978,-3.6978,-3.6978,-3.695,-3.6455,-3.6244,-3.6188,-3.5667,-3.5414,-3.5296,-3.4885,-3.4558,-3.4317,-3.403,-3.3817,-3.3663,-3.3599,-3.3675,-3.3793,-3.3605,-3.3675,-3.3848,-3.404,-3.4074,-3.4094,-3.4278,-3.4312,-3.4312,-3.4312,-3.4312,-3.4312,-3.4312,-3.4312,-3.4312,-3.4312,-3.4312,-3.4312,-3.4312,-3.4312,-3.4278,-3.4094,0.0,-3.4278,-3.4094,-3.4074,-3.4074,-3.4074,-3.3951,-3.3793,-3.3605,-3.357,-3.3466,-3.3326,-3.329,-3.3507,-3.3948,-3.4957,-3.5608,-3.5864,-3.6321,-3.6538,-3.6492,-3.6631,-3.68,-3.6999,-3.715,-3.7373,-3.77,-3.7847,-3.802,-3.8209,-3.8335,-3.8391,-3.8391,-3.8391,-3.8391,-3.8391,-3.8391,-3.8391,-3.8391,-3.7134,-3.7095,-3.707,-3.707,-3.7017,-3.6978,-3.6978,-3.6978,-3.6978,-3.6978,-3.6978,-3.6978,-3.6978,-3.6978,-3.6978,-3.6978,-3.707,-3.7109,-3.7109,-3.707,-3.707,-3.707,-3.707,-3.707,-3.707,-3.707,-3.707,-3.707,-3.707,-3.7017,-3.6978,-3.6978,-3.6978,-3.6978,-3.6978,-3.6978,-3.6978,-3.6978,-3.6978,-3.6978,-3.688,-3.6838,-3.6838,-3.6778,-3.6413,-3.5949,-3.5902,-3.5484,-3.495,-3.4331,-3.4134,-3.4,-3.3515,-3.3361,-3.3396,-3.3361,-3.3361,-3.3466,-3.3848,-3.3917,-3.3931,-3.3951,-3.4,-3.4,-3.4,-3.4,-3.4,-3.4,-3.4,-3.4,-3.4,-3.4,-3.4,-3.4,-3.4,-3.3965,-3.3931,0.0,-3.3965,-3.3917,-3.3917,-3.3917,-3.3917,-3.3744,-3.364,-3.3605,-3.3431,-3.3326,-3.329,-3.329,-3.3347,-3.3417,-3.4031,-3.4776,-3.5705,-3.5816,-3.6085,-3.6492,-3.6631,-3.68,-3.6999,-3.715,-3.7373,-3.77,-3.7847,-3.802,-3.8209,-3.8335,-3.8391,-3.8391,-3.8391,-3.8391,-3.8391,-3.8391,-3.8391,-3.8391,-3.6978,-3.6978,-3.6978,-3.6978,-3.6978,-3.6978,-3.6978,-3.6978,-3.6978,-3.6978,-3.6978,-3.6978,-3.6978,-3.6978,-3.6978,-3.6978,-3.6978,-3.6861,-3.6468,-3.6783,-3.6978,-3.6978,-3.6978,-3.6978,-3.6978,-3.6978,-3.6978,-3.6978,-3.6978,-3.6978,-3.6978,-3.6978,-3.6978,-3.6978,-3.6978,-3.6978,-3.6978,-3.6978,-3.6978,-3.6978,-3.6978,-3.6978,-3.6978,-3.6978,-3.681,-3.6553,-3.623,-3.592,-3.5597,-3.4941,-3.4506,-3.4147,-3.3866,-3.3557,-3.329,-3.329,-3.3396,-3.3501,-3.3675,-3.3827,-3.3896,-3.3896,-3.3896,-3.3896,-3.3896,-3.3896,-3.3896,-3.3896,-3.3896,-3.3896,-3.3896,-3.3896,-3.3896,-3.3896,-3.3896,-3.3862,-3.3744,-3.3827,-3.3862,-3.3744,-3.3744,-3.3744,-3.3744,-3.357,-3.3431,-3.3431,-3.3361,-3.329,-3.329,-3.329,-3.329,-3.329,-3.3825,-3.4476,-3.5252,-3.5559,-3.5816,-3.6085,-3.6414,-3.6677,-3.6831,-3.6892,-3.7104,-3.7449,-3.7581,-3.7743,-3.7934,-3.8078,-3.8193,-3.8278,-3.8278,-3.8351,-3.8391,-3.8391,-3.8391,-3.8391,-3.6978,-3.6744,-3.6573,-3.6744,-3.6626,-3.6533,-3.6533,-3.6533,-3.6533,-3.6533,-3.6533,-3.6533,-3.6533,-3.6533,-3.6533,-3.6533,-3.6533,-3.6296,-3.579,-3.6256,-3.6612,-3.6744,-3.69,-3.6978,-3.6978,-3.6978,-3.6978,-3.6978,-3.6978,-3.6978,-3.6978,-3.6978,-3.6978,-3.6978,-3.6978,-3.6978,-3.6978,-3.6978,-3.6978,-3.6978,-3.6978,-3.6978,-3.6978,-3.6978,-3.6978,-3.6922,-3.6497,-3.6314,-3.623,-3.5611,-3.5054,-3.4582,-3.4287,-3.388,-3.3473,-3.3333,-3.3396,-3.3536,-3.3536,-3.364,-3.3744,-3.3744,-3.3744,-3.3744,-3.3744,-3.3744,-3.3744,-3.3744,-3.3744,-3.3744,-3.3744,-3.3744,-3.3744,-3.3744,0.0,-3.3709,-3.3536,-3.364,-3.3709,-3.3536,-3.3536,-3.3536,-3.3536,-3.3396,-3.329,-3.329,-3.329,-3.329,-3.329,-3.329,-3.329,-3.329,-3.3701,-3.4187,-3.471,-3.5121,-3.5382,-3.5512,-3.6053,-3.6367,-3.6523,-3.6646,-3.6877,-3.7164,-3.7298,-3.7433,-3.7596,-3.7714,-3.7918,-3.8135,-3.8135,-3.825,-3.8391,-3.8391,-3.8391,-3.8391,-3.6861,-3.6004,-3.5359,-3.5991,-3.5575,-3.5155,-3.5155,-3.5155,-3.5155,-3.5155,-3.5155,-3.5155,-3.5155,-3.5155,-3.5155,-3.5155,-3.5155,-3.5114,-3.5073,-3.5114,-3.5399,-3.6031,-3.6665,-3.6978,-3.6978,-3.6978,-3.6978,-3.6978,-3.6978,-3.6978,-3.6978,-3.6978,-3.6978,-3.6978,-3.6978,-3.6978,-3.6978,-3.6978,-3.6978,-3.6978,-3.6978,-3.6978,-3.6978,-3.6978,-3.6978,-3.6978,-3.6936,-3.6908,-3.6824,-3.6244,-3.6005,-3.5728,-3.4554,-3.4175,-3.402,-3.3445,-3.3326,-3.3326,-3.3326,-3.3326,-3.3361,-3.3361,-3.3361,-3.3361,-3.3361,-3.3361,-3.3361,-3.3361,-3.3361,-3.3361,-3.3361,-3.3361,-3.3361,-3.3361,0.0,0.0,-3.3326,-3.3326,-3.3361,-3.3326,-3.3326,-3.3326,-3.3326,-3.3326,-3.329,-3.329,-3.329,-3.329,-3.329,-3.329,-3.329,-3.329,-3.3347,-3.3612,-3.4138,-3.4206,-3.4476,-3.499,-3.5512,-3.5847,-3.5976,-3.6476,-3.6831,-3.703,-3.718,-3.7208,-3.7254,-3.7387,-3.7623,-3.7915,-3.7915,-3.8103,-3.8391,-3.8391,-3.8391,-3.8391,-3.5723,-3.5359,-3.5073,-3.5332,-3.5155,-3.4991,-3.4991,-3.4991,-3.4991,-3.4991,-3.4991,-3.4991,-3.4991,-3.4991,-3.4991,-3.4991,-3.4991,-3.484,-3.4481,-3.4799,-3.5114,-3.5372,-3.6017,-3.6389,-3.6389,-3.6389,-3.6389,-3.6389,-3.5964,-3.5763,-3.5763,-3.5763,-3.5763,-3.5763,-3.5763,-3.5763,-3.5803,-3.6177,-3.6389,-3.6429,-3.6822,-3.6978,-3.6978,-3.6978,-3.6978,-3.6978,-3.6978,-3.6978,-3.695,-3.6764,-3.6427,-3.5963,-3.5068,-3.4548,-3.4076,-3.3473,-3.329,-3.329,-3.329,-3.329,-3.329,-3.329,-3.329,-3.329,-3.329,-3.329,-3.329,-3.329,-3.329,-3.329,-3.329,-3.329,-3.329,-3.329,0.0,-3.329,-3.329,-3.329,-3.329,-3.329,-3.329,-3.329,-3.329,-3.329,-3.329,-3.329,-3.329,-3.329,-3.329,-3.329,-3.329,-3.329,-3.329,-3.3382,-3.3597,-3.3914,-3.4206,-3.4409,-3.4957,-3.5252,-3.5302,-3.5497,-3.5864,-3.6321,-3.6368,-3.6662,-3.7075,-3.7135,-3.7389,-3.7772,-3.7772,-3.8033,-3.8391,-3.8391,-3.8391,-3.8391,-3.495,-3.4675,-3.4468,-3.4675,-3.4551,-3.4384,-3.4384,-3.4384,-3.4384,-3.4384,-3.4384,-3.4384,-3.4384,-3.4384,-3.4384,-3.4384,-3.4384,-3.423,-3.3823,-3.4189,-3.4592,-3.4991,-3.5453,-3.5696,-3.5696,-3.5696,-3.5696,-3.5696,-3.525,-3.4991,-3.4991,-3.4991,-3.4991,-3.4991,-3.4991,-3.4991,-3.5032,-3.5494,-3.5696,-3.5736,-3.6177,-3.6375,-3.6375,-3.6375,-3.6494,-3.6705,-3.6705,-3.6822,-3.6978,-3.6978,-3.6736,-3.6286,-3.5667,-3.4885,-3.4076,-3.3473,-3.329,-3.329,-3.329,-3.329,-3.329,-3.329,-3.329,-3.329,-3.329,-3.329,-3.329,-3.329,-3.329,-3.329,-3.329,-3.329,-3.329,-3.329,-3.329,-3.329,-3.329,-3.329,-3.329,-3.329,-3.329,-3.329,-3.329,-3.329,-3.329,-3.329,-3.329,-3.329,-3.329,-3.329,-3.329,-3.329,-3.329,-3.329,-3.329,-3.3667,-3.3859,-3.3859,-3.4375,-3.4643,-3.4643,-3.481,-3.5139,-3.5593,-3.5593,-3.5975,-3.6585,-3.6585,-3.6968,-3.7537,-3.7596,-3.7905,-3.8351,-3.8363,-3.8391,-3.8391,-3.4868,-3.3979,-3.3326,-3.3992,-3.3539,-3.3124,-3.3124,-3.3124,-3.3124,-3.3124,-3.3124,-3.3124,-3.3124,-3.3124,-3.3124,-3.3124,-3.3124,-3.3124,-3.3124,-3.3124,-3.3654,-3.4909,-3.4991,-3.4991,-3.4991,-3.4991,-3.4991,-3.4991,-3.4991,-3.4991,-3.4991,-3.4991,-3.4991,-3.4991,-3.4991,-3.4991,-3.4991,-3.4991,-3.4991,-3.4991,-3.4991,-3.4991,-3.4991,-3.4991,-3.5413,-3.5991,-3.5991,-3.6429,-3.6978,-3.6978,-3.6978,-3.6866,-3.6262,-3.5222,-3.409,-3.3473,-3.329,-3.329,-3.3276,-3.329,-3.329,-3.329,-3.329,-3.329,-3.329,-3.329,-3.329,-3.329,-3.329,-3.329,-3.329,-3.329,-3.329,-3.329,-3.329,-3.329,-3.329,-3.329,-3.329,-3.329,-3.329,-3.329,-3.329,-3.329,-3.329,-3.329,-3.329,-3.329,-3.329,-3.329,-3.329,-3.329,-3.329,-3.329,-3.329,-3.329,-3.329,-3.3326,-3.3825,-3.407,-3.4104,-3.4643,-3.4876,-3.4876,-3.4876,-3.5219,-3.5688,-3.5688,-3.6274,-3.7208,-3.7328,-3.7727,-3.8209,-3.8351,-3.8391,-3.8391,-3.3386,-3.3227,-3.3154,-3.3368,-3.324,-3.3124,-3.3124,-3.3124,-3.3124,-3.3124,-3.3124,-3.3124,-3.3124,-3.3124,-3.3124,-3.3124,-3.3124,-3.3124,-3.3124,-3.3124,-3.3283,-3.3654,-3.4105,-3.4356,-3.4356,-3.4356,-3.4356,-3.4356,-3.3907,-3.3696,-3.3696,-3.3696,-3.3696,-3.3696,-3.3696,-3.3696,-3.3696,-3.4189,-3.4356,-3.4397,-3.484,-3.4991,-3.4991,-3.4991,-3.5114,-3.5318,-3.5669,-3.5696,-3.5696,-3.6363,-3.6363,-3.6041,-3.5723,-3.4774,-3.3652,-3.3042,-3.2686,-3.2359,-3.1932,-3.2237,-3.2753,-3.3206,-3.329,-3.329,-3.329,-3.329,-3.329,-3.329,-3.329,-3.329,-3.329,-3.329,-3.329,-3.329,-3.329,-3.329,-3.329,-3.329,-3.329,-3.329,-3.329,-3.329,-3.329,-3.329,-3.329,-3.329,-3.329,-3.329,-3.329,-3.329,-3.329,-3.329,-3.329,-3.329,-3.329,-3.329,-3.329,-3.329,-3.3437,-3.3542,-3.3542,-3.3716,-3.3962,-3.4341,-3.4341,-3.4643,-3.5154,-3.5154,-3.5529,-3.615,-3.6631,-3.7177,-3.7698,-3.8221,-3.8391,-3.8391,-3.2593,-3.2723,-3.2822,-3.2822,-3.2822,-3.2865,-3.2939,-3.2865,-3.2865,-3.2939,-3.2939,-3.2939,-3.2939,-3.3038,-3.3124,-3.3124,-3.3124,-3.3124,-3.3124,-3.2982,-3.2939,-3.2939,-3.324,-3.3484,-3.3709,-3.3709,-3.3709,-3.3709,-3.3283,-3.3124,-3.3124,-3.3124,-3.3025,-3.2939,-3.2939,-3.2896,-3.2865,-3.324,-3.3441,-3.3441,-3.3797,-3.3966,-3.3966,-3.3966,-3.4134,-3.4413,-3.4675,-3.4744,-3.48,-3.5399,-3.5399,-3.5075,-3.4726,-3.3968,-3.3082,-3.2499,-3.2019,-3.1676,-3.1307,-3.1589,-3.2114,-3.2489,-3.2945,-3.329,-3.329,-3.329,-3.329,-3.329,-3.329,-3.329,-3.329,-3.329,-3.329,-3.329,-3.329,-3.329,-3.329,-3.329,-3.329,-3.329,-3.329,-3.329,-3.329,-3.329,-3.329,-3.329,-3.329,-3.329,-3.329,-3.329,-3.329,-3.329,-3.329,-3.329,-3.329,-3.329,-3.329,-3.329,-3.329,-3.329,-3.329,-3.329,-3.3486,-3.3791,-3.3791,-3.4085,-3.4576,-3.4576,-3.4894,-3.5467,-3.5946,-3.6384,-3.6875,-3.7608,-3.7931,-3.8033,-3.2344,-3.2388,-3.24,-3.24,-3.24,-3.2475,-3.2636,-3.2519,-3.2475,-3.2636,-3.268,-3.268,-3.268,-3.2896,-3.3081,-3.3038,-3.3025,-3.2982,-3.2995,-3.2766,-3.2624,-3.2624,-3.2431,-3.2562,-3.2995,-3.2982,-3.2982,-3.2982,-3.2982,-3.2982,-3.2982,-3.3038,-3.2896,-3.268,-3.268,-3.255,-3.24,-3.24,-3.24,-3.24,-3.24,-3.24,-3.24,-3.24,-3.2766,-3.3313,-3.3356,-3.3687,-3.4139,-3.4181,-3.4223,-3.4131,-3.3623,-3.3062,-3.2489,-3.1837,-3.1393,-3.1099,-3.106,-3.1182,-3.1392,-3.1405,-3.2309,-3.3136,-3.3206,-3.3206,-3.3241,-3.329,-3.329,-3.329,-3.329,-3.329,-3.329,-3.329,-3.329,-3.329,-3.329,-3.329,-3.329,-3.329,-3.329,-3.329,-3.329,-3.329,-3.329,-3.329,-3.329,-3.329,-3.329,-3.329,-3.329,-3.329,-3.329,-3.329,-3.329,-3.329,-3.329,-3.329,-3.329,-3.329,-3.329,-3.329,-3.329,-3.329,-3.329,-3.3577,-3.4016,-3.4016,-3.4409,-3.4978,-3.5222,-3.5529,-3.5913,-3.6722,-3.7131,-3.7371,-3.2125,-3.2257,-3.24,-3.24,-3.24,-3.2388,-3.2475,-3.2431,-3.2431,-3.2475,-3.2475,-3.2475,-3.2475,-3.2636,-3.2723,-3.2562,-3.2363,-3.2176,-3.2013,-3.1969,-3.1925,-3.1925,-3.1893,-3.1893,-3.2013,-3.2176,-3.2264,-3.2264,-3.2264,-3.2264,-3.2251,-3.2463,-3.2519,-3.2475,-3.2475,-3.2431,-3.24,-3.24,-3.24,-3.24,-3.24,-3.24,-3.24,-3.24,-3.2475,-3.2636,-3.2957,-3.2957,-3.2871,-3.3189,-3.353,-3.3801,-3.3685,-3.3235,-3.2575,-3.1539,-3.0983,-3.0491,-2.9764,-3.0063,-3.062,-3.0758,-3.1368,-3.1992,-3.2489,-3.261,-3.2717,-3.3206,-3.329,-3.329,-3.329,-3.329,-3.329,-3.329,-3.329,-3.329,-3.329,-3.329,-3.329,-3.329,-3.329,-3.329,-3.329,-3.329,-3.329,-3.329,-3.329,-3.329,-3.329,-3.329,-3.329,-3.329,-3.329,-3.329,-3.329,-3.329,-3.329,-3.329,-3.329,-3.329,-3.329,-3.329,-3.329,-3.329,-3.329,-3.3347,-3.3472,-3.3472,-3.3646,-3.3991,-3.4543,-3.4894,-3.519,-3.6025,-3.6353,-3.6492,-3.1893,-3.1981,-3.2081,-3.2081,-3.2081,-3.2081,-3.2213,-3.2125,-3.2081,-3.2213,-3.2125,-3.2081,-3.2081,-3.2145,-3.2189,-3.2069,-3.1925,-3.1825,-3.1705,-3.1572,-3.1528,-3.1528,-3.1407,-3.1374,-3.1374,-3.1339,-3.1504,-3.1869,-3.1945,-3.1945,-3.1869,-3.2245,-3.2213,-3.1893,-3.2025,-3.1981,-3.1893,-3.1893,-3.1893,-3.1893,-3.1893,-3.1893,-3.1893,-3.1893,-3.1937,-3.2069,-3.2307,-3.2232,-3.2113,-3.232,-3.2556,-3.2729,-3.2729,-3.2343,-3.1762,-3.1196,-3.0573,-2.9964,-2.9453,-2.9539,-2.9767,-2.9871,-3.0139,-3.062,-3.1589,-3.2042,-3.2309,-3.2561,-3.2895,-3.3157,-3.3157,-3.3241,-3.329,-3.329,-3.329,-3.329,-3.329,-3.329,-3.329,-3.329,-3.329,-3.329,-3.329,-3.329,-3.329,-3.329,-3.329,-3.329,-3.329,-3.329,-3.329,-3.329,-3.329,-3.329,-3.329,-3.329,-3.329,-3.329,-3.329,-3.329,-3.329,-3.329,-3.329,-3.329,-3.329,-3.329,-3.329,-3.329,-3.3361,-3.3501,-3.3825,-3.4099,-3.437,-3.5094,-3.5693,-3.6229,-3.1705,-3.1705,-3.1705,-3.1705,-3.1705,-3.1761,-3.1937,-3.1761,-3.1705,-3.1849,-3.1717,-3.1584,-3.1584,-3.1584,-3.1584,-3.1572,-3.1528,-3.1484,-3.1439,-3.1261,-3.1128,-3.1128,-3.096,-3.0838,-3.0838,-3.0634,-3.0847,-3.1528,-3.1681,-3.1681,-3.1528,-3.195,-3.1817,-3.1261,-3.1496,-3.1451,-3.1261,-3.1261,-3.1261,-3.1261,-3.1261,-3.1261,-3.1261,-3.1261,-3.1407,-3.1584,-3.1584,-3.1584,-3.1584,-3.1617,-3.1617,-3.1584,-3.1617,-3.1316,-3.0944,-3.086,-3.0368,-2.9796,-2.9642,-2.9398,-2.9162,-2.9116,-2.9091,-2.9392,-3.0545,-3.127,-3.1713,-3.1649,-3.2196,-3.269,-3.269,-3.2931,-3.3136,-3.3136,-3.3241,-3.329,-3.329,-3.329,-3.329,-3.329,-3.329,-3.329,-3.329,-3.329,-3.329,-3.329,-3.329,-3.329,-3.329,-3.329,-3.329,-3.329,-3.329,-3.329,-3.329,-3.329,-3.329,-3.329,-3.329,-3.329,-3.329,-3.329,-3.329,-3.329,-3.329,-3.329,-3.329,-3.329,-3.329,-3.329,-3.329,-3.3396,-3.3626,-3.4221,-3.4996,-3.5883,-3.1705,-3.1705,-3.1705,-3.1705,-3.1705,-3.1705,-3.1761,-3.1528,-3.135,-3.1395,-3.1229,-3.1107,-3.1107,-3.1107,-3.1062,-3.0994,-3.0847,-3.0668,-3.0442,-3.0352,-3.0352,-3.0352,-3.0306,-3.0306,-3.0306,-3.0261,-3.0442,-3.0758,-3.0791,-3.0802,-3.0758,-3.105,-3.1163,-3.1017,-3.1062,-3.1062,-3.1017,-3.1017,-3.1017,-3.1017,-3.1017,-3.1017,-3.1017,-3.1017,-3.1062,-3.1107,-3.1107,-3.1107,-3.1107,-3.1318,-3.1229,-3.1107,-3.1306,-3.1303,-3.1148,-3.0707,-3.0642,-3.0543,-2.9808,-2.9586,-2.9455,-2.9162,-2.9091,-2.9091,-2.9106,-2.9716,-3.0444,-3.0932,-3.1244,-3.1442,-3.1442,-3.2042,-3.2525,-3.2525,-3.2945,-3.329,-3.329,-3.329,-3.329,-3.329,-3.329,-3.329,-3.329,-3.329,-3.329,-3.329,-3.329,-3.329,-3.329,-3.329,-3.329,-3.329,-3.329,-3.329,-3.329,-3.329,-3.329,-3.329,-3.329,-3.329,-3.329,-3.329,-3.329,-3.329,-3.329,-3.329,-3.329,-3.329,-3.329,-3.329,-3.329,-3.3326,-3.3347,-3.3626,-3.4011,-3.4438,-3.133,-3.133,-3.1318,-3.1439,-3.1362,-3.1362,-3.1439,-3.1273,-3.1139,-3.1139,-3.0916,-3.0781,-3.0781,-3.0634,-3.0544,-3.0487,-3.0442,-3.0306,-3.0216,-3.0216,-3.0216,-3.0216,-3.0216,-3.0216,-3.0216,-3.0216,-3.0261,-3.0397,-3.0532,-3.0532,-3.0397,-3.0793,-3.0838,-3.0544,-3.0724,-3.0781,-3.0781,-3.0781,-3.0781,-3.0781,-3.0781,-3.0781,-3.0781,-3.0781,-3.0883,-3.0984,-3.0984,-3.0984,-3.1029,-3.1107,-3.1062,-3.1029,-3.1107,-3.1139,-3.1104,-3.0988,-3.0803,-3.0642,-3.0375,-2.9903,-2.9395,-2.9246,-2.9007,-2.8736,-2.8657,-2.8934,-2.9341,-2.9935,-3.0833,-3.1539,-3.1539,-3.2173,-3.2739,-3.2739,-3.2846,-3.2966,-3.2966,-3.2966,-3.2966,-3.2966,-3.2966,-3.2966,-3.2966,-3.2966,-3.3002,-3.3108,-3.3108,-3.3192,-3.3276,-3.329,-3.329,-3.329,-3.329,-3.329,-3.329,-3.329,-3.329,-3.329,-3.329,-3.329,-3.329,-3.329,-3.329,-3.329,-3.329,-3.329,-3.329,-3.329,-3.329,-3.329,-3.329,-3.329,-3.3326,-3.3536,-3.3709,-3.3922]},{"header":{"parameterUnit":"m.s-1","parameterCategory":1,"la1":30.6,"la2":28.766,"lo1":-90.7593,"lo2":-88.6598,"dy":0.0162,"dx":0.0183,"nx":116,"ny":114,"refTime":"2024-04-14T18:00:00:Z","depth":0,"parameterNumber":3,"parameterNumberName":"V-component_of_WINDS"},"data":[0.0,0.0,0.0,0.0,0.0,0.0,0.0,0.0,0.0,0.0,0.0,0.0,0.0,0.0,0.0,0.0,0.0,0.0,0.0,0.0,0.0,0.0,0.0,0.0,0.0,0.0,0.0,0.0,0.0,0.0,0.0,0.0,0.0,0.0,0.0,0.0,0.0,0.0,0.0,0.0,0.0,0.0,0.0,0.0,0.0,0.0,0.0,0.0,0.0,0.0,0.0,0.0,0.0,0.0,0.0,0.0,0.0,0.0,0.0,0.0,0.0,0.0,0.0,0.0,0.0,0.0,0.0,0.0,0.0,0.0,0.0,0.0,0.0,0.0,0.0,0.0,0.0,0.0,0.0,0.0,0.0,0.0,0.0,0.0,0.0,0.0,0.0,0.0,0.0,0.0,0.0,0.0,0.0,0.0,0.0,0.0,0.0,0.0,0.0,0.0,0.0,0.0,0.0,0.0,0.0,0.0,0.0,0.0,0.0,0.0,0.0,0.0,0.0,0.0,0.0,0.0,0.0,0.0,0.0,0.0,0.0,0.0,0.0,0.0,0.0,0.0,0.0,0.0,0.0,0.0,0.0,0.0,0.0,0.0,0.0,0.0,0.0,0.0,0.0,0.0,0.0,0.0,0.0,0.0,0.0,0.0,0.0,0.0,0.0,0.0,0.0,0.0,0.0,0.0,0.0,0.0,0.0,0.0,0.0,0.0,0.0,0.0,0.0,0.0,0.0,0.0,0.0,0.0,0.0,0.0,0.0,0.0,0.0,0.0,0.0,0.0,0.0,0.0,0.0,0.0,0.0,0.0,0.0,0.0,0.0,0.0,0.0,0.0,0.0,0.0,0.0,0.0,0.0,0.0,0.0,0.0,0.0,0.0,0.0,0.0,0.0,0.0,0.0,0.0,0.0,0.0,0.0,0.0,0.0,0.0,0.0,0.0,0.0,0.0,0.0,0.0,0.0,0.0,0.0,0.0,0.0,0.0,0.0,0.0,0.0,0.0,0.0,0.0,0.0,0.0,0.0,0.0,0.0,0.0,0.0,0.0,0.0,0.0,0.0,0.0,0.0,0.0,0.0,0.0,0.0,0.0,0.0,0.0,0.0,0.0,0.0,0.0,0.0,0.0,0.0,0.0,0.0,0.0,0.0,0.0,0.0,0.0,0.0,0.0,0.0,0.0,0.0,0.0,0.0,0.0,0.0,0.0,0.0,0.0,0.0,0.0,0.0,0.0,0.0,0.0,0.0,0.0,0.0,0.0,0.0,0.0,0.0,0.0,0.0,0.0,0.0,0.0,0.0,0.0,0.0,0.0,0.0,0.0,0.0,0.0,0.0,0.0,0.0,0.0,0.0,0.0,0.0,0.0,0.0,0.0,0.0,0.0,0.0,0.0,0.0,0.0,0.0,0.0,0.0,0.0,0.0,0.0,0.0,0.0,0.0,0.0,0.0,0.0,0.0,0.0,0.0,0.0,0.0,0.0,0.0,0.0,0.0,0.0,0.0,0.0,0.0,0.0,0.0,0.0,0.0,0.0,0.0,0.0,0.0,0.0,0.0,0.0,0.0,0.0,0.0,0.0,0.0,0.0,0.0,0.0,0.0,0.0,0.0,0.0,0.0,0.0,0.0,0.0,0.0,0.0,0.0,0.0,0.0,0.0,0.0,0.0,0.0,0.0,0.0,0.0,0.0,0.0,0.0,0.0,0.0,0.0,0.0,0.0,0.0,0.0,0.0,0.0,0.0,0.0,0.0,0.0,0.0,0.0,0.0,0.0,0.0,0.0,0.0,0.0,0.0,0.0,0.0,0.0,0.0,0.0,0.0,0.0,0.0,0.0,0.0,0.0,0.0,0.0,0.0,0.0,0.0,0.0,0.0,0.0,0.0,0.0,0.0,0.0,0.0,0.0,0.0,0.0,0.0,0.0,0.0,0.0,0.0,0.0,0.0,0.0,0.0,0.0,0.0,0.0,0.0,0.0,0.0,0.0,0.0,0.0,0.0,0.0,0.0,0.0,0.0,0.0,0.0,0.0,0.0,0.0,0.0,0.0,0.0,0.0,0.0,0.0,0.0,0.0,0.0,0.0,0.0,0.0,0.0,0.0,0.0,0.0,0.0,0.0,0.0,0.0,0.0,0.0,0.0,0.0,0.0,0.0,0.0,0.0,0.0,0.0,0.0,0.0,0.0,0.0,0.0,0.0,0.0,0.0,0.0,0.0,0.0,0.0,0.0,0.0,0.0,0.0,0.0,0.0,0.0,0.0,0.0,0.0,0.0,0.0,0.0,0.0,0.0,0.0,0.0,0.0,0.0,0.0,0.0,0.0,0.0,0.0,0.0,0.0,0.0,0.0,0.0,0.0,0.0,0.0,0.0,0.0,0.0,0.0,0.0,0.0,0.0,0.0,0.0,0.0,0.0,0.0,0.0,0.0,0.0,0.0,0.0,0.0,0.0,0.0,0.0,0.0,0.0,0.0,0.0,0.0,0.0,0.0,0.0,0.0,0.0,0.0,0.0,0.0,0.0,0.0,0.0,0.0,0.0,0.0,0.0,0.0,0.0,0.0,0.0,0.0,0.0,0.0,0.0,0.0,0.0,0.0,0.0,0.0,0.0,0.0,0.0,0.0,0.0,0.0,0.0,0.0,0.0,0.0,0.0,0.0,0.0,0.0,0.0,0.0,0.0,0.0,0.0,0.0,0.0,0.0,0.0,0.0,0.0,0.0,0.0,0.0,0.0,0.0,0.0,0.0,0.0,0.0,0.0,0.0,0.0,0.0,0.0,0.0,0.0,0.0,0.0,0.0,0.0,0.0,0.0,0.0,0.0,0.0,0.0,0.0,0.0,0.0,0.0,0.0,0.0,0.0,0.0,0.0,0.0,0.0,0.0,0.0,0.0,0.0,0.0,0.0,0.0,0.0,0.0,0.0,0.0,0.0,0.0,0.0,0.0,0.0,0.0,0.0,0.0,0.0,0.0,0.0,0.0,0.0,0.0,0.0,0.0,0.0,0.0,0.0,0.0,0.0,0.0,0.0,0.0,0.0,0.0,0.0,0.0,0.0,0.0,0.0,0.0,0.0,0.0,0.0,0.0,0.0,0.0,0.0,0.0,0.0,0.0,0.0,0.0,0.0,0.0,0.0,0.0,0.0,0.0,0.0,0.0,0.0,0.0,0.0,0.0,0.0,0.0,0.0,0.0,0.0,0.0,0.0,0.0,0.0,0.0,0.0,0.0,0.0,0.0,0.0,0.0,0.0,0.0,0.0,0.0,0.0,0.0,0.0,0.0,0.0,0.0,0.0,0.0,0.0,0.0,0.0,0.0,0.0,0.0,0.0,0.0,0.0,0.0,0.0,0.0,0.0,0.0,0.0,0.0,0.0,0.0,0.0,0.0,0.0,0.0,0.0,0.0,0.0,0.0,0.0,0.0,0.0,0.0,0.0,0.0,0.0,0.0,0.0,0.0,0.0,0.0,0.0,0.0,0.0,0.0,0.0,0.0,0.0,0.0,0.0,0.0,0.0,0.0,0.0,0.0,0.0,0.0,0.0,0.0,0.0,0.0,0.0,0.0,0.0,0.0,0.0,0.0,0.0,0.0,0.0,0.0,0.0,0.0,0.0,0.0,0.0,0.0,0.0,0.0,0.0,0.0,0.0,0.0,0.0,0.0,0.0,0.0,0.0,0.0,0.0,0.0,0.0,0.0,0.0,0.0,0.0,0.0,0.0,0.0,0.0,0.0,0.0,0.0,0.0,0.0,0.0,0.0,0.0,0.0,0.0,0.0,0.0,0.0,0.0,0.0,0.0,0.0,0.0,0.0,0.0,0.0,0.0,0.0,0.0,0.0,0.0,0.0,0.0,0.0,0.0,0.0,0.0,0.0,0.0,0.0,0.0,0.0,0.0,0.0,0.0,0.0,0.0,0.0,0.0,0.0,0.0,0.0,0.0,0.0,0.0,0.0,0.0,0.0,0.0,0.0,0.0,0.0,0.0,0.0,0.0,0.0,0.0,0.0,0.0,0.0,0.0,0.0,0.0,0.0,0.0,0.0,0.0,0.0,0.0,0.0,0.0,0.0,0.0,0.0,0.0,0.0,0.0,0.0,0.0,0.0,0.0,0.0,0.0,0.0,0.0,0.0,0.0,0.0,0.0,0.0,0.0,0.0,0.0,0.0,0.0,0.0,0.0,0.0,0.0,0.0,0.0,0.0,0.0,0.0,0.0,0.0,0.0,0.0,0.0,0.0,0.0,0.0,0.0,0.0,0.0,0.0,0.0,0.0,0.0,0.0,0.0,0.0,0.0,0.0,0.0,0.0,0.0,0.0,0.0,0.0,0.0,0.0,0.0,0.0,0.0,0.0,0.0,0.0,0.0,0.0,0.0,0.0,0.0,0.0,0.0,0.0,0.0,0.0,0.0,0.0,0.0,0.0,0.0,0.0,0.0,0.0,0.0,0.0,0.0,0.0,0.0,0.0,0.0,0.0,0.0,0.0,0.0,0.0,0.0,0.0,0.0,0.0,0.0,0.0,0.0,0.0,0.0,0.0,0.0,0.0,0.0,0.0,0.0,0.0,0.0,0.0,0.0,0.0,0.0,0.0,0.0,0.0,0.0,0.0,0.0,0.0,0.0,0.0,0.0,0.0,0.0,0.0,0.0,0.0,0.0,0.0,0.0,0.0,0.0,0.0,0.0,0.0,0.0,0.0,0.0,0.0,0.0,0.0,0.0,0.0,0.0,0.0,0.0,0.0,0.0,0.0,0.0,0.0,0.0,0.0,0.0,0.0,0.0,0.0,0.0,0.0,0.0,0.0,0.0,0.0,0.0,0.0,0.0,0.0,0.0,0.0,0.0,0.0,0.0,0.0,0.0,0.0,0.0,0.0,0.0,0.0,0.0,0.0,0.0,0.0,0.0,0.0,0.0,0.0,0.0,0.0,0.0,0.0,0.0,0.0,0.0,0.0,0.0,0.0,0.0,0.0,0.0,0.0,0.0,0.0,0.0,0.0,0.0,0.0,0.0,0.0,0.0,0.0,0.0,0.0,0.0,0.0,0.0,0.0,0.0,0.0,0.0,0.0,0.0,0.0,0.0,0.0,0.0,0.0,0.0,0.0,0.0,0.0,0.0,0.0,0.0,0.0,0.0,0.0,0.0,0.0,0.0,0.0,0.0,0.0,0.0,0.0,0.0,0.0,0.0,0.0,0.0,0.0,0.0,0.0,0.0,0.0,0.0,0.0,0.0,0.0,0.0,0.0,0.0,0.0,0.0,0.0,0.0,0.0,0.0,0.0,0.0,0.0,0.0,0.0,0.0,0.0,0.0,0.0,0.0,0.0,0.0,0.0,0.0,0.0,0.0,0.0,0.0,0.0,0.0,0.0,0.0,0.0,0.0,0.0,0.0,0.0,0.0,0.0,0.0,0.0,0.0,0.0,0.0,0.0,0.0,0.0,0.0,0.0,0.0,0.0,0.0,0.0,0.0,0.0,0.0,0.0,0.0,0.0,0.0,0.0,0.0,0.0,0.0,0.0,0.0,0.0,0.0,0.0,0.0,0.0,0.0,0.0,0.0,0.0,0.0,0.0,0.0,0.0,0.0,0.0,0.0,0.0,0.0,0.0,0.0,0.0,0.0,0.0,0.0,0.0,0.0,0.0,0.0,0.0,0.0,0.0,0.0,0.0,0.0,0.0,0.0,0.0,0.0,0.0,0.0,0.0,0.0,0.0,0.0,0.0,0.0,0.0,0.0,0.0,0.0,0.0,0.0,0.0,0.0,0.0,0.0,0.0,0.0,0.0,0.0,0.0,0.0,0.0,0.0,0.0,0.0,0.0,0.0,0.0,0.0,0.0,0.0,0.0,0.0,0.0,0.0,0.0,0.0,0.0,0.0,0.0,0.0,0.0,0.0,0.0,0.0,0.0,0.0,0.0,0.0,0.0,0.0,0.0,0.0,0.0,0.0,0.0,0.0,0.0,0.0,0.0,0.0,0.0,0.0,0.0,0.0,0.0,0.0,0.0,0.0,0.0,0.0,0.0,0.0,0.0,0.0,0.0,0.0,0.0,0.0,0.0,0.0,0.0,0.0,0.0,0.0,0.0,0.0,0.0,0.0,0.0,0.0,-0.2998,0.0,0.0,0.0,0.0,0.0,0.0,0.0,0.0,0.0,0.0,0.0,0.0,0.0,0.0,0.0,0.0,0.0,0.0,0.0,0.0,0.0,0.0,0.0,0.0,2.1917,2.1653,2.1429,2.1139,2.0974,2.0974,0.0,0.0,0.0,0.0,0.0,2.0677,2.0748,2.0412,1.9577,1.9295,1.8799,1.8032,1.592,1.4282,1.3177,0.0,0.0,0.0,0.0,0.0,0.0,0.0,0.0,0.0,0.0,0.0,0.0,0.0,0.0,0.0,0.0,0.0,0.0,0.0,0.0,0.0,0.0,0.0,0.0,0.0,0.0,0.0,0.0,0.0,0.0,0.0,0.0,0.0,0.0,0.0,0.0,0.0,0.0,0.0,0.0,0.0,0.0,0.0,0.0,0.0,0.0,0.0,0.0,0.0,0.0,0.0,0.0,0.0,0.0,0.0,0.0,0.0,0.0,0.0,0.0,0.0,0.0,0.0,0.0,0.0,0.0,0.0,0.0,0.0,0.0,0.0,-0.3216,0.0,0.0,0.0,0.0,0.0,0.0,0.0,0.0,0.0,0.0,0.0,0.0,0.0,0.0,0.0,0.0,0.0,0.0,0.0,0.0,0.0,2.315,2.3065,2.2916,2.2729,2.2467,2.2475,2.2491,2.2452,2.2658,0.0,0.0,0.0,2.2413,2.2128,2.1848,2.1381,2.0778,2.0601,2.0003,1.8922,1.8469,1.7815,1.7045,1.6028,0.0,0.0,0.0,0.0,0.0,0.0,0.0,0.0,0.0,0.0,0.0,0.0,0.0,0.0,0.0,0.0,0.0,0.0,0.0,0.0,0.0,0.0,0.0,0.0,0.0,0.0,0.0,0.0,0.0,0.0,0.0,0.0,0.0,0.0,0.0,0.0,0.0,0.0,0.0,0.0,0.0,0.0,0.0,0.0,0.0,0.0,0.0,0.0,0.0,0.0,0.0,0.0,0.0,0.0,0.0,0.0,0.0,0.0,0.0,0.0,0.0,0.0,0.0,0.1617,0.1465,0.1263,0.1061,0.0758,0.0404,-0.0706,-0.1713,-0.2669,-0.3979,0.0,0.0,0.0,0.0,0.0,0.0,0.0,0.0,0.0,0.0,0.0,0.0,0.0,0.0,0.0,0.0,0.0,0.0,0.0,2.3959,2.4396,2.442,2.424,2.3866,2.3995,2.403,2.3847,2.3866,2.3875,2.3875,2.4066,2.3974,2.353,2.3064,2.2635,2.2299,2.1785,2.1256,2.0764,2.0446,2.0431,2.0486,1.7644,1.6351,1.6257,0.0,0.0,0.0,0.0,0.0,0.0,0.0,0.0,0.0,0.0,0.0,0.0,0.0,0.0,0.0,0.0,0.0,0.0,0.0,0.0,0.0,0.0,0.0,0.0,0.0,0.0,0.0,0.0,0.0,0.0,0.0,0.0,0.0,0.0,0.0,0.0,0.0,0.0,0.0,0.0,0.0,0.9723,0.9183,0.0,0.0,0.0,0.0,0.0,0.0,0.0,0.0,0.0,0.0,0.0,0.0,0.0,0.1619,0.1623,0.1619,0.1617,0.1617,0.1617,0.1566,0.1566,0.1516,0.1212,0.0758,0.0555,0.0,-0.1865,-0.2972,0.0,0.0,0.0,0.0,0.0,0.0,0.0,0.0,0.0,0.0,0.0,0.0,0.0,0.0,0.0,0.0,0.0,0.0,0.0,0.0,0.0,2.4969,2.4862,2.4886,2.485,2.4767,2.4553,2.4493,2.4397,2.4264,2.4253,2.4184,2.3976,2.3762,2.3569,2.3444,2.2829,2.2452,2.2317,2.2049,2.192,2.1779,2.037,1.9262,1.8536,1.7963,0.0,0.0,0.0,0.0,0.0,0.0,0.0,0.0,0.0,0.0,0.0,0.0,0.0,0.0,0.0,0.0,0.0,0.0,0.0,0.0,0.0,0.0,0.0,0.0,0.0,0.0,0.0,0.0,0.0,0.0,0.0,0.0,0.0,0.0,0.0,0.0,0.0,0.0,0.0,0.9776,0.9677,0.943,0.9286,0.8783,0.0,0.0,0.0,0.0,0.0,0.0,0.0,0.0,0.0,0.2022,0.187,0.1768,0.1617,0.1617,0.1617,0.1617,0.1617,0.1617,0.1617,0.1617,0.1314,0.0808,0.0808,0.0252,-0.0807,-0.1865,-0.3124,-0.4435,0.0,0.0,0.0,0.0,-0.6692,-0.6589,0.0,0.0,0.0,0.0,0.0,0.0,0.0,0.0,0.0,0.0,0.0,0.0,2.602,2.5881,2.5812,2.5985,2.5904,2.5787,2.5578,2.5451,2.5287,2.5158,2.4909,2.4731,2.4684,2.4552,2.4409,2.4253,2.3806,2.3562,2.3585,2.3231,2.2947,2.2787,2.2525,2.1748,2.0596,2.0062,1.9243,1.8309,0.0,0.0,0.0,0.0,0.0,0.0,0.0,0.0,0.0,0.0,0.0,0.0,0.0,0.0,0.0,0.0,0.0,0.0,0.0,0.0,0.0,0.0,0.0,0.0,0.0,0.0,0.0,0.0,0.0,0.0,0.0,0.0,0.0,0.0,0.0,0.0,0.0,0.9821,0.9821,0.9628,0.948,0.913,0.0,0.0,0.0,0.0,0.0,0.0,0.4475,0.3877,0.3278,0.2526,0.2172,0.1921,0.1718,0.1617,0.1617,0.1617,0.1617,0.1617,0.1617,0.1617,0.1314,0.0808,0.0808,0.0505,-0.0101,-0.116,-0.2319,-0.3478,-0.4331,-0.5085,-0.5792,-0.6392,-0.6489,-0.6437,0.0,0.0,0.0,0.0,0.0,0.0,0.0,0.0,0.0,0.0,0.0,2.6871,2.761,2.7676,2.7577,2.7423,2.7543,2.7577,2.7377,2.7255,2.7154,2.7154,2.6782,2.6461,2.6277,2.5804,2.5252,2.466,2.4624,2.4528,2.4337,2.3731,2.3703,2.4077,2.3316,2.2519,2.1814,2.157,2.133,2.1083,2.0829,0.0,0.0,0.0,0.0,0.0,0.0,0.0,0.0,0.0,0.0,0.0,0.0,0.0,0.0,0.0,0.0,0.0,0.0,0.0,0.0,0.0,0.0,0.0,0.0,0.0,0.0,0.0,0.0,0.0,0.0,0.0,0.0,0.0,0.0,0.0,0.0,0.0,0.0,0.9677,0.9826,0.0,0.0,0.0,0.0,0.7223,0.6877,0.6376,0.5575,0.4277,0.3679,0.3882,0.2676,0.1971,0.1971,0.1718,0.1617,0.1617,0.1617,0.1617,0.1617,0.1617,0.1314,0.0808,0.0808,0.0505,-0.0101,-0.116,-0.1664,-0.1915,-0.3725,-0.4582,-0.4935,-0.5739,-0.6189,-0.6387,0.0,0.0,0.0,0.0,0.0,2.361,2.412,2.5205,2.6208,2.6765,2.7237,2.7782,2.8384,2.856,2.8624,2.8675,2.8739,2.8757,2.8794,2.8551,2.8487,2.8698,2.8078,2.753,2.7108,2.6905,2.6722,2.6492,2.6299,2.6022,2.5662,2.5252,2.4945,2.4707,2.4407,2.3934,2.3313,2.2549,2.2131,2.1921,2.1633,2.1498,0.0,0.0,0.0,0.0,0.0,0.0,0.0,0.0,0.0,0.0,0.0,0.0,0.0,0.0,0.0,0.0,0.0,0.0,0.0,0.0,0.0,0.0,0.0,0.0,0.0,0.0,0.0,0.0,0.0,0.0,0.0,0.0,0.0,0.0,0.0,0.0,0.0,0.992,0.992,0.0,0.948,0.948,0.9278,0.8775,0.8326,0.7726,0.6927,0.6129,0.5131,0.4033,0.3531,0.2877,0.2022,0.1921,0.1768,0.1617,0.1617,0.1617,0.1617,0.1617,0.1415,0.1061,0.0859,0.0606,0.0202,-0.0353,-0.0858,-0.1412,-0.2267,-0.2971,-0.3626,-0.463,-0.5033,-0.5231,0.0,0.0,0.0,0.0,0.0,2.4325,2.4981,2.6079,2.7027,2.7417,2.8084,2.8684,2.9156,2.9515,2.9749,2.9827,2.9858,2.9875,2.9983,2.9676,2.9614,2.9844,2.9192,2.8716,2.8409,2.8344,2.8312,2.8274,2.7999,2.769,2.7371,2.7002,2.6582,2.6077,2.5938,2.5545,2.4897,2.4221,2.3522,2.2889,2.2934,2.2896,2.2698,0.0,0.0,0.0,0.0,0.0,0.0,0.0,0.0,0.0,0.0,0.0,0.0,0.0,0.0,0.0,0.0,0.0,0.0,0.0,0.0,0.0,0.0,0.0,0.0,0.0,0.0,0.0,0.0,0.0,0.0,0.0,0.0,0.0,0.0,1.1819,1.1145,1.0609,1.0314,1.0019,0.9776,0.9731,0.9713,0.9713,0.9365,0.8841,0.8234,0.7468,0.6347,0.4669,0.4311,0.3494,0.2213,0.211,0.1898,0.1633,0.1633,0.1626,0.1617,0.1617,0.1465,0.1212,0.101,0.0707,0.0404,0.0202,-0.0252,-0.0857,-0.1311,-0.1865,-0.2518,-0.3473,-0.4078,-0.4529,0.0,0.0,0.0,0.0,0.0,2.5545,2.6277,2.7209,2.802,2.8554,2.9139,2.9659,2.9981,3.0556,3.0925,3.0925,3.0925,3.0925,3.0955,3.0704,3.0526,3.0526,3.0182,3.0047,3.0211,3.0017,2.9909,2.9813,2.9628,2.9456,2.9328,2.8911,2.8534,2.8225,2.788,2.7252,2.6467,2.6591,2.5647,2.416,2.4836,2.5009,2.4768,0.0,0.0,0.0,0.0,0.0,0.0,0.0,0.0,0.0,0.0,0.0,0.0,0.0,0.0,0.0,0.0,0.0,0.0,0.0,0.0,0.0,0.0,0.0,0.0,0.0,0.0,0.0,0.0,0.0,0.0,0.0,0.0,0.0,1.3655,1.2942,1.2273,1.1683,1.0904,1.0323,1.0027,0.9941,0.9892,0.9892,0.9856,0.9642,0.9328,0.8321,0.7159,0.5943,0.4886,0.3776,0.2611,0.2344,0.2061,0.1716,0.1714,0.1698,0.1618,0.1617,0.1465,0.1212,0.1212,0.0909,0.0404,0.0404,0.0253,-0.0101,-0.0857,-0.131,-0.1663,-0.2468,-0.3423,-0.4479,0.0,0.0,0.0,2.2069,2.3988,2.5486,2.6274,2.7404,2.83,2.8683,2.9515,3.0133,3.0329,3.1116,3.1593,3.1492,3.1492,3.1593,3.1836,3.1637,3.1478,3.1377,3.1347,3.1159,3.0719,3.0645,3.0616,3.0601,3.0437,3.0241,2.9952,2.9586,2.9167,2.8698,2.8502,2.8082,2.7479,2.7406,2.696,2.622,2.5908,2.575,2.5679,0.0,0.0,0.0,0.0,0.0,0.0,0.0,0.0,0.0,0.0,0.0,0.0,0.0,0.0,0.0,0.0,0.0,0.0,0.0,0.0,0.0,0.0,0.0,0.0,0.0,0.0,0.0,0.0,0.0,0.0,0.0,1.6871,1.6015,1.5003,1.4244,1.3329,1.2024,1.1821,1.1366,1.0327,1.034,1.0341,1.0139,0.9928,0.9746,0.9642,0.8954,0.7842,0.6318,0.5732,0.4623,0.2931,0.2825,0.2551,0.2063,0.2036,0.1863,0.1649,0.1627,0.1566,0.1465,0.1263,0.101,0.0657,0.0505,0.0253,0.0,-0.0252,-0.0353,-0.0555,-0.1361,-0.2317,-0.3373,0.0,0.0,0.0,2.2134,2.4133,2.5695,2.6411,2.7617,2.8541,2.8876,2.9872,3.063,3.0852,3.1877,3.2547,3.2449,3.2449,3.2547,3.2742,3.259,3.2465,3.2449,3.2571,3.2473,3.2084,3.2124,3.2096,3.1942,3.1886,3.1702,3.1446,3.1201,3.0866,3.0438,3.0214,2.9759,2.9157,2.9042,2.8598,2.7933,2.7454,2.7014,2.664,2.6549,2.6513,2.6393,2.6102,2.5421,2.4606,2.4243,0.0,0.0,0.0,0.0,0.0,0.0,0.0,0.0,0.0,0.0,0.0,0.0,0.0,0.0,0.0,0.0,0.0,0.0,0.0,0.0,0.0,0.0,0.0,0.0,1.7628,1.7203,1.6511,1.547,1.4309,1.2899,1.2604,1.2035,1.0877,1.0741,1.0643,1.0489,1.0294,1.0121,1.0014,0.9686,0.8716,0.7101,0.6506,0.5372,0.3647,0.3212,0.2821,0.237,0.2345,0.2211,0.2023,0.2002,0.1883,0.1768,0.1617,0.1314,0.096,0.0808,0.0505,0.0,0.0,0.0,0.0,0.0,-0.1613,-0.2266,0.0,0.0,0.0,2.2264,2.4385,2.5963,2.6561,2.7762,2.8716,2.9067,3.0103,3.0999,3.1391,3.2625,3.345,3.3529,3.3529,3.3529,3.3529,3.3424,3.3424,3.3555,3.3668,3.3771,3.3797,3.3924,3.3841,3.3588,3.3588,3.3537,3.3375,3.3261,3.3066,3.2815,3.2419,3.1832,3.1144,3.0999,3.0391,2.9462,2.9303,2.8552,2.7545,2.7938,2.7768,2.7348,2.7487,2.6969,2.6091,2.5557,0.0,0.0,0.0,0.0,0.0,0.0,0.0,0.0,0.0,0.0,0.0,0.0,0.0,0.0,0.0,0.0,0.0,0.0,0.0,0.0,0.0,0.0,0.0,0.0,1.8194,1.8121,1.7967,1.6773,1.5399,1.4193,1.3397,1.2565,1.1695,1.1257,1.1001,1.1001,1.0879,1.0692,1.0417,0.0,0.0,0.0,0.0,0.6056,0.4509,0.3682,0.3051,0.2681,0.2681,0.2581,0.2497,0.2491,0.2312,0.2021,0.2021,0.1718,0.1263,0.1263,0.0909,0.0354,0.0101,0.0,-0.0101,-0.0807,-0.1059,-0.116,0.0,0.0,0.0,2.2031,2.4181,2.5765,2.6377,2.7696,2.8716,2.9067,2.9886,3.0733,3.1564,3.2407,3.314,3.3617,3.3658,3.3658,3.3658,3.3745,3.3813,3.3822,3.3949,3.4159,3.4423,3.4448,3.456,3.4781,3.4781,3.471,3.4574,3.443,3.4284,3.4112,3.3492,3.3024,3.264,3.2071,3.1607,3.1188,3.0911,2.9662,2.8064,2.8164,2.8138,2.8065,2.8001,2.7874,2.7672,2.7214,2.6431,2.565,2.5346,0.0,0.0,0.0,0.0,0.0,0.0,0.0,0.0,0.0,0.0,0.0,0.0,0.0,0.0,0.0,0.0,0.0,0.0,0.0,0.0,1.8816,1.8633,1.8565,1.881,1.843,1.7536,1.5783,1.4773,1.3838,1.28,1.2149,1.1679,1.1461,1.1437,1.1295,1.0966,1.0604,0.9712,0.8307,0.766,0.6429,0.462,0.4466,0.3947,0.301,0.0,0.0,0.2596,0.2506,0.2413,0.2321,0.2321,0.2019,0.1516,0.1516,0.1061,0.0354,0.0101,0.0,0.0,-0.0151,-0.0252,-0.0353,0.0,0.0,0.0,2.17,2.3756,2.5322,2.5985,2.7271,2.8425,2.9035,2.9964,3.0837,3.1463,3.2571,3.3419,3.3771,3.3924,3.4,3.4,3.4126,3.4226,3.43,3.4497,3.4691,3.4842,3.4913,3.5085,3.5334,3.5425,3.5476,3.5504,3.5419,3.5307,3.5084,3.4677,3.426,3.382,3.336,3.2944,3.2559,3.2074,3.1102,2.9873,2.9686,2.95,2.9313,2.9337,2.9186,2.8897,2.8688,2.8039,2.7261,2.718,2.6449,2.5472,0.0,0.0,0.0,0.0,0.0,0.0,0.0,0.0,0.0,0.0,0.0,0.0,0.0,0.0,2.0602,1.9538,0.0,1.9643,1.9281,1.9216,1.9297,1.9498,1.924,1.8354,1.6572,1.5563,1.4565,1.3454,1.2537,1.191,1.1652,1.1536,1.133,1.1012,1.0706,1.0075,0.9224,0.8246,0.7209,0.6049,0.5521,0.4818,0.3879,0.4278,0.392,0.3036,0.3345,0.3181,0.2623,0.2623,0.2372,0.1969,0.1718,0.1212,0.0556,0.0303,0.0101,0.0,0.0,0.0,-0.005,0.0,0.0,0.0,2.1203,2.318,2.4731,2.5568,2.682,2.7993,2.8908,2.9919,3.0808,3.1333,3.2555,3.3497,3.3899,3.4126,3.4275,3.4325,3.4448,3.457,3.4715,3.4947,3.5135,3.5274,3.5367,3.5571,3.5822,3.5915,3.6071,3.6287,3.6287,3.6165,3.5938,3.5747,3.5317,3.4697,3.4415,3.4036,3.3581,3.3007,3.2407,3.1783,3.1349,3.0877,3.0472,3.0566,3.0328,2.9973,2.9884,2.9445,2.8882,2.8816,2.8143,2.7261,2.6547,2.5788,0.0,0.0,0.0,0.0,0.0,0.0,0.0,0.0,2.2969,2.2706,2.1828,2.1893,2.1724,2.0369,2.0445,2.0545,1.9933,1.9934,2.0041,2.0155,1.974,1.8913,1.7472,1.6156,1.4995,1.3987,1.2788,1.1977,1.178,1.159,1.1363,1.1054,1.0854,1.056,1.0107,0.892,0.8021,0.7449,0.6537,0.5707,0.494,0.5514,0.5106,0.3886,0.4334,0.3998,0.3077,0.2876,0.2674,0.2422,0.1969,0.1465,0.101,0.0808,0.0505,0.0152,0.0051,0.0,0.0,0.0,0.0,0.0,0.0,0.0,2.3988,2.5122,2.6408,2.7604,2.8541,2.9135,2.9966,3.1275,3.1804,3.2637,3.3958,3.4101,3.4226,3.4448,3.4497,3.4618,3.4875,3.4899,3.5234,3.5888,3.591,3.6144,3.6582,3.6582,3.6728,3.6993,3.6993,3.6898,3.6744,3.6443,3.5851,3.5108,3.4794,3.4423,3.4,3.3565,3.3087,3.2594,3.202,3.144,3.089,3.0695,3.0784,3.0996,3.0607,3.0456,3.0304,2.9947,2.9755,2.9394,2.8211,0.0,2.7354,2.5726,2.4818,2.4325,2.4325,2.4196,2.4024,0.0,2.3537,2.3319,2.296,2.326,2.3307,2.2482,2.2166,2.1878,2.144,2.0801,2.0456,2.0762,2.0562,2.0092,1.9465,1.7009,1.5199,1.4657,1.3237,1.2248,1.2046,1.2196,1.2102,1.1637,1.1399,1.0858,0.9971,0.9612,0.8735,0.7231,0.7148,0.6695,0.5748,0.5797,0.5737,0.5571,0.485,0.4406,0.4178,0.3228,0.2775,0.2725,0.2422,0.2118,0.1866,0.1816,0.1363,0.0657,0.0152,0.0,0.0,0.0,0.0,0.0,0.0,0.0,2.2877,2.4194,2.5718,2.701,2.7802,2.8871,2.9872,3.0689,3.1762,3.2718,3.3501,3.3968,3.43,3.4497,3.4643,3.4828,3.4994,3.5188,3.5464,3.5756,3.591,3.6148,3.6482,3.6544,3.6708,3.693,3.7009,3.6972,3.6834,3.6574,3.5994,3.5168,3.4887,3.4301,3.3559,3.3324,3.2953,3.248,3.1691,3.1602,3.1813,3.0904,3.1114,0.0,0.0,3.0834,3.0797,3.0621,3.0317,2.9793,2.8743,2.8386,0.0,2.634,2.5327,2.4743,2.4743,2.454,2.4325,2.411,2.398,2.3931,2.3909,2.3974,2.3812,2.335,2.3223,2.2838,2.1788,2.1503,2.1249,2.0952,2.0668,2.0359,1.9983,1.7818,1.6002,1.5012,1.3859,1.2837,1.1978,1.1977,1.1887,1.1583,1.1217,1.0865,1.0432,0.9908,0.9278,0.8581,0.8146,0.754,0.6739,0.6981,0.6622,0.5801,0.5848,0.5319,0.4379,0.3929,0.3377,0.2775,0.2674,0.2371,0.2017,0.2017,0.1715,0.1211,0.0656,0.0249,0.0,0.0,0.0,0.0,0.0,0.0,2.1199,2.3088,2.4684,2.6008,2.693,2.8266,2.9456,3.0269,3.1592,3.2555,3.2917,3.3475,3.3942,3.4193,3.4431,3.4667,3.4875,3.5258,3.547,3.5554,3.591,3.6152,3.6301,3.6322,3.6447,3.6632,3.6635,3.6553,3.6371,3.6224,3.5688,3.4887,3.464,3.4028,3.323,3.3029,3.268,3.2228,3.1335,3.1495,3.2069,3.0898,3.1315,0.0,0.0,3.1307,3.1384,3.136,3.0973,3.0381,2.9563,2.8927,2.8215,2.6905,2.5935,2.5189,2.5031,2.4828,2.4625,2.4454,2.4418,2.4515,2.4577,2.4571,2.4493,2.4233,2.4212,2.3772,2.2609,2.2247,2.1928,2.1318,2.0865,2.0514,2.0241,1.8796,1.7183,1.5721,1.4325,1.3114,1.2116,1.1887,1.1728,1.1529,1.1169,1.091,1.0806,1.0216,0.9875,0.9727,0.913,0.851,0.7897,0.8109,0.761,0.6511,0.6737,0.6029,0.473,0.4479,0.3979,0.3228,0.3026,0.2674,0.232,0.232,0.2111,0.1751,0.1352,0.0792,0.0194,0.0,0.0,0.0,0.0,0.0,1.8766,2.1862,2.3235,2.4421,2.5941,2.6909,2.8239,3.0254,3.1057,3.1677,3.2281,3.2516,3.2868,3.3391,3.3636,3.3899,3.43,3.4778,3.5155,3.5402,3.6002,3.6301,3.6301,3.6037,3.602,3.6211,3.5895,3.561,3.5352,3.5329,3.4901,3.4109,3.3919,3.3649,3.3361,3.2949,3.2528,3.2028,3.1291,3.1111,3.1151,3.0479,0.0,3.2855,3.2034,3.203,3.2309,3.2205,3.2036,0.0,3.1099,2.9884,2.8521,2.7695,2.6835,2.5988,2.5359,2.52,2.5115,2.4903,2.5034,2.5137,2.4924,2.5336,2.5698,2.5483,2.5141,2.4777,2.4461,2.312,2.2072,2.208,2.1369,2.0771,2.0522,1.9913,1.8808,0.0,1.4491,1.2925,1.268,1.2108,1.1728,1.1529,1.1515,1.1261,1.0811,1.0806,1.0507,0.9969,0.9969,0.9763,0.9427,0.9003,0.8714,0.8565,0.7343,0.6331,0.5536,0.473,0.4379,0.4279,0.3531,0.318,0.318,0.318,0.2794,0.2257,0.2257,0.1648,0.0714,0.0,0.0,0.0,0.0,0.0,0.0,1.8994,2.1442,2.347,2.4457,2.6224,0.0,0.0,0.0,0.0,0.0,3.1877,3.2336,3.2841,3.3188,3.3517,3.3873,3.448,3.4866,3.5071,3.5492,3.57,3.57,3.5611,3.5549,3.5532,3.5328,3.5191,3.5081,3.4736,3.4227,3.3604,3.305,3.236,3.1635,3.1377,3.0984,3.0555,3.0313,3.0516,3.0856,0.0,0.0,3.1742,3.1349,3.1564,3.2073,3.2401,3.2336,3.2,3.1384,3.0063,2.8688,2.8227,2.708,2.5926,2.5559,2.5327,2.52,2.5115,2.539,2.5725,2.5962,2.6291,2.6568,2.6689,2.629,2.5703,2.4903,2.3719,2.2728,2.2173,2.1428,2.0873,2.0771,2.0101,0.0,0.0,0.0,0.0,1.277,1.2027,1.159,1.152,1.1383,1.122,1.1051,1.0904,1.0703,1.0511,1.0167,0.9954,0.9813,0.9305,0.8862,0.846,0.8055,0.7332,0.6381,0.6129,0.5379,0.4379,0.413,0.3681,0.318,0.318,0.3044,0.2791,0.2416,0.2043,0.1635,0.0,0.0,0.0,0.0,0.0,0.0,0.0,0.0,0.0,0.0,0.0,0.0,0.0,0.0,0.0,0.0,0.0,3.1622,3.2089,3.2532,3.2953,3.3398,3.4084,3.4529,3.4667,3.5155,3.5385,3.5402,3.5247,3.5091,3.4904,3.4593,3.4333,3.4119,3.3691,3.3198,3.2676,3.2043,3.129,3.0494,3.0313,2.9917,2.9435,2.9435,2.9624,0.0,2.9255,2.9596,3.0427,3.0937,3.1459,3.2021,3.2616,3.261,3.2228,3.1482,3.0444,2.9367,2.8518,2.7447,2.6456,2.5937,2.5675,2.5549,2.5464,2.5883,2.6396,2.6695,2.7024,2.7264,2.7295,2.7023,2.6486,2.5596,2.4559,2.3569,2.2761,2.192,2.1224,2.0917,2.0354,1.9752,0.0,0.0,0.0,1.3522,1.2436,1.175,1.1551,1.1318,1.1194,1.1194,1.1047,1.0949,1.0949,1.0609,1.0314,1.0117,0.9579,0.9133,0.8684,0.8482,0.8081,0.7478,0.703,0.6279,0.5381,0.4981,0.4331,0.3629,0.3606,0.3407,0.3051,0.2705,0.2467,0.2198,0.0,0.0,0.0,0.0,0.0,0.0,0.0,0.0,0.0,0.0,0.0,0.0,0.0,0.0,0.0,0.0,0.0,0.0,3.119,3.164,3.215,3.2788,3.3491,3.396,3.4184,3.4887,3.5237,3.5247,3.4864,3.4536,3.4268,3.3704,3.3102,3.2504,3.2259,3.1866,3.1349,3.0881,3.0359,2.9827,2.9701,2.9265,2.8693,2.8739,2.8546,2.8254,2.8072,2.8346,2.91,3.0867,3.1786,3.2263,3.2821,3.2846,3.2475,3.1529,3.1046,3.0431,2.8648,2.7971,2.7528,2.6467,2.6229,2.6146,2.5948,2.6487,2.7004,2.7004,2.7543,2.7904,2.7441,2.7357,2.7156,2.664,2.5645,2.4639,2.384,2.2811,2.1827,2.1019,0.0,0.0,0.0,0.0,0.0,1.4987,0.0,1.2224,1.1683,1.1389,1.1194,1.1194,1.1194,1.1194,1.1194,1.1194,1.0953,1.0413,0.992,0.9529,0.9187,0.8684,0.8581,0.8726,0.7478,0.7033,0.7138,0.6087,0.5233,0.4472,0.4343,0.3828,0.3137,0.3027,0.2784,0.2379,0.0,0.0,0.0,0.0,0.0,0.0,0.0,0.0,0.0,0.0,0.0,0.0,0.0,0.0,0.0,0.0,0.0,0.0,3.0328,3.0345,3.063,3.1466,3.186,3.2247,3.2633,3.2934,3.3145,3.3255,3.3029,3.2928,3.2895,3.2379,3.1903,3.1489,3.1463,3.0837,2.9771,2.94,2.863,2.7703,2.7664,2.7378,2.7077,2.7782,2.8006,2.7941,2.7973,2.8385,2.9087,3.0445,3.1833,3.2961,3.2804,3.2561,3.2164,3.1653,3.0671,2.96,2.8819,2.8115,2.7389,2.6674,2.6467,2.6373,2.6188,2.6681,2.7238,2.7238,2.7943,2.8524,2.816,2.7961,2.7715,2.7347,2.6129,2.4943,2.4088,2.2911,2.1827,2.1019,2.0845,2.0596,2.009,1.923,0.0,0.0,1.4473,1.2786,1.2446,1.1629,1.1194,1.1194,1.1194,1.1194,1.1194,1.1194,1.1047,1.0708,1.056,1.0117,0.948,0.9377,0.9126,0.8775,0.8425,0.7978,0.7481,0.6986,0.6334,0.552,0.4638,0.4166,0.3896,0.3258,0.2922,0.2739,0.0,0.0,0.0,0.0,0.0,0.0,0.0,0.0,0.0,0.0,0.0,0.0,0.0,0.0,0.0,0.0,0.0,0.0,0.0,2.9024,2.9355,3.0179,3.0601,3.091,3.1099,3.1386,3.147,3.1368,3.1225,3.114,3.1113,3.0631,3.014,2.9641,2.9546,2.8906,2.7912,2.7637,2.6953,0.0,0.0,2.5683,2.5451,2.6171,2.6643,2.6962,2.7216,2.7983,2.9038,3.0072,3.1341,3.2453,3.2245,3.2005,3.1713,3.1097,3.0292,2.9496,2.8764,2.8139,2.7534,2.6891,2.6633,2.6467,2.6146,2.656,2.7064,2.7272,2.7916,2.846,2.8409,2.829,2.8102,2.782,2.6897,2.5877,2.507,2.3741,2.2518,0.0,2.1173,0.0,2.0424,1.9954,1.929,0.0,1.5808,1.4076,1.3596,1.2592,1.1922,1.1736,1.1492,1.134,1.1194,1.1194,1.1096,1.0949,1.0855,1.056,1.0117,0.9776,0.9525,0.9324,0.0,0.8627,0.8283,0.8031,0.7394,0.6536,0.5739,0.5013,0.4262,0.3626,0.3171,0.2873,0.0,0.0,0.0,0.0,0.0,0.0,0.0,0.0,0.0,0.0,1.9948,2.1072,0.0,0.0,0.0,0.0,0.0,0.0,0.0,0.0,0.0,2.8621,2.9163,2.9383,2.9293,2.9708,2.9786,2.9487,2.9242,2.9072,2.8976,2.8379,2.7811,2.7209,2.6909,2.6396,2.5701,2.5503,2.5026,2.4446,2.4303,2.4108,2.3993,0.0,0.0,2.5908,2.6444,2.757,2.8925,2.9622,3.0527,3.1429,3.1392,3.1355,3.1169,3.0216,2.9922,2.9613,2.8526,2.807,2.7771,2.7097,2.6757,2.6467,2.6021,2.6278,2.6736,2.714,2.7609,2.8076,2.8315,2.8398,2.8395,2.8139,2.7715,2.7098,2.6244,2.4767,2.3443,2.2627,2.1573,2.0805,2.0496,2.0416,2.0039,1.9239,1.738,1.5879,1.4949,1.3842,1.3028,1.2462,1.1975,1.1585,1.1194,1.1194,1.1194,1.1194,1.0949,1.085,1.0806,1.0068,0.9826,0.9969,0.927,0.9076,0.9236,0.8977,0.8381,0.7543,0.7117,0.6043,0.4645,0.4236,0.3628,0.3053,0.0,0.0,0.0,0.0,0.0,0.0,0.0,0.0,0.0,0.0,1.8294,2.007,0.0,0.0,0.0,0.0,0.0,0.0,0.0,0.0,0.0,0.0,2.5915,2.6154,2.6582,2.6876,2.7122,2.7328,2.6485,2.6143,2.6232,2.5182,2.446,2.4082,2.413,2.3616,2.2737,2.2428,2.2275,2.2242,2.2211,2.2589,2.3252,0.0,0.0,0.0,2.7488,2.816,2.8457,2.8889,2.9885,3.097,3.0796,3.0658,3.0393,2.9896,2.9406,2.8922,2.8538,2.8203,2.78,2.7278,2.6816,2.6456,2.6188,2.6363,2.6606,2.6682,2.7391,2.8023,2.8065,2.8449,2.871,2.8653,2.8233,2.7515,2.6474,2.5022,2.3651,0.0,2.1573,2.0901,2.0837,2.0567,0.0,0.0,1.9339,1.7978,1.6021,1.4752,1.3644,1.2684,1.2538,1.2106,1.1194,1.1194,1.1194,1.1194,1.1145,1.0998,1.0801,1.0659,1.0364,0.9969,0.9871,0.0,0.9529,0.9232,0.898,0.8616,0.7638,0.6839,0.6207,0.5447,0.4561,0.3715,0.0,0.0,0.0,0.0,0.0,0.0,0.0,1.4394,1.52,1.5424,1.6502,1.8024,2.003,2.0555,2.1111,0.0,0.0,0.0,0.0,0.0,0.0,0.0,0.0,0.0,2.4185,2.4258,2.4199,2.3996,0.0,2.2805,2.2867,2.2083,2.1582,2.1312,2.1292,2.0791,2.0023,1.983,1.9781,1.9778,2.035,2.0819,0.0,0.0,0.0,0.0,0.0,2.8035,2.8267,2.8573,2.9028,2.9498,2.9626,2.9678,2.9613,2.9328,2.8949,2.8578,2.8271,2.7869,2.74,2.694,2.658,2.6302,2.6104,2.6123,2.6321,2.653,2.6944,2.7413,2.7903,2.8222,2.8462,2.876,2.8477,2.8045,2.7505,2.5606,2.4146,2.3601,2.1971,2.0925,2.0925,2.0766,2.0591,2.0408,1.9993,1.8999,1.7318,1.5742,1.4513,1.374,1.3065,1.249,1.2014,1.1482,1.1194,1.1194,1.1194,1.1145,1.0998,1.085,1.0659,1.0413,1.0117,0.992,0.9772,0.9529,0.9275,0.8977,0.8316,0.7583,0.6834,0.6317,0.5581,0.483,0.0,0.0,0.0,0.0,0.0,0.0,1.2446,1.3601,1.4519,1.4657,1.5099,1.6178,1.8309,1.9092,1.9803,0.0,0.0,0.0,0.0,0.0,0.0,0.0,0.0,0.0,0.0,0.0,0.0,2.1108,2.0265,0.0,0.0,0.0,0.0,0.0,1.847,1.8172,1.7774,1.7725,1.7735,0.0,0.0,1.9283,0.0,0.0,0.0,0.0,0.0,2.7551,2.7886,2.8299,2.8299,2.8179,2.8526,2.8776,2.8934,2.8724,2.8538,2.8271,2.7921,2.7452,2.6981,2.6599,2.6343,2.6104,2.5948,2.5895,2.6005,2.6387,2.6519,2.6813,2.7555,2.786,2.8122,2.8538,2.8552,2.8488,2.8395,2.6186,2.4531,2.4492,2.2358,0.0,2.0925,2.0925,0.0,2.0527,2.0189,1.9479,1.8375,1.6833,1.5714,1.508,1.3962,1.3162,1.2678,1.1917,1.1385,1.1194,1.1194,1.1194,1.1194,1.0998,1.0855,1.0806,1.0364,1.0117,0.9965,0.9731,0.9429,0.9092,0.8811,0.8147,0.7316,0.718,0.6602,0.5941,0.0,0.0,0.0,0.0,0.0,0.0,1.1683,1.2791,1.3607,1.3655,1.4663,1.5596,1.6094,1.7037,1.8119,0.0,0.0,0.0,0.0,0.0,0.0,0.0,0.0,0.0,0.0,0.0,0.0,2.0235,1.8672,0.0,0.0,0.0,0.0,0.0,0.0,1.5966,1.6387,1.6117,0.0,0.0,0.0,0.0,0.0,0.0,0.0,0.0,0.0,2.6794,2.6816,2.7886,2.8111,2.7921,2.7962,2.8243,2.851,2.8287,2.8111,2.7881,2.7603,2.7062,2.6569,2.6528,2.6207,2.5937,2.5895,2.5895,2.5917,2.5961,2.6321,2.6617,2.6704,2.7424,2.8012,2.8056,0.0,2.8664,2.8441,2.631,2.47,2.4531,0.0,0.0,2.0925,2.0925,2.0909,2.0877,2.0331,1.9629,1.8705,1.8175,1.7414,1.6199,1.5741,1.4597,1.2727,1.2635,1.2106,1.1194,1.1194,1.1194,1.1194,1.1145,1.1047,1.0801,1.0752,1.0462,0.0,0.9833,0.9504,0.908,0.8864,0.8499,0.8113,0.8065,0.7489,0.6691,0.0,0.0,0.0,0.0,0.0,0.0,1.134,1.2068,1.2603,1.2603,1.3329,1.41,1.4813,1.5274,1.6092,1.7543,0.0,0.0,0.0,0.0,0.0,0.0,0.0,0.0,0.0,0.0,1.847,1.8227,1.6863,0.0,0.0,0.0,0.0,0.0,0.0,1.4781,1.5004,1.4865,0.0,0.0,0.0,0.0,0.0,0.0,0.0,0.0,0.0,0.0,2.6487,2.7429,2.7644,2.7534,2.78,2.7909,2.7898,2.799,2.7736,2.7452,2.7208,2.6757,2.6302,2.6177,2.6021,2.5895,2.5895,2.5895,2.5895,2.5895,2.6059,2.6278,2.653,2.69,2.7336,0.0,0.0,0.0,2.862,2.7132,2.5664,2.4798,2.3185,2.181,0.0,0.0,2.0837,2.0615,2.0371,1.9943,1.92,1.8717,1.8103,1.7428,1.6671,1.5792,1.4841,1.3547,1.2737,1.2349,1.1727,1.1541,1.1683,1.1487,1.1389,1.1243,1.0949,1.0654,0.0,1.0009,0.9677,0.9495,0.9163,0.8889,0.86,0.86,0.8292,0.7893,0.0,0.0,0.0,0.0,0.0,1.1194,1.1194,1.1639,1.198,1.198,1.2467,1.3098,1.3865,1.3962,1.4394,1.5588,1.6889,0.0,0.0,0.0,0.0,0.0,0.0,0.0,0.0,0.0,1.6944,1.6625,1.5573,1.4953,0.0,0.0,1.3851,1.3948,0.0,0.0,0.0,0.0,0.0,0.0,0.0,0.0,0.0,0.0,0.0,0.0,0.0,0.0,0.0,0.0,0.0,2.7062,2.7464,2.7534,0.0,2.7708,2.7452,2.7074,2.6891,2.6479,2.6074,2.5948,2.5895,2.5895,2.5895,2.5895,2.5895,2.5895,2.5895,2.6005,2.6354,2.6486,2.6802,0.0,0.0,2.8111,2.8495,2.7531,2.6444,2.5509,0.0,2.285,2.1459,2.0915,2.0512,2.0257,2.0241,2.0033,1.9499,1.9064,1.8681,1.8239,1.7463,1.6749,1.619,1.4752,1.3698,1.3071,1.2403,1.2024,1.198,1.1785,1.1683,1.159,1.1194,1.0949,0.0,1.0136,0.9862,0.976,0.9375,0.9154,0.8999,0.8999,0.8867,0.8696,0.0,0.0,0.0,0.0,0.0,1.1194,1.1194,1.1639,1.198,1.198,1.2467,1.2856,1.3098,1.3098,1.3249,1.3491,1.4956,0.0,0.0,0.0,0.0,0.0,0.0,0.0,0.0,0.0,1.6246,1.5732,1.4968,1.4379,1.3888,1.3377,1.2956,1.2729,0.0,0.0,0.0,0.0,0.0,0.0,0.0,0.0,0.0,0.0,0.0,0.0,0.0,0.0,0.0,0.0,0.0,0.0,0.0,2.7044,2.7226,0.0,2.7208,2.685,2.6644,2.6271,2.5895,2.5895,2.5895,2.5895,2.5895,2.5895,2.5895,2.5895,2.5895,2.5895,2.5906,2.631,2.6584,2.6595,2.738,0.0,2.8002,2.7285,2.6778,0.0,2.5402,2.3932,2.25,2.0882,1.9925,1.9917,1.9917,0.0,1.9439,1.9376,1.913,1.859,1.8262,1.7466,1.619,1.619,1.5134,1.3119,1.3071,1.2689,1.198,1.198,1.1834,1.1585,1.1585,1.1292,0.0,1.0373,1.0019,0.9747,0.9411,0.9305,0.9305,0.9305,0.913,0.8911,0.0,0.0,0.0,0.0,0.0,0.0,1.1194,1.1639,1.198,1.198,1.2467,1.2813,1.291,1.291,1.291,1.3007,1.4238,0.0,0.0,0.0,0.0,0.0,0.0,0.0,0.0,1.5337,1.5203,1.5025,1.4409,1.3933,1.3614,1.3104,1.2866,1.2771,1.2676,1.2815,0.0,0.0,0.0,0.0,0.0,0.0,1.8095,0.0,0.0,0.0,0.0,0.0,0.0,0.0,0.0,0.0,0.0,0.0,0.0,2.688,2.6891,2.6891,2.6809,2.6437,2.6115,2.6115,2.5979,2.5895,2.5895,2.5895,2.5895,2.5895,2.5895,2.5895,2.5895,2.6026,2.6245,2.653,2.6835,0.0,0.0,0.0,0.0,2.5926,2.4202,2.2739,0.0,0.0,2.016,1.9598,1.9574,1.9376,1.9018,1.9002,1.8909,1.8761,1.8605,1.8319,1.7768,1.6897,1.6129,1.5473,1.4034,1.3366,1.3281,1.2608,1.2224,1.2127,1.1932,1.1647,1.1302,1.0922,1.0581,1.0293,0.9932,0.9646,0.9519,0.9519,0.9345,0.913,0.0,0.0,0.0,0.0,0.0,0.0,1.1047,1.1487,1.1883,1.198,1.237,1.2716,1.2813,1.2813,1.2813,1.2813,1.3522,0.0,0.0,0.0,0.0,0.0,0.0,0.0,1.4256,1.4256,1.4256,1.4256,1.3913,1.3673,1.3474,1.2905,1.271,1.2813,1.2467,1.2516,0.0,0.0,0.0,0.0,0.0,0.0,1.7777,0.0,0.0,0.0,0.0,0.0,0.0,0.0,0.0,0.0,0.0,0.0,0.0,0.0,2.6603,2.6768,2.6644,2.6365,2.6074,2.6074,2.599,2.5895,2.5895,2.5895,2.5895,2.5895,2.5895,2.5895,2.5895,2.5895,2.6005,2.631,2.6464,2.6682,0.0,2.7206,2.6994,2.6135,2.4401,0.0,0.0,2.1272,2.0273,1.9552,1.931,1.9066,1.8797,1.8781,1.8781,1.8781,1.8781,1.8697,1.8481,1.7707,1.7091,1.6588,1.5289,1.4376,1.3859,1.3232,1.2754,1.237,1.2224,1.1951,0.0,1.1265,1.0954,1.0741,1.0382,1.0168,1.0038,1.0038,0.982,0.9519,0.0,0.0,0.0,0.0,0.0,0.0,0.0,1.1247,1.1688,1.1932,1.2224,1.2467,1.2759,1.2813,1.2813,1.2813,1.2813,0.0,0.0,0.0,0.0,0.0,0.0,0.0,1.3443,1.3443,1.3443,1.3443,1.3443,1.3394,1.3346,1.2662,1.2467,1.2667,1.1932,1.1883,0.0,0.0,0.0,0.0,1.5758,1.6897,0.0,0.0,0.0,0.0,0.0,0.0,0.0,0.0,0.0,0.0,0.0,0.0,0.0,0.0,0.0,0.0,0.0,2.6074,2.5906,2.5906,2.5895,2.5895,2.5895,2.5895,0.0,2.5895,2.5895,2.5895,2.5895,2.5895,2.5895,2.5895,2.6278,2.653,2.653,2.6944,2.7129,2.694,2.5687,0.0,2.3547,2.1797,2.0466,1.982,1.9234,1.892,1.8874,1.8827,1.8827,1.8781,1.8781,1.8697,1.8527,1.8527,1.7916,1.673,1.6636,1.5676,1.3998,1.395,1.3377,0.0,1.2452,1.2171,1.1606,1.1472,1.1247,1.0989,1.077,1.0727,1.0684,1.0684,1.0424,1.0038,0.0,0.0,0.0,0.0,0.0,0.0,0.0,0.0,0.0,0.0,1.2127,1.2419,1.2467,1.2667,1.2813,0.0,0.0,0.0,0.0,0.0,0.0,0.0,0.0,0.0,1.2958,1.2958,1.2861,1.2662,1.2662,1.2467,1.2024,1.1878,1.1731,1.159,1.1585,1.1883,0.0,0.0,0.0,0.0,1.5188,1.6224,0.0,0.0,0.0,0.0,2.0147,2.0898,0.0,0.0,0.0,0.0,0.0,0.0,0.0,0.0,2.5895,2.6063,2.599,0.0,2.6115,2.6115,2.6021,2.5895,0.0,2.5895,2.5895,0.0,0.0,0.0,2.5895,2.5895,2.5895,2.5895,2.5994,2.607,2.607,2.6157,2.6192,2.616,2.5391,2.4611,2.3985,2.2872,2.1943,2.1248,2.0583,1.9994,1.9666,1.9317,1.9004,1.8827,1.8781,1.8789,1.8743,1.8574,1.8241,1.7753,1.6958,1.5961,1.4813,1.419,1.3474,1.2705,1.3037,1.272,1.2021,1.2265,1.1849,1.0999,1.0937,1.0824,1.0684,1.0684,1.0641,1.0467,0.0,0.0,0.0,0.0,0.0,0.0,0.0,0.0,0.0,0.0,1.198,1.2273,1.237,1.2613,1.2813,0.0,0.0,0.0,0.0,0.0,0.0,0.0,0.0,1.2565,1.2419,1.2419,1.237,1.2224,1.2224,1.2078,1.178,1.1639,1.1536,1.1389,1.1541,1.1829,1.2224,1.2516,0.0,1.2953,1.4854,0.0,0.0,0.0,0.0,0.0,1.9379,2.0056,0.0,2.2085,2.2833,2.3584,0.0,0.0,0.0,0.0,2.5812,2.5895,2.5895,2.599,2.6063,2.6063,2.599,2.5895,2.5895,0.0,0.0,0.0,0.0,0.0,0.0,2.5895,2.5895,2.5895,2.5895,2.5895,2.5895,2.5895,2.5895,2.5895,2.5591,2.5115,0.0,2.379,2.2999,2.2217,2.1596,2.0934,2.0257,1.9903,1.9426,1.8787,1.8635,1.8615,1.8781,1.8697,1.852,1.8288,1.7621,1.677,1.5764,1.5059,1.4341,1.3619,1.3682,1.3185,1.2406,1.262,1.2074,1.1138,1.1138,1.1089,1.0992,1.0992,1.0911,1.0781,0.0,0.0,0.0,0.0,0.0,0.0,0.0,0.0,0.0,0.0,0.0,0.0,0.0,0.0,0.0,0.0,0.0,0.0,0.0,0.0,0.0,0.0,1.2419,1.2322,1.2127,1.2078,1.2073,1.2073,1.2024,1.198,1.1932,1.1683,1.1541,1.1541,1.1541,1.1688,1.1932,1.2175,1.2467,1.2856,1.4478,0.0,0.0,0.0,0.0,0.0,0.0,0.0,0.0,2.1516,2.2173,2.2658,2.4498,0.0,0.0,0.0,0.0,0.0,2.5895,2.5895,2.5895,2.5895,2.5895,2.5895,2.5895,0.0,0.0,0.0,0.0,0.0,0.0,2.5895,2.5895,2.5895,2.5895,2.5895,2.5895,2.5895,2.5895,2.5895,2.5895,0.0,2.5126,2.4627,2.3963,2.3129,2.2604,2.1915,2.098,2.0568,1.992,1.8871,1.8491,1.8457,1.8706,1.8669,1.8539,1.8317,1.8126,1.7465,1.6434,1.5932,1.5251,1.4503,0.0,0.0,1.2865,1.2911,1.2383,1.1478,1.1478,1.1392,1.1305,1.1305,1.1181,1.1051,0.0,0.0,0.0,0.0,0.0,0.0,0.0,0.0,0.0,0.0,0.0,0.0,0.0,0.0,0.0,0.0,0.0,0.0,0.0,0.0,0.0,1.2419,1.2419,1.2467,1.2662,1.2467,1.2322,1.2322,1.2127,1.1883,1.1639,1.1389,1.1243,1.1243,1.1243,1.1389,1.1683,1.1731,1.2029,1.2516,1.342,0.0,0.0,0.0,0.0,0.0,0.0,0.0,0.0,2.1526,2.2094,2.235,2.409,0.0,0.0,0.0,0.0,0.0,2.5895,2.5895,2.5895,2.5895,2.5895,2.5895,2.5895,2.5895,0.0,0.0,0.0,0.0,0.0,2.5895,2.5895,2.5895,2.5895,2.5895,2.5895,2.5895,2.5895,2.5895,0.0,2.5853,2.577,2.5506,2.52,2.484,2.4241,2.3414,2.2421,2.1336,2.034,1.9565,1.879,1.8311,1.8209,1.8026,1.7806,1.7549,1.7549,1.6869,1.5746,1.5659,1.5093,1.4211,0.0,1.4268,1.3561,1.3966,1.3374,1.2235,1.2235,1.186,1.1305,1.1305,1.1267,1.1219,0.0,0.0,0.0,0.0,0.0,0.0,0.0,0.0,0.0,0.0,0.0,0.0,0.0,0.0,0.0,0.0,0.0,0.0,0.0,0.0,1.2667,1.2419,1.2419,1.237,1.237,1.2273,1.2127,1.198,1.1834,1.1639,1.1389,1.0949,1.0855,1.1002,1.085,1.0998,1.1389,1.1541,1.1829,1.2273,0.0,0.0,0.0,0.0,0.0,0.0,0.0,0.0,0.0,0.0,2.1961,2.2306,2.4122,0.0,0.0,0.0,0.0,0.0,2.5895,2.5895,2.599,2.6354,2.6437,2.6437,2.6437,2.6704,2.694,0.0,0.0,0.0,0.0,2.6704,2.6816,2.6467,2.6437,2.6313,2.5937,2.5895,2.5895,0.0,0.0,2.5895,2.5895,2.5822,2.5686,2.5422,2.5115,2.4543,2.3541,2.2836,2.1782,2.0343,1.9573,1.8828,1.8048,1.7641,1.7483,1.7597,1.7473,1.7115,1.658,1.614,1.5661,1.5246,0.0,1.4731,1.4078,1.4326,1.3802,1.2881,1.2534,1.2198,1.186,1.1435,1.1305,1.1305,0.0,0.0,0.0,0.0,0.0,0.0,0.0,0.0,0.0,0.0,0.0,0.0,0.0,0.0,0.0,0.0,0.0,0.0,0.0,1.2548,1.271,1.2516,1.2467,1.2419,1.2175,1.2127,1.2024,1.1883,1.178,1.1487,1.11,1.0708,1.0609,1.0801,1.0605,1.0752,1.1194,1.134,1.1585,1.1975,0.0,0.0,0.0,0.0,0.0,0.0,0.0,0.0,0.0,0.0,0.0,0.0,0.0,0.0,0.0,2.5433,2.5644,2.5853,2.6063,2.6146,2.6271,2.6962,2.7003,2.6933,2.7085,2.7458,2.7799,0.0,0.0,0.0,2.7249,2.7551,2.7689,2.7196,2.7015,2.6727,2.6199,2.5979,2.5895,2.5895,2.5895,2.5895,2.5895,2.5895,2.5853,2.5696,2.5686,2.5295,2.4481,2.4035,2.2909,2.0976,2.0283,1.9272,1.7921,1.7475,1.7408,1.7696,1.7447,1.7317,1.7224,1.6533,1.6199,1.6057,1.5617,1.5131,1.4657,1.4692,1.4314,1.3646,1.313,1.2747,1.2406,1.186,1.1521,1.1397,0.0,0.0,0.0,0.0,0.0,0.0,0.0,0.0,0.0,0.0,0.0,0.0,0.0,0.0,0.0,0.0,0.0,0.0,0.0,1.2741,1.2813,1.2764,1.2764,1.2764,1.2759,1.2521,1.2467,1.271,1.2224,1.159,1.085,1.0801,1.0801,1.0801,1.0806,1.0949,1.1194,1.0949,1.1145,1.1634,1.1731,0.0,0.0,0.0,0.0,0.0,0.0,0.0,0.0,0.0,0.0,0.0,0.0,0.0,2.4946,2.5158,2.5422,2.5812,2.6603,2.6809,2.6962,2.7568,2.7307,2.7044,2.762,2.777,0.0,2.7799,0.0,0.0,0.0,2.8063,2.8011,2.777,2.7278,2.6891,2.6809,0.0,2.5895,2.5895,2.5895,2.5895,2.5895,2.5895,2.5895,2.5895,2.5895,2.5657,2.5158,2.4354,2.3063,2.1229,2.0414,1.9277,1.7742,1.7668,1.7563,1.7433,1.722,1.7007,1.6727,1.649,1.6144,1.5729,1.5514,1.5389,1.534,1.5533,1.5193,1.4608,1.4566,1.376,1.2662,1.2619,1.2203,1.1656,0.0,0.0,0.0,0.0,0.0,0.0,0.0,0.0,0.0,0.0,0.0,0.0,0.0,0.0,0.0,0.0,0.0,0.0,0.0,1.2542,1.2675,1.2575,1.271,1.2813,1.2813,1.271,1.2619,1.2565,1.2175,1.197,1.196,1.1336,1.1287,1.1717,1.1091,1.0949,1.1194,1.1096,1.1243,1.1585,1.1585,1.2549,0.0,0.0,0.0,0.0,0.0,0.0,0.0,0.0,2.1472,2.2006,2.3667,2.4529,2.4903,2.4988,2.5295,2.577,2.6467,2.6757,2.7126,2.8195,2.8235,0.0,0.0,2.8752,2.904,2.904,2.904,0.0,0.0,2.891,2.8542,2.8609,2.8303,2.7805,2.7015,2.6685,2.6354,2.5948,2.5895,2.5895,2.5895,2.5895,2.5895,2.5895,2.5895,2.5819,2.5633,2.531,2.4408,2.2849,2.1781,2.0504,1.9002,1.8126,1.77,1.7757,1.7432,1.7221,1.7106,1.673,1.6484,1.6278,1.5782,1.5582,1.5575,1.565,1.5567,1.5276,1.4859,1.4223,1.3499,1.3372,1.3245,1.3124,0.0,0.0,0.0,0.0,0.0,0.0,0.0,0.0,0.0,0.0,0.0,0.0,0.0,0.0,0.0,0.0,0.0,0.0,1.2133,1.24,1.2552,1.249,1.2607,1.271,1.2813,1.2813,1.271,1.2516,1.2414,1.2408,1.2446,1.2014,1.1965,1.2301,1.1336,1.1096,1.1292,1.0949,1.0998,1.134,1.134,1.2306,0.0,0.0,0.0,0.0,0.0,0.0,0.0,0.0,2.115,2.1961,2.3299,2.4229,2.4775,2.4946,2.5211,2.5675,2.664,2.7021,2.7482,2.8803,0.0,0.0,2.9131,2.9456,2.9792,2.9792,2.9946,3.0062,3.0011,0.0,2.9392,2.9406,2.9145,2.8633,2.7805,2.7319,2.6921,2.6467,2.6146,2.599,2.599,2.5948,2.5895,2.5895,2.5895,2.5895,2.5895,2.5753,2.5054,2.3649,2.2462,2.1173,1.9646,1.8507,1.7951,1.8,1.7716,1.7554,1.7465,1.7098,1.6902,1.6812,1.6237,1.6023,1.6023,1.6023,1.5982,1.5899,1.5401,1.4894,1.4426,1.4294,1.4174,1.4132,0.0,0.0,0.0,0.0,0.0,0.0,0.0,0.0,1.2387,1.2387,1.2387,0.0,0.0,0.0,0.0,0.0,0.0,0.0,1.251,1.2367,1.243,1.268,1.2501,1.2516,1.2813,1.2813,1.2813,1.2813,1.2985,1.2737,1.2029,1.2786,1.284,1.237,1.1585,1.1389,1.1536,1.0462,1.0314,1.0806,1.0801,1.2198,1.4268,0.0,0.0,0.0,0.0,0.0,0.0,0.0,2.0475,2.1828,2.258,2.356,2.4583,2.5031,2.52,2.5558,2.7313,2.7799,2.8131,2.9456,2.9792,0.0,2.9792,2.9792,2.9792,2.9792,3.0292,3.0508,2.9908,3.0279,0.0,3.0152,2.9535,2.9172,2.938,2.8303,2.7522,2.751,2.6757,2.6199,2.6199,2.6032,2.5895,2.5895,2.5895,2.5895,2.5895,2.5437,2.4581,2.3234,2.219,2.0877,1.9341,1.8714,1.8273,1.8,1.8,1.791,1.77,1.7514,1.7302,1.709,1.6812,1.6689,1.6689,1.6689,1.6607,1.6394,1.6394,1.6015,1.5436,1.5394,1.4977,1.4433,0.0,0.0,0.0,0.0,0.0,0.0,0.0,0.0,1.2387,1.2387,1.2387,0.0,0.0,0.0,0.0,0.0,0.0,0.0,1.2254,1.2247,1.2176,1.2128,1.2151,1.2224,1.2516,1.271,1.271,1.2516,1.3098,1.348,1.3624,1.3661,1.3902,1.4238,1.3076,1.2592,1.2592,1.158,1.134,1.1585,1.1047,1.1727,1.3275,0.0,0.0,0.0,0.0,0.0,0.0,0.0,0.0,0.0,2.2262,2.3343,2.4335,2.4454,2.4828,2.5527,2.6905,2.7557,2.8131,2.9456,2.9792,2.9792,0.0,2.9895,0.0,0.0,3.0049,3.0062,3.0011,3.0164,0.0,3.0305,3.0126,2.9883,2.9457,2.9067,2.8661,2.8199,2.7539,2.7074,2.691,2.6426,2.6074,2.5895,2.5895,2.5895,2.5895,2.5437,2.4875,2.4118,2.2906,2.1568,2.0157,1.9411,1.8705,1.8,1.8,1.7951,1.791,1.7708,1.7578,1.7497,1.7131,1.6976,1.6976,1.6976,1.7017,1.7098,1.6935,1.6763,1.6558,1.6394,1.6188,1.6023,0.0,0.0,0.0,0.0,0.0,0.0,0.0,0.0,1.2387,1.2387,1.2387,1.2387,0.0,0.0,0.0,0.0,0.0,0.0,1.2212,1.2087,1.2018,1.1999,1.19,1.2029,1.237,1.2662,1.2807,1.2845,1.3582,1.416,1.4442,1.458,1.4819,1.5064,1.3902,1.3414,1.3366,1.2306,1.2111,1.2408,1.177,1.2403,1.3715,0.0,0.0,0.0,0.0,0.0,0.0,0.0,0.0,0.0,2.1686,2.2799,2.3874,2.4358,2.4818,2.5527,2.6987,2.7597,2.8131,2.9456,2.9792,2.9869,3.0088,3.0126,0.0,0.0,3.0318,3.0279,3.0228,3.0343,0.0,3.0495,3.0533,3.0406,3.0088,2.9806,2.9484,2.9069,2.841,2.7874,2.7458,2.6992,2.655,2.6229,2.6074,2.5944,2.5747,2.5204,2.4683,2.4203,2.2995,2.1786,2.0615,1.9805,1.8984,1.8161,1.8031,1.8,1.8,1.787,1.7821,1.7829,1.7546,1.7424,1.7335,1.7335,1.7343,1.7392,1.7261,1.7221,1.718,1.6935,1.6853,1.6853,0.0,0.0,1.1623,1.1623,0.0,0.0,0.0,0.0,1.2382,1.2387,1.2387,1.2327,0.0,0.0,0.0,0.0,0.0,0.0,0.0,1.1987,1.1911,1.2155,1.1805,1.1834,1.2322,1.2613,1.3044,1.3559,1.4346,1.4736,1.4783,1.5547,1.5642,1.5178,1.4394,1.4046,1.395,1.2872,1.2732,1.3167,1.2829,1.365,1.5057,1.5099,0.0,0.0,0.0,0.0,0.0,0.0,0.0,0.0,2.0979,2.2085,2.327,2.4466,2.4988,2.5558,2.7313,2.781,2.8131,2.9495,2.9869,3.0023,3.0622,3.0457,3.0305,3.0698,0.0,3.0911,3.052,3.0748,3.0986,3.0773,3.0773,3.0849,3.0986,3.0508,3.0114,3.0075,2.938,2.8661,2.8039,2.7701,2.7278,2.6715,2.6351,2.5934,2.5521,2.4814,2.4203,2.3705,2.2723,2.1749,2.0875,2.006,1.9253,1.8434,1.8161,1.8,1.8,1.8,1.8,1.8,1.8,1.791,1.774,1.774,1.7627,1.7432,1.7432,1.7432,1.7392,1.7221,1.7131,1.7098,0.0,0.0,1.1623,1.1623,0.0,0.0,0.0,0.0,0.0,0.0,0.0,0.0,0.0,0.0,0.0,0.0,0.0,0.0,0.0,1.1959,1.1746,1.1636,1.1831,1.1878,1.1785,1.2467,1.3244,1.4148,1.4496,1.4879,1.5248,1.6062,1.6258,1.594,1.5547,1.5302,1.5057,1.38,1.3565,1.395,1.3071,1.3559,1.4831,1.501,1.5588,0.0,0.0,0.0,0.0,0.0,0.0,0.0,2.0718,2.1739,2.2799,2.4013,2.4658,2.5359,2.7098,2.7678,2.8171,2.9677,3.0279,3.0622,3.1061,3.1086,3.1048,3.1161,3.1099,3.0986,3.0911,3.1048,3.1235,3.1161,3.1286,3.1373,3.1235,3.111,3.0973,3.0785,3.0165,2.96,2.9303,2.8359,2.762,2.7319,2.6273,2.561,2.551,2.4473,2.3804,2.3694,2.3102,2.2344,2.1346,2.0653,1.9805,1.8843,1.8282,1.8,1.8,1.8,1.8,1.8,1.8,1.8,1.7951,1.7951,1.7919,1.7878,1.7878,1.7749,1.7619,1.7578,1.7465,1.731,0.0,0.0,0.0,0.0,0.0,0.0,0.0,0.0,0.0,0.0,0.0,0.0,0.0,0.0,0.0,0.0,0.0,0.0,0.0,0.0,1.1581,1.1373,1.1747,1.1932,1.178,1.2467,1.3431,1.4675,1.4819,1.5248,1.5961,1.6393,1.6447,1.6177,1.6028,1.5879,1.5588,1.4819,1.4669,1.4968,1.428,1.4526,1.5261,1.5397,1.5683,1.6021,1.6305,0.0,0.0,0.0,0.0,0.0,0.0,0.0,2.2094,2.3212,2.4176,2.5189,2.6505,2.7313,2.8171,2.9703,3.0394,3.0773,3.1099,3.1323,3.1471,3.1582,3.1434,3.1299,3.1299,3.136,3.1434,3.1434,3.1522,3.1559,3.1471,3.1434,3.136,3.1174,3.0848,3.0419,2.9909,2.9238,2.8569,2.7886,2.6846,2.599,2.5356,2.436,2.37,2.3383,2.3132,2.2542,2.1634,2.1308,2.0615,1.9587,1.8944,1.8393,1.8,1.8,1.8,1.8,1.8,1.8,1.8,1.8,1.8,1.8,1.8,1.7951,1.7829,1.774,1.7619,1.7546,0.0,0.0,0.0,0.0,0.0,0.0,0.0,0.0,0.0,0.0,0.0,0.0,0.0,0.0,0.0,0.0,0.0,0.0,0.0,0.0,0.0,1.1203,1.1683,1.1932,1.198,1.2467,1.3528,1.5099,1.5099,1.5676,1.6723,1.6723,1.6588,1.6319,1.6319,1.617,1.5879,1.5635,1.5635,1.5784,1.5588,1.5635,1.5784,1.5784,1.5784,1.5832,1.6028,1.6177,1.6312,1.7012,0.0,0.0,0.0,0.0,2.1239,2.2448,2.3681,2.4893,2.5935,2.6999,2.8211,2.9625,3.0267,3.0647,3.0986,3.1373,3.172,3.1853,3.178,3.172,3.172,3.172,3.172,3.172,3.172,3.1683,3.1646,3.1646,3.1596,3.1397,3.136,3.1035,3.0305,3.0114,2.9524,2.8314,2.7419,2.6395,2.5087,2.4287,2.3605,2.3086,2.3001,2.2665,2.1949,2.1852,2.1346,2.043,1.9657,1.8825,1.8,1.8,1.8,1.8,1.8,1.8,1.8,1.8,1.8,1.8,1.8,1.8,1.8,1.7821,1.774,1.774,0.0,0.0,0.0,0.0,0.0,0.0,0.0,0.0,0.0,0.0,1.1859,1.1541,0.0,0.0,0.0,0.0,0.0,0.0,1.1521,0.0,0.0,1.1198,1.1487,1.178,1.198,1.2322,1.3329,1.5099,1.5099,1.5812,1.7192,1.7192,1.7106,1.6885,1.6885,1.6602,1.613,1.5879,1.5784,1.5784,1.5588,1.5635,1.5784,1.5784,1.5784,1.5784,1.5832,1.5981,1.6272,1.6838,1.72,0.0,0.0,0.0,2.0158,2.2217,2.3183,2.3996,2.5715,2.7121,2.8291,2.9263,2.9793,3.0317,3.1073,3.1582,3.1853,3.189,3.2036,3.2109,3.2109,3.2109,3.2109,3.2109,3.2109,3.2073,3.189,3.1853,3.178,3.1596,3.1572,3.1447,3.1161,3.0608,2.9707,2.8392,2.7119,2.5925,2.4797,2.3888,2.3364,2.3261,2.3075,2.2852,2.259,2.208,2.1652,2.1308,1.9962,1.8825,1.8,1.8,1.8,1.8,1.8,1.8,1.8,1.8,1.8,1.8,1.8,1.8,1.8,1.7951,1.7951,1.7959,0.0,0.0,0.0,0.0,0.0,0.0,0.0,0.0,0.0,0.0,0.0,1.1435,0.0,0.0,0.0,1.1048,1.1039,1.1106,1.13,1.1246,1.1194,1.1194,1.1443,1.1639,1.1785,1.2175,1.3232,1.4854,1.5051,1.5859,1.7279,1.7279,1.72,1.6979,1.6979,1.6791,1.6407,1.6305,1.6251,1.6251,1.6157,1.6069,1.6028,1.6028,1.5927,1.5784,1.5784,1.5879,1.6028,1.6407,1.669,1.7099,1.8164,0.0,0.0,0.0,2.1873,2.311,2.522,2.6375,2.7275,2.8576,2.9355,2.9999,3.0595,3.1272,3.1743,3.189,3.2073,3.2218,3.2218,3.2218,3.2218,3.2218,3.2218,3.2182,3.2073,3.2073,3.2,3.178,3.178,3.1633,3.131,3.1035,3.0288,2.89,2.7716,2.6472,2.5219,2.4084,2.3409,2.3298,2.3113,2.2889,2.2703,2.2542,2.2155,2.1499,2.0352,1.9381,1.8563,1.8152,1.8,1.8,1.8,1.8,1.8,1.8,1.8,1.8,1.8,1.8,1.8,1.8,1.8,1.8,0.0,0.0,0.0,0.0,0.0,0.0,0.0,0.0,0.0,0.0,0.0,0.0,0.0,0.0,0.0,0.0,1.0737,1.0771,1.1061,1.11,1.1145,1.1194,1.1389,1.1541,1.1585,1.198,1.3039,1.4704,1.4949,1.5859,1.738,1.738,1.734,1.7167,1.7113,1.6925,1.6683,1.6683,1.6683,1.6588,1.6588,1.6494,1.6312,1.6224,1.6076,1.5879,1.5825,1.5784,1.5832,1.6123,1.6312,1.6636,1.7441,1.8157,0.0,0.0,0.0,2.2453,2.4315,2.5245,2.6012,2.7486,2.8354,2.901,2.9744,3.0455,3.1086,3.1562,3.1879,3.21,3.2214,3.2241,3.2277,3.2314,3.235,3.2314,3.2277,3.2241,3.2169,3.2,3.1963,3.1853,3.1495,3.1397,3.0747,2.9196,2.8286,2.7091,2.5476,2.4409,2.3728,2.3372,2.3187,2.2964,2.2777,2.2927,2.2505,2.1576,2.0692,1.9844,1.9033,1.8313,1.8,1.8,1.8,1.8,1.8,1.8,1.8,1.8,1.8,1.8,1.8,1.8,1.8,1.8,0.0,0.0,0.0,0.0,0.0,0.0,0.0,0.0,0.0,0.0,0.0,0.0,1.113,1.0902,1.0686,1.0475,1.0426,1.052,1.0801,1.0801,1.0949,1.1194,1.1194,0.0,1.1585,1.1634,1.2646,1.4704,1.4895,1.59,1.7675,1.7675,1.7675,1.7628,1.738,1.7153,1.6979,1.6979,1.6831,1.6588,1.6588,1.6581,1.6541,1.6312,1.6177,1.617,1.5879,1.5784,1.5832,1.6123,1.6224,1.6407,1.7394,1.7505,1.756,0.0,0.0,0.0,2.2818,2.3745,2.4769,2.5854,2.6315,2.6898,2.8426,2.897,2.9497,3.0793,3.1341,3.1787,3.2285,3.2381,3.2453,3.2632,3.2668,3.2596,3.2417,3.2381,3.2322,3.2205,3.2182,3.2109,3.189,3.172,3.0774,2.8888,2.8497,2.7379,2.5147,2.4767,2.4324,2.3593,2.3372,2.3187,2.3001,2.3001,2.258,2.1766,2.0885,2.0079,1.9262,1.8393,1.8,1.8,1.8,1.8,1.8,1.8,1.8,1.8,1.8,1.8,1.8,1.8,1.8,1.8,0.0,0.0,0.0,0.0,0.0,0.0,0.0,0.0,0.0,0.0,0.0,0.0,0.0,1.0946,1.0752,1.0654,1.0659,1.0708,1.0801,1.0949,1.11,1.1194,1.1194,1.1243,1.134,1.1487,1.2592,1.4657,1.4895,1.5994,1.7947,1.7947,1.7861,1.7675,1.7426,1.7239,1.72,1.72,1.7153,1.7052,1.7052,1.6965,1.6831,1.6744,1.6508,1.6177,1.6076,1.5927,1.5832,1.5927,1.5927,1.6035,1.6543,1.6808,1.7169,1.831,1.9258,2.0245,2.1508,2.2399,2.3437,2.5216,2.5911,2.6581,2.835,2.8884,2.9336,3.051,3.0863,3.1103,3.153,3.2157,3.2632,3.2704,3.2704,3.2668,3.2596,3.2596,3.2561,3.2538,3.2395,3.2264,3.2109,3.1554,3.0703,2.9513,2.8531,2.7347,2.5781,2.5063,2.436,2.3629,2.3409,2.3187,2.3001,2.3001,2.2767,2.2354,2.1538,2.0692,1.9854,1.9033,1.8402,1.8,1.8,1.8,1.8,1.8,1.8,1.8,1.8,1.8,1.8,1.8,1.8,1.8,0.0,0.0,0.0,0.0,0.0,1.4286,1.4286,1.4046,1.3715,1.3238,0.0,0.0,0.0,0.0,1.0904,1.0806,1.0703,1.0703,1.0801,1.0949,1.1096,1.1194,1.1194,1.1194,1.1194,1.1634,1.2791,1.4603,1.5134,1.6372,1.8234,1.8234,1.8141,1.7962,1.7574,1.738,1.7279,1.7279,1.7279,1.7279,1.7279,1.7239,1.7113,1.7026,1.6791,1.6461,1.6272,1.6076,1.5927,1.5832,1.5784,1.5826,1.6033,1.638,1.6853,1.7492,1.8103,1.8857,2.0071,2.1223,2.2476,2.419,2.501,2.5852,2.7419,2.7751,2.8103,2.9348,2.9834,3.0195,3.0732,3.164,3.2354,3.2562,3.2757,3.2895,3.281,3.281,3.2775,3.2704,3.2525,3.2359,3.2264,3.1496,3.069,2.9969,2.8782,0.0,2.6186,2.5452,2.4647,2.3629,2.3409,2.3187,2.3001,2.3001,2.2927,2.2777,2.2004,2.127,2.0586,1.9578,1.8834,1.8322,1.8121,1.8,1.8,1.8,1.8,1.8,1.8,1.8,1.8,1.8,1.8,1.8,0.0,0.0,1.5784,1.5784,1.5784,1.5784,1.5784,1.5213,1.4736,1.4688,0.0,0.0,0.0,0.0,0.0,1.0801,1.056,1.0511,1.0801,1.0806,1.0949,1.1194,1.1194,1.1194,1.1194,1.198,1.313,1.4603,1.571,1.6998,1.8527,1.8527,1.8527,1.8481,1.7962,1.7574,1.7326,1.7333,1.7279,1.7279,1.7279,1.7279,1.7279,1.7066,1.7026,1.6932,1.6414,1.6224,1.617,1.5927,1.5825,1.5812,1.6012,1.6286,1.6569,1.666,1.7286,1.8078,0.0,0.0,0.0,2.2616,2.3519,2.4484,2.5483,2.5493,2.5739,2.7258,2.8239,2.9079,2.9873,3.0799,3.162,3.2224,3.2841,3.3213,3.2995,3.3009,3.2952,3.2739,3.2525,3.2417,3.2417,3.1527,3.0734,3.0129,2.923,2.7941,2.622,2.5953,2.5182,2.3677,2.3409,2.3224,2.3001,2.3001,2.3001,2.3001,2.2193,2.1728,2.1461,1.9991,1.9231,1.8962,1.8313,1.804,1.8,1.8,1.8,1.8,1.8,1.8,1.8,1.8,1.8,1.8,0.0,1.5784,1.5784,1.5784,1.5784,1.5784,1.5784,1.5635,1.5309,0.0,0.0,0.0,1.3275,1.236,1.1487,1.0855,1.0708,1.0703,1.0801,1.0998,1.1096,1.1194,1.1194,1.1194,1.1194,1.2111,1.3355,1.4877,1.5981,1.7264,1.8697,1.8697,1.8658,1.8481,1.8342,1.8141,1.7846,1.7473,1.7279,1.7279,1.7279,1.7279,1.7279,1.7239,1.7113,1.6979,1.6838,1.6643,1.6494,1.64,1.6114,1.5807,1.5881,1.5812,1.5845,1.6515,1.7009,0.0,1.8006,0.0,0.0,0.0,0.0,0.0,2.5503,2.5415,2.5253,2.66,2.7071,2.7382,2.7902,2.8892,2.976,3.0253,3.163,3.2617,3.2568,3.2961,3.3206,3.3122,3.2824,3.2632,3.2632,3.1373,3.0491,0.0,2.9147,2.7967,2.696,2.5697,2.4659,2.3849,2.3482,2.3261,2.3224,2.3075,2.3001,2.3001,2.2617,2.2193,2.169,2.1001,2.0157,1.9192,1.8873,1.8442,1.8,1.8,1.8,1.8,1.8,1.8,1.8,1.8,1.8,1.8,1.5981,1.5879,1.5784,1.5784,1.5784,1.5784,1.5784,1.5784,1.5642,0.0,0.0,0.0,1.3613,1.2985,1.2311,1.1536,1.1487,1.134,1.0998,1.1096,1.1194,1.1194,1.1194,1.134,1.1688,1.278,1.407,1.5501,1.6648,1.7792,1.8781,1.8781,1.8743,1.8612,1.8527,1.8427,1.8234,1.78,1.7567,1.7481,1.7481,1.738,1.7333,1.7426,1.734,1.7106,1.7026,1.6885,1.673,1.6636,1.6209,1.577,1.5836,1.5707,1.5643,1.6353,1.673,0.0,0.0,0.0,0.0,2.1234,0.0,0.0,2.4357,2.4307,2.4192,2.5252,2.5847,2.6249,2.6569,2.7483,2.8291,2.8505,2.9781,3.1124,3.226,3.2652,3.2891,3.3129,3.281,3.2561,3.2561,3.1258,3.0405,3.0405,2.9086,2.7848,2.6812,2.5522,2.4515,2.3787,2.3567,2.3335,2.3187,2.3075,2.3001,2.3001,2.2889,2.258,2.2155,2.1652,2.0808,1.9648,1.9311,1.8714,1.8,1.8,1.8,1.8,1.8,1.8,1.8,1.8,1.8,1.8,0.0,1.6028,1.5825,1.5879,1.5832,1.5832,1.5832,1.5832,1.5784,0.0,1.5213,1.4538,1.3709,1.3613,1.3323,1.2608,1.2516,1.2219,1.1487,1.1438,1.1438,1.1438,1.1438,1.178,1.2516,1.3794,1.5038,1.619,1.752,1.8365,1.8781,1.8781,1.8781,1.8781,1.8612,1.8527,1.8527,1.828,1.8001,1.7776,1.7768,1.7621,1.7426,1.7628,1.7527,1.7333,1.7113,1.7073,1.7012,1.6699,1.6211,1.5786,1.5843,1.5819,1.5816,1.627,1.6517,0.0,0.0,0.0,0.0,0.0,2.0634,0.0,2.2564,2.2621,2.266,2.3423,2.4445,2.524,2.5451,2.6317,2.701,2.7043,2.7686,2.9103,3.1666,3.1992,3.2201,3.2785,3.2591,3.2417,3.2417,3.1188,3.0405,3.0405,2.9086,2.765,2.6217,2.5499,2.4659,2.3666,2.3593,2.3409,2.3038,2.3001,2.3001,2.3001,2.3001,2.2927,2.2703,2.2145,2.1346,2.0352,1.9766,1.8984,1.8152,1.8121,1.808,1.8,1.8,1.8,1.8,1.8,1.8,1.8,1.6541,1.6312,1.617,1.64,1.6109,1.5879,1.6076,1.5933,1.5784,1.5784,1.5689,1.5309,1.4538,1.4496,1.4148,1.3372,1.3275,1.3227,1.3076,1.3028,1.3028,1.3028,1.3028,1.313,1.3275,1.4752,1.5751,1.619,1.7667,1.8558,1.8781,1.8781,1.8781,1.8781,1.8743,1.8743,1.8743,1.852,1.8381,1.8342,1.8094,1.7994,1.7947,1.7768,1.7675,1.7581,1.7333,1.7387,1.7453,1.6688,1.6343,1.6177,1.5679,1.5752,1.6079,1.6312,1.6517,0.0,0.0,0.0,0.0,1.9221,1.9733,0.0,2.1476,2.1322,2.1076,2.1562,2.2515,2.3305,2.343,2.4684,2.5779,2.6032,2.6555,2.7613,2.9551,3.0622,3.14,3.1958,3.2258,3.2417,3.2417,3.1188,3.0405,3.0405,2.9013,2.761,2.6411,2.5953,2.5158,2.3897,2.3666,2.3482,2.3224,2.3075,2.3001,2.3001,2.3001,2.2964,2.2927,2.2654,2.2155,2.1451,2.1001,2.0148,1.9024,1.8873,1.8482,1.8,1.8,1.8,1.8,1.8,1.8,1.8,1.6784,1.6595,1.6447,1.6588,1.6393,1.6211,1.6218,1.6076,1.5927,1.5832,1.5784,1.5642,1.5309,1.5261,1.4921,1.4148,1.41,1.395,1.3511,1.3511,1.3511,1.3511,1.3511,1.3709,1.41,1.533,1.6237,1.6763,1.804,1.8697,1.8781,1.8781,1.8781,1.8781,1.8781,1.8781,1.8827,1.9096,1.8966,1.8612,1.8373,1.8234,1.8087,1.8102,1.8009,1.79,1.7753,1.7714,1.7578,1.687,1.6507,1.6294,1.5732,1.5782,1.6128,1.636,1.6517,1.6689,0.0,0.0,1.7876,1.8277,1.8667,0.0,0.0,2.0136,2.025,2.0576,2.1334,2.2027,2.2414,2.3379,2.4264,2.4779,2.5323,2.6087,2.725,2.8565,2.9746,3.0713,3.0903,3.116,3.1759,3.0681,2.9839,2.9517,2.8366,2.7297,2.6445,2.5802,2.4945,2.3787,2.3629,2.3457,2.315,2.3038,2.3001,2.3001,2.3001,2.3001,2.3001,2.2889,2.2467,2.1804,2.1576,2.0653,1.9301,1.9183,1.8714,1.8,1.8,1.8,1.8,1.8,1.8,1.8,1.7066,1.6831,1.6683,1.673,1.6676,1.6541,1.6366,1.6312,1.6218,1.5974,1.5967,1.5967,1.5967,1.5967,1.573,1.5118,1.507,1.4777,1.4094,1.3998,1.3998,1.3944,1.3992,1.434,1.507,1.6008,1.681,1.7466,1.8357,1.8781,1.8781,1.8781,1.8781,1.8827,1.8958,1.9004,1.905,1.9812,1.9766,1.9188,1.9066,1.8697,1.8272,1.8427,1.8381,1.8179,1.8179,1.8001,1.7671,1.7048,1.6727,1.6433,1.5824,1.5873,1.617,1.6319,1.6525,1.6689,1.6689,1.7,1.7363,1.7516,1.7768,1.812,0.0,0.0,0.0,1.9606,2.0178,2.0874,2.1469,2.2065,2.2702,2.3276,0.0,0.0,0.0,2.6241,0.0,2.9323,2.9354,2.9646,3.0749,2.9994,2.9125,2.8343,2.7748,2.7096,2.6355,2.5522,2.4623,2.3677,2.3641,2.342,2.3075,2.3001,2.3001,2.3001,2.3001,2.3001,2.3001,2.3001,2.2654,2.2031,2.1993,2.1145,1.9766,1.9569,1.8984,1.8233,1.8072,1.8,1.8,1.8,1.8,1.8,1.7286,1.7106,1.7019,1.7192,1.6864,1.6683,1.6885,1.669,1.6541,1.6487,1.6487,1.6487,1.6487,1.6487,1.6494,1.64,1.6393,1.6258,1.5933,1.5886,1.5784,1.554,1.5784,1.6069,1.6393,1.7153,1.7667,1.7986,1.855,1.8781,1.8781,1.8781,1.8781,1.8827,1.9492,1.9758,1.9803,2.0583,2.0808,2.0772,2.0727,1.9911,1.8689,1.8574,1.8481,1.8435,1.8435,1.8288,1.7933,0.0,1.7028,1.6819,1.5747,1.5873,1.636,1.617,1.6409,1.6689,1.6689,1.7,1.7321,1.7321,1.7506,1.7683,1.7726,0.0,1.7677,1.7716,0.0,1.9246,1.9571,0.0,0.0,0.0,2.2113,2.2734,2.2925,2.3897,2.5576,2.8252,2.8451,2.8667,2.9461,2.9385,2.8717,2.7299,2.7845,2.7601,2.606,2.5511,2.485,2.3897,2.3677,2.3482,2.3261,2.3075,2.3001,2.3001,2.3001,2.3001,2.3001,2.3001,2.2964,2.2841,2.2665,2.2193,2.1451,2.0508,1.9726,1.9063,1.8313,1.8,1.8,1.8,1.8,1.8,1.7372,1.7239,1.72,1.7286,1.7145,1.7005,1.6979,1.6784,1.6588,1.6588,1.6588,1.6588,1.6588,1.6588,1.6588,1.6588,1.6588,1.6541,1.6447,1.6272,1.6218,1.6258,1.6218,1.6414,1.6831,1.7394,1.7815,1.8087,1.855,1.8781,1.8781,1.8781,1.8781,1.8827,1.9583,1.9894,1.9985,2.1159,2.1392,2.1042,2.1481,2.0988,2.0048,1.9957,1.9691,1.9325,1.9325,1.8874,1.8226,0.0,1.7211,0.0,0.0,0.0,0.0,1.6451,0.0,0.0,0.0,0.0,1.6919,1.6786,1.7111,1.7383,1.7125,1.7291,1.7474,1.7261,0.0,0.0,0.0,0.0,0.0,0.0,2.1076,2.1725,0.0,0.0,2.4104,2.6705,0.0,0.0,2.7965,2.8598,2.8318,2.6777,2.7104,2.6851,2.5606,2.5004,2.4431,2.3934,2.3703,2.3482,2.3298,2.3113,2.3001,2.3001,2.3001,2.3001,2.3001,2.3001,2.3001,2.3001,2.2927,2.2467,2.1766,2.1298,2.0615,1.9736,1.9024,1.8434,1.8,1.8,1.8,1.8,1.8195,1.8056,1.8017,1.8102,1.8102,1.8056,1.7885,1.7692,1.7535,1.7443,1.745,1.7399,1.7304,1.7191,1.7134,1.7134,1.7055,1.6958,1.6918,1.6737,1.669,1.677,1.669,1.6831,1.7301,1.7729,1.8048,1.8272,1.8643,1.8781,1.8781,1.9004,1.9096,1.9134,2.0076,2.0475,2.061,2.1961,2.228,2.1837,2.2413,2.229,2.1624,2.1177,2.0673,2.0167,1.9985,1.9455,1.8732,1.7804,1.735,0.0,1.6495,1.636,1.6435,0.0,0.0,0.0,1.6435,0.0,0.0,0.0,0.0,0.0,0.0,0.0,0.0,1.6983,1.7057,0.0,0.0,0.0,0.0,0.0,0.0,2.0488,0.0,2.2039,2.3216,2.5383,2.5934,0.0,0.0,2.7594,2.7729,2.6332,2.6522,2.626,2.5206,2.455,2.4116,2.3897,2.3641,2.3446,2.3298,2.3113,2.3001,2.3001,2.3001,2.3001,2.3001,2.3001,2.3001,2.3001,2.3001,2.2692,2.2107,2.188,2.1308,2.0508,1.9805,1.9063,1.8313,1.8072,1.8,1.8,2.0096,1.9968,1.9886,2.0051,2.0096,2.0096,2.0096,2.0096,1.9958,1.9625,1.9579,1.9431,1.9074,1.8725,1.8527,1.8527,1.823,1.7947,1.7675,1.7682,1.7535,1.7286,1.7527,1.7768,1.804,1.8334,1.8566,1.8781,1.8781,1.8781,1.8827,1.9538,1.9849,1.994,2.1382,2.2015,2.2104,2.3266,2.3711,2.3711,2.4024,2.3851,2.3232,0.0,2.0997,2.0853,2.0167,0.0,0.0,1.8017,1.7489,0.0,0.0,0.0,0.0,0.0,0.0,0.0,0.0,0.0,0.0,1.617,0.0,0.0,0.0,0.0,1.6664,0.0,0.0,0.0,0.0,0.0,0.0,0.0,0.0,0.0,0.0,2.1046,2.3069,2.457,2.5344,0.0,0.0,2.6388,2.6869,0.0,2.6444,2.6225,2.4885,2.4418,2.4116,2.3897,2.353,2.3298,2.3298,2.3113,2.3001,2.3001,2.3001,2.3001,2.3001,2.3001,2.3001,2.3001,2.3001,2.3001,2.2889,2.2107,2.169,2.1385,2.0508,1.9805,1.9143,1.8313,1.8,1.8,2.1793,2.1882,2.1481,2.0367,2.0187,2.0317,2.0612,2.0655,2.0746,2.0886,2.0881,2.0836,2.0682,2.0591,2.0508,2.0508,2.04,2.0326,2.0231,1.9582,1.9344,1.9652,1.8628,1.8347,1.8996,1.8697,1.8612,1.8781,1.8781,1.8781,1.8827,1.9538,1.9894,1.9985,2.1427,2.2271,2.2633,2.344,2.396,2.4251,0.0,2.411,2.3851,0.0,2.229,2.1704,2.1472,2.1024,0.0,1.9393,1.9016,1.8795,1.7565,1.7212,1.7172,1.673,1.6648,1.6648,0.0,0.0,1.6525,1.617,0.0,0.0,0.0,0.0,0.0,0.0,0.0,0.0,0.0,0.0,0.0,0.0,0.0,0.0,0.0,2.08,2.2527,2.315,2.4437,2.519,0.0,0.0,0.0,0.0,2.5195,0.0,2.4066,2.3861,2.3787,2.3703,2.3446,2.3298,2.3298,2.3113,2.3001,2.3001,2.3001,2.3001,2.3001,2.3001,2.3001,2.3001,2.3001,2.3001,2.2964,2.2729,2.2467,2.2203,2.1385,2.0924,2.0653,1.9766,1.8944,1.8276,2.2794,2.3051,2.2736,2.1445,2.1347,2.1617,2.2068,2.2122,2.2173,2.2322,2.2327,2.2284,2.2144,2.2031,2.1953,2.1953,2.187,2.1791,2.1791,2.1188,2.0982,2.1395,2.0132,1.9678,2.0234,1.9666,1.9471,1.9592,1.9592,1.9592,1.9592,2.0348,2.0656,2.0746,2.2015,2.2818,2.3212,2.3917,2.4433,0.0,0.0,2.4583,0.0,0.0,2.3484,2.2677,0.0,2.1961,2.1354,2.0298,1.986,1.96,1.8417,1.8055,1.7974,1.7538,1.7253,1.7009,1.6796,1.6681,0.0,1.6443,1.6402,0.0,1.6319,0.0,1.6203,0.0,0.0,0.0,0.0,0.0,0.0,0.0,0.0,0.0,0.0,2.0401,2.1809,2.219,2.4021,2.515,2.4876,0.0,0.0,0.0,0.0,0.0,0.0,2.3787,2.3672,2.3494,2.3298,2.3187,2.3187,2.3075,2.3001,2.3001,2.3001,2.3001,2.3001,2.3001,2.3001,2.3001,2.3001,2.3001,2.3001,2.3001,2.2889,2.2665,2.2117,2.1738,2.1405,2.0508,1.9618,1.8807,2.3159,2.3535,2.3746,2.3301,2.3564,2.401,2.4385,2.4443,2.432,2.4011,2.3971,2.383,2.3434,2.314,2.2965,2.2965,2.2664,2.2449,2.2449,2.2449,2.244,2.2422,2.1962,2.1664,2.1683,2.1264,2.1024,2.1024,2.1006,2.0997,2.1042,2.1748,0.0,0.0,2.3091,2.3634,2.3884,2.4605,2.5031,2.5242,2.5517,2.5338,2.4946,2.4903,2.4476,2.3787,2.3115,2.2711,2.2271,2.083,2.0174,1.9811,1.9044,1.8794,1.8776,1.8736,1.8296,1.7732,1.7521,1.6992,1.6591,1.6952,1.6796,0.0,0.0,0.0,1.6394,0.0,0.0,0.0,0.0,0.0,0.0,0.0,0.0,0.0,0.0,0.0,2.0862,2.1695,2.3956,2.5333,2.5049,2.5239,0.0,0.0,0.0,0.0,0.0,2.4121,2.3824,2.3386,2.3189,2.3078,2.3078,2.3078,2.3056,2.3034,2.3034,2.3023,2.3001,2.3001,2.3001,2.3001,2.3001,2.3001,2.3001,2.3001,2.2889,2.2703,2.2703,2.2214,2.1464,2.0557,2.0001,1.9615,2.4374,2.4609,2.4886,2.5095,2.4772,2.469,2.5125,2.5043,2.5011,2.5208,2.5218,2.5208,2.5118,2.4983,2.4975,2.4975,2.487,2.4813,2.4813,2.4261,2.4072,2.4383,2.3167,2.2643,2.2917,2.195,2.1468,2.1468,2.113,2.0997,2.1042,0.0,0.0,0.0,0.0,2.4057,2.4647,2.4988,2.5338,2.5728,2.5644,2.5517,2.5391,0.0,2.4988,2.4733,2.409,2.3667,2.3351,2.2637,2.2151,2.1625,2.0638,2.0099,1.9726,1.9274,1.9027,1.8829,1.8638,1.8479,1.8278,1.8014,1.7893,1.7772,0.0,0.0,0.0,0.0,0.0,0.0,0.0,0.0,0.0,0.0,0.0,0.0,0.0,0.0,2.0466,2.153,2.3472,2.4554,2.4111,2.4465,2.478,0.0,0.0,0.0,2.4447,0.0,2.4314,2.4193,2.4143,2.4104,2.4104,2.4104,2.3919,2.3509,2.3509,2.3351,2.3001,2.3001,2.3001,2.3001,2.3001,2.3001,2.3001,2.3001,2.2964,2.2927,2.2777,2.259,2.2252,2.0895,2.0769,2.1049,2.4985,2.5319,2.5776,2.6195,2.597,2.5748,2.5894,2.5791,2.5785,2.6032,2.6072,2.6072,2.6072,2.6072,2.6072,2.6072,2.5927,2.5868,2.5868,2.5323,2.5169,2.5505,2.443,2.3993,2.4436,2.3484,2.2943,2.2847,2.2621,2.2424,2.2236,0.0,0.0,0.0,0.0,2.4444,2.5031,2.538,2.5644,2.5906,2.577,2.5728,0.0,2.5549,2.5464,2.5338,2.4967,2.4497,2.4039,2.3507,2.3109,2.2621,2.1658,2.1174,2.085,2.0293,1.9913,1.9668,1.9559,1.9313,1.9116,1.9125,1.8856,1.8607,1.8678,1.8118,1.757,0.0,1.7245,1.7049,0.0,0.0,0.0,0.0,0.0,0.0,0.0,0.0,2.0116,2.1074,2.295,2.42,2.4229,2.4568,2.4861,0.0,0.0,0.0,0.0,0.0,2.4814,2.4497,2.4594,2.4594,2.4486,2.4594,2.4342,2.3694,2.3694,2.3433,2.3001,2.3001,2.3001,2.3001,2.3001,2.3001,2.3001,2.3001,2.3001,2.2964,2.2777,2.274,2.274,2.1814,2.1652,2.1738,2.5452,2.592,2.6447,2.6877,2.6948,2.689,2.6688,2.6544,2.6496,2.6496,2.6544,2.6544,2.6496,2.6544,2.6544,2.6496,2.6304,2.6149,2.6149,2.5917,2.5927,2.6149,2.5591,2.5488,2.5866,2.5249,2.484,2.4686,2.4575,2.4357,0.0,0.0,0.0,0.0,0.0,0.0,0.0,2.5728,2.5895,2.5895,2.5895,2.5895,2.5895,2.5895,2.577,2.5654,2.5601,2.5179,2.452,2.3906,2.3532,2.3192,2.2453,2.213,2.1998,2.1504,2.0966,2.0469,2.0372,1.9991,1.9698,2.0196,1.9805,1.9362,1.9726,1.9164,1.8536,1.8536,1.8367,1.8278,1.8687,0.0,0.0,0.0,0.0,0.0,0.0,1.8827,2.0067,2.0782,2.2655,0.0,2.4862,2.5139,2.5395,2.5599,2.5588,0.0,0.0,0.0,2.533,2.4723,2.4889,2.4929,2.4792,2.4929,2.4635,2.3919,2.3864,2.3531,2.3088,2.3023,2.3001,2.3001,2.3001,2.3001,2.3001,2.3001,2.3001,2.2964,2.2815,2.2852,2.2964,2.2815,2.2515,2.2063,2.6882,2.7039,2.7111,2.7204,2.7357,2.7452,2.7394,2.688,2.6496,2.6496,2.6678,2.6774,2.6544,2.6678,2.6726,2.6496,2.6448,2.6448,2.6448,2.64,2.64,2.6448,2.632,2.629,2.6386,2.5896,2.5625,2.5544,2.5057,2.4795,0.0,0.0,0.0,0.0,0.0,0.0,2.577,2.5853,0.0,2.5895,2.5895,2.5895,2.5895,2.5895,2.5895,2.5822,2.5644,2.538,2.5062,2.4935,2.4504,2.4013,2.3846,2.3411,2.2897,2.2393,2.2181,2.1971,2.1411,2.1185,2.1108,2.1041,2.0925,2.0848,2.0886,2.0362,1.9883,1.9883,1.9432,1.9107,1.9186,0.0,0.0,0.0,0.0,0.0,0.0,0.0,0.0,0.0,2.3471,2.4567,2.5111,2.5548,2.5859,2.6066,2.6066,2.6066,2.6066,0.0,2.6022,0.0,2.5945,2.6057,0.0,0.0,2.5691,2.5194,2.462,2.4093,2.3553,2.3187,2.3001,2.3001,2.3001,2.3001,2.3001,2.3001,2.3001,2.3001,2.2964,2.2964,2.3001,2.2964,2.2889,2.274,2.7452,2.7584,2.7668,2.7668,2.7715,2.7809,2.7809,2.7536,2.7289,2.7289,2.7384,2.7421,2.7289,2.7373,2.7431,2.7289,2.7156,2.7071,2.7071,2.6965,2.6918,2.7061,2.6965,2.7003,2.7251,2.694,2.6666,2.6604,0.0,2.5902,2.5443,0.0,0.0,2.5253,0.0,2.5686,0.0,0.0,2.5895,2.5895,2.5895,2.5895,2.5895,2.5895,2.5895,2.5906,2.577,2.5686,2.5549,2.5285,2.4978,2.4671,2.4428,2.4114,2.3759,2.3188,2.3012,2.2868,2.2216,2.2015,2.1953,2.1602,2.1425,2.1359,2.1359,2.1041,2.0722,2.0722,2.0479,2.0196,1.9835,1.9747,0.0,0.0,0.0,0.0,0.0,0.0,2.2317,0.0,0.0,0.0,2.5505,2.5848,2.6115,2.6188,2.6448,2.6448,2.6199,0.0,2.6437,0.0,0.0,0.0,2.6396,0.0,2.6068,2.5337,2.5026,2.4454,2.3684,2.3482,2.3241,2.3001,2.3001,2.3001,2.3001,2.3001,2.3001,2.3001,2.3001,2.3001,2.3001,2.3001,2.3154,2.3259,2.7678,2.7998,2.8222,2.8222,2.8398,2.8538,2.8538,2.8585,2.8445,2.8034,2.8045,2.8045,2.7998,2.8045,2.8045,2.7998,2.7809,2.7678,2.7678,2.7478,2.7478,2.7678,2.7478,2.7563,2.7998,2.7773,2.763,0.0,0.0,0.0,0.0,0.0,0.0,0.0,0.0,0.0,0.0,0.0,2.5895,2.5895,2.5895,2.5895,2.5895,2.5895,2.5895,2.5895,2.5895,2.5895,2.5853,2.5454,2.5327,2.5221,2.4847,2.4678,2.451,2.3902,2.3724,2.3579,2.2958,2.2793,2.266,2.2268,2.2059,2.1883,2.1753,2.1578,2.1432,2.1341,2.1401,2.1288,2.0653,2.0712,0.0,0.0,0.0,0.0,0.0,0.0,2.3473,0.0,0.0,0.0,2.5721,2.6091,2.6271,2.6199,2.6614,2.6685,2.6365,2.6644,2.6685,2.6365,0.0,2.6727,2.6354,0.0,2.6195,2.5409,2.5259,2.477,2.3989,2.3782,2.3514,2.3154,2.3045,2.3001,2.3001,2.3001,2.3001,2.3001,2.3001,2.3001,2.3012,2.3121,2.3394,2.3689,2.7951,2.8538,2.8991,2.8991,2.9715,3.0272,3.0272,3.0486,2.9988,2.8222,2.8196,2.8243,2.8045,2.8243,2.8243,2.8045,2.7998,2.7951,2.7951,2.7951,2.7951,2.7951,2.7951,2.794,2.7998,2.7998,2.7977,0.0,0.0,2.7424,0.0,0.0,0.0,0.0,0.0,0.0,0.0,2.5895,2.5895,2.5895,2.5895,2.5895,2.5895,2.5895,2.5895,2.5895,2.5895,2.5895,2.5895,2.5853,2.5728,2.5549,2.5505,2.5316,2.5041,2.4562,2.4434,2.4328,2.3911,2.3722,2.3631,2.3421,2.333,2.3146,2.2522,2.24,2.2276,2.1814,2.2061,2.2237,2.1814,2.2392,2.2656,0.0,0.0,0.0,0.0,0.0,2.4701,2.4693,0.0,0.0,2.5314,2.6046,2.6479,2.624,2.6479,2.6685,2.6809,2.6685,2.6685,2.6809,2.6891,2.6891,2.6809,2.6685,2.6415,2.608,2.5505,2.5161,2.5051,2.4126,2.3662,2.3596,2.3187,2.3001,2.3001,2.3001,2.3001,2.3001,2.3001,2.3001,2.3056,2.3504,2.3651,2.3776,2.9498,2.9852,3.017,3.017,3.0486,3.0722,0.0,3.0857,3.0621,2.9852,2.9818,2.9863,2.9761,2.9818,2.9863,2.9761,2.9715,2.9715,2.9715,2.9715,2.9715,2.9715,2.9715,2.9532,2.9084,2.9084,2.8863,0.0,0.0,0.0,0.0,0.0,0.0,0.0,0.0,2.6168,2.5895,2.5895,2.5895,2.5948,2.6354,2.6479,2.6561,2.6899,2.7051,2.6969,2.6633,2.6745,2.701,2.6775,2.6302,2.577,2.577,2.5728,2.5558,2.5239,2.5143,2.5036,2.4431,2.4252,2.4136,2.378,2.3676,2.3594,2.3186,2.3104,2.3062,2.2864,2.3087,2.3255,2.3111,2.3355,2.3529,2.3464,0.0,0.0,0.0,0.0,0.0,2.531,0.0,2.5819,2.5633,2.6191,2.6561,2.6437,2.6768,2.6891,2.6727,2.685,2.6933,2.6891,0.0,2.7015,2.6891,2.6685,2.6479,2.6199,2.5834,2.5459,2.5204,2.477,2.4279,2.3684,2.3487,2.3274,2.3023,2.3318,2.3438,2.3471,2.3777,2.3897,2.3919,2.4115,2.4355,2.465,3.0633,3.0946,3.1214,0.0,3.1436,3.1657,3.1657,3.1701,3.1733,3.1733,3.1733,3.1512,3.0935,3.0902,3.0902,3.0902,3.0902,3.0902,3.0902,3.0902,3.0902,3.0902,3.0902,0.0,3.0125,3.0125,2.9909,2.9428,2.9428,0.0,0.0,0.0,0.0,0.0,2.7279,2.6978,2.6721,2.6721,2.6643,2.658,2.7074,2.7278,2.7389,2.773,2.7919,2.7919,2.7441,2.7539,2.7919,2.7649,2.7133,2.6569,2.6385,2.6229,2.6146,2.577,2.5686,2.5568,2.5045,2.4918,2.4832,2.4408,2.4322,2.4249,2.3889,2.3777,2.3777,2.3777,2.3917,2.407,2.423,2.4241,2.4307,2.4647,0.0,0.0,0.0,2.5675,0.0,2.577,2.5979,2.6104,2.6104,2.6479,2.6685,2.6685,2.7026,2.7067,2.6809,2.7056,2.7179,0.0,0.0,0.0,2.7003,2.6839,2.6633,2.6313,2.6104,2.5804,2.5505,2.5281,2.4727,2.3951,2.3951,2.3755,2.3471,2.3809,2.3951,2.3956,2.4344,2.4486,2.4508,2.4639,2.4931,2.5237,3.0902,3.1492,3.1989,3.1989,3.2729,3.3356,3.3356,3.3556,3.367,3.367,3.367,3.2963,3.1113,3.0902,3.0902,3.0902,3.0902,3.0902,3.0902,3.0902,3.0902,0.0,0.0,3.0902,3.0902,3.0902,3.089,3.0857,0.0,0.0,2.9047,0.0,2.8308,3.0082,2.8907,2.8487,2.8692,2.8692,2.8427,2.8051,2.8091,2.8199,2.8347,2.8171,2.8199,2.8386,2.8171,2.8199,2.8386,2.8386,2.8386,2.8227,2.7406,2.7033,2.6768,2.6104,2.5895,2.5895,2.5895,2.5884,2.5843,2.5633,2.5591,2.5377,2.4635,2.4477,2.4477,2.4477,2.4477,2.4626,2.5094,2.5179,2.5179,2.5189,0.0,0.0,0.0,2.5937,0.0,2.6188,2.6437,2.6603,2.6603,2.6768,2.6891,2.6891,0.0,2.719,2.719,0.0,0.0,2.7482,2.7748,0.0,2.7185,2.7185,2.6981,2.6603,2.6313,2.6188,2.6177,2.5516,2.4964,2.4486,2.4486,2.4476,2.4465,2.4476,2.4486,2.4486,2.4486,2.4486,2.4541,2.504,2.5204,2.5281,3.2394,3.2698,3.2957,3.2957,3.3288,3.3598,3.3598,3.367,3.3713,3.3713,3.3713,3.3458,3.2877,3.2673,3.2673,0.0,3.2673,3.2673,0.0,3.2673,3.2673,3.2791,3.2673,3.2457,3.2127,3.214,3.1865,3.1368,0.0,0.0,0.0,3.0411,3.0466,3.085,3.0498,3.0242,3.0097,2.9691,2.9436,2.9321,2.9361,2.9447,2.9524,2.9947,3.0037,2.9883,2.9394,2.9433,2.9716,2.9381,2.951,2.9678,2.9081,2.8438,2.7851,2.7499,2.7487,2.7476,2.694,2.7103,2.7226,2.6467,2.6787,2.7087,2.6315,2.5994,2.5881,2.5881,2.5644,2.574,2.6629,2.6539,2.6467,2.6734,2.7051,0.0,2.7296,0.0,2.7226,2.7649,2.7418,2.7389,2.781,2.8063,0.0,0.0,0.0,0.0,0.0,0.0,0.0,0.0,2.807,0.0,2.7389,2.7267,2.7074,2.6809,2.6727,2.6685,2.6644,2.6116,2.5609,2.5158,2.5037,2.4821,2.4519,2.4865,2.4996,2.5029,2.5327,2.5448,2.5469,2.5611,2.5666,2.5688,3.3197,3.3441,3.3654,3.3654,3.3894,3.4092,3.4092,3.4134,3.423,3.423,3.423,3.423,3.423,3.4021,0.0,3.3713,3.3598,3.3556,3.367,3.3696,3.3738,3.3852,3.3738,3.3513,3.3232,3.3147,0.0,3.2376,3.2202,3.2333,3.2636,3.2103,3.205,3.2394,3.2114,3.1942,3.1817,3.1435,3.1211,3.1102,3.0894,3.0867,3.0969,3.1052,3.1061,3.0949,3.0381,3.047,3.0785,3.0343,3.0419,3.071,3.0368,2.9896,2.9225,2.8438,2.8319,2.8307,2.781,2.7931,2.8051,2.7418,2.773,2.8091,2.7597,2.7313,2.7203,2.7203,2.6999,2.7051,2.7689,2.762,2.7551,2.7822,2.8051,2.8211,2.8211,0.0,2.8155,0.0,0.0,2.8251,2.8636,2.8806,2.8779,0.0,0.0,0.0,0.0,0.0,2.8047,2.891,2.8379,2.795,2.7655,2.7603,2.7441,2.7126,2.7044,2.6962,2.6891,2.652,2.6146,2.5776,2.5612,2.5365,2.5043,2.5327,2.5448,2.548,2.5786,2.5895,2.5895,2.5895,2.5895,2.5895,3.3484,3.3823,3.416,3.416,3.4481,3.4716,3.4716,3.4936,3.5086,3.5086,3.5086,3.5086,3.5086,3.4895,3.4468,3.3839,0.0,0.0,3.381,3.4021,3.416,3.416,3.416,3.416,3.416,3.3937,3.381,3.381,3.3348,3.3602,3.4439,3.3096,3.3194,3.4439,3.3759,3.3547,3.3763,3.3723,3.3488,3.3158,3.2549,3.2439,3.2513,3.1752,3.1564,3.1625,3.1277,3.1325,3.1535,3.1174,3.1174,3.131,3.131,3.1198,3.0697,2.9057,2.8585,2.8585,2.8505,2.8505,2.8545,2.8466,2.8466,2.8505,2.8505,2.8466,2.8466,2.8466,2.8426,2.8426,2.8505,2.8505,2.8466,2.8505,2.8545,2.8545,2.8545,2.8727,2.891,2.8949,0.0,0.0,2.9238,2.9238,2.9328,0.0,0.0,0.0,0.0,0.0,2.8419,2.916,2.8764,2.8351,2.7933,2.8111,2.7966,2.7563,2.7307,2.7115,2.6974,2.6727,2.6479,2.624,2.6199,2.6074,2.5895,2.5895,2.5895,2.5895,2.5895,2.5895,2.5895,2.5895,2.5895,2.5895,0.0,0.0,3.4551,3.4551,3.4812,3.499,3.499,3.5072,3.5086,3.5086,3.5086,3.5086,3.5086,3.5031,3.4949,3.4784,3.4592,3.4551,3.4784,3.4647,3.4647,3.4867,3.4688,3.4647,3.4867,3.4784,3.4784,3.4784,3.4647,3.4729,3.4908,3.4592,3.4716,3.5154,3.4964,3.5007,3.5184,3.47,3.4471,3.4335,3.3742,3.3538,3.3538,3.3351,3.2939,3.2487,3.2412,3.2057,3.1609,3.1485,3.1485,3.1522,3.1522,3.1485,3.1336,3.0583,3.0381,3.0228,2.9588,2.9755,2.9973,2.916,2.916,2.9381,2.9381,2.9277,2.9172,2.9172,2.8755,2.8676,2.9548,2.9406,2.9289,2.9625,2.9973,3.0165,3.0165,2.9896,2.9922,0.0,3.0075,2.9999,3.0508,3.0697,3.0608,0.0,0.0,3.0494,3.0895,3.0024,2.9653,3.0012,2.9496,2.8843,2.8151,2.8179,2.8127,2.8007,2.7644,2.7534,2.7638,2.7097,2.6727,2.6479,2.6271,2.6074,2.5895,2.5895,2.5895,2.5895,2.5895,2.5895,2.5895,2.5895,2.5895,2.5895,3.4551,3.4812,3.5018,3.5018,3.5236,3.5358,3.5358,3.5358,3.5358,3.5358,3.5358,3.5358,3.5358,3.5358,3.5358,3.5358,3.5059,3.4936,3.5086,3.5072,3.5059,3.5236,3.51,3.51,3.5236,3.5154,3.5154,3.5236,3.5236,3.5277,3.5358,3.5358,3.544,3.5562,3.5562,3.5602,3.5696,3.5331,3.5195,3.5141,3.4545,3.4314,3.4287,3.4016,3.3628,3.3241,3.2909,3.2562,3.2216,3.1763,3.1646,3.1743,3.1743,3.1683,3.1572,3.1447,3.1373,3.1136,3.057,3.0697,3.0823,3.0152,3.0152,3.0305,3.0305,3.019,3.0126,3.0126,2.9832,2.9793,3.0406,3.0279,3.0203,3.0457,3.0685,3.0874,3.0949,3.0672,3.0621,3.1086,3.081,3.0735,3.1086,3.1323,3.131,3.106,3.1134,0.0,3.1492,3.1196,3.0934,3.0733,2.9871,2.9145,2.8633,2.8327,2.8259,2.8339,2.7978,2.7857,2.7881,2.7383,2.7003,2.6727,2.6479,2.6229,2.6021,2.5937,2.5895,2.5895,2.5895,2.5895,2.5895,2.5895,2.5895,2.5895,3.484,3.5182,3.544,3.544,3.5602,3.571,3.571,3.571,3.571,3.571,3.571,3.571,3.571,3.571,3.571,3.571,3.5399,3.5195,3.5195,3.5358,3.544,3.544,3.544,3.544,3.544,3.5277,3.5277,3.544,3.544,3.5521,3.571,3.571,3.571,3.571,3.571,3.571,3.571,3.571,3.571,3.5683,3.5127,3.4924,3.487,3.4368,3.4124,3.3937,3.3322,3.3155,3.3067,3.2152,3.1951,3.2085,3.1954,3.1817,3.172,3.189,3.1817,3.1633,3.1397,3.136,3.131,3.1136,3.1099,3.1099,3.1099,3.1099,3.1099,3.1099,3.1099,3.1099,3.1099,3.1099,3.1099,3.1099,3.1099,3.1136,3.131,0.0,3.1136,3.131,3.136,3.136,3.136,3.1522,3.172,3.189,3.1927,3.2036,3.2182,3.2218,3.1936,3.1381,3.0254,2.9484,2.9172,2.8633,2.8419,2.851,2.8299,2.8111,2.7881,2.7615,2.7278,2.6891,2.6685,2.6437,2.6199,2.5979,2.5895,2.5895,2.5895,2.5895,2.5895,2.5895,2.5895,2.5895,3.5548,3.5588,3.5642,3.5642,3.5669,3.571,3.571,3.571,3.571,3.571,3.571,3.571,3.571,3.571,3.571,3.571,3.5642,3.5602,3.5602,3.5642,3.5642,3.5642,3.5642,3.5642,3.5642,3.5642,3.5642,3.5642,3.5642,3.5669,3.571,3.571,3.571,3.571,3.571,3.571,3.571,3.571,3.571,3.571,3.5615,3.5574,3.5574,3.5439,3.5087,3.4639,3.4519,3.4192,3.3677,3.3081,3.2891,3.2833,3.2295,3.2146,3.2109,3.2146,3.2146,3.2036,3.1633,3.1559,3.1572,3.1522,3.1498,3.1498,3.1498,3.1498,3.1498,3.1498,3.1498,3.1498,3.1498,3.1498,3.1498,3.1498,3.1498,3.1535,3.1572,0.0,3.1535,3.1559,3.1559,3.1559,3.1559,3.1743,3.1853,3.189,3.2073,3.2182,3.2218,3.2218,3.2132,3.2059,3.132,3.0431,2.9367,2.9263,2.8961,2.851,2.8299,2.8111,2.7881,2.7615,2.7278,2.6891,2.6685,2.6437,2.6199,2.5979,2.5895,2.5895,2.5895,2.5895,2.5895,2.5895,2.5895,2.5895,3.571,3.571,3.571,3.571,3.571,3.571,3.571,3.571,3.571,3.571,3.571,3.571,3.571,3.571,3.571,3.571,3.571,3.5831,3.623,3.5911,3.571,3.571,3.571,3.571,3.571,3.571,3.571,3.571,3.571,3.571,3.571,3.571,3.571,3.571,3.571,3.571,3.571,3.571,3.571,3.571,3.571,3.571,3.571,3.571,3.5547,3.5222,3.491,3.4612,3.4301,3.3742,3.3322,3.3047,3.2775,3.2477,3.2218,3.2218,3.2109,3.2,3.1817,3.1683,3.1609,3.1609,3.1609,3.1609,3.1609,3.1609,3.1609,3.1609,3.1609,3.1609,3.1609,3.1609,3.1609,3.1609,3.1609,3.1646,3.1743,3.1683,3.1646,3.1743,3.1743,3.1743,3.1743,3.1927,3.2073,3.2073,3.2146,3.2218,3.2218,3.2218,3.2218,3.2218,3.1542,3.0771,2.9909,2.9574,2.9263,2.8961,2.8578,2.8271,2.807,2.7926,2.7644,2.7208,2.6992,2.6798,2.6561,2.6354,2.6188,2.6063,2.6063,2.599,2.5895,2.5895,2.5895,2.5895,3.571,3.5951,3.6097,3.5951,3.6071,3.6137,3.6137,3.6137,3.6137,3.6137,3.6137,3.6137,3.6137,3.6137,3.6137,3.6137,3.6137,3.6375,3.69,3.6415,3.6057,3.5951,3.579,3.571,3.571,3.571,3.571,3.571,3.571,3.571,3.571,3.571,3.571,3.571,3.571,3.571,3.571,3.571,3.571,3.571,3.571,3.571,3.571,3.571,3.571,3.5655,3.5168,3.4992,3.491,3.4314,3.3851,3.3468,3.3183,3.2789,3.2395,3.2259,3.2109,3.1963,3.1963,3.1853,3.1743,3.1743,3.1743,3.1743,3.1743,3.1743,3.1743,3.1743,3.1743,3.1743,3.1743,3.1743,3.1743,3.1743,0.0,3.178,3.1963,3.1853,3.178,3.1963,3.1963,3.1963,3.1963,3.2109,3.2218,3.2218,3.2218,3.2218,3.2218,3.2218,3.2218,3.2218,3.1703,3.1121,3.0507,3.0063,2.9755,2.96,2.9,2.8605,2.8407,2.8247,2.7978,2.7563,2.7348,2.7196,2.7003,2.6839,2.655,2.6271,2.6271,2.6104,2.5895,2.5895,2.5895,2.5895,3.5831,3.6638,3.726,3.6705,3.7081,3.7453,3.7453,3.7453,3.7453,3.7453,3.7453,3.7453,3.7453,3.7453,3.7453,3.7453,3.7453,3.7491,3.7529,3.7491,3.7222,3.6665,3.6031,3.571,3.571,3.571,3.571,3.571,3.571,3.571,3.571,3.571,3.571,3.571,3.571,3.571,3.571,3.571,3.571,3.571,3.571,3.571,3.571,3.571,3.571,3.571,3.5669,3.5642,3.556,3.4924,3.4694,3.4502,3.3441,3.3074,3.2925,3.2368,3.2182,3.2182,3.2182,3.2182,3.2146,3.2146,3.2146,3.2146,3.2146,3.2146,3.2146,3.2146,3.2146,3.2146,3.2146,3.2146,3.2146,3.2146,0.0,0.0,3.2182,3.2182,3.2146,3.2182,3.2182,3.2182,3.2182,3.2182,3.2218,3.2218,3.2218,3.2218,3.2218,3.2218,3.2218,3.2218,3.2132,3.1827,3.1145,3.1071,3.0771,3.0216,2.96,2.9223,2.9003,2.8435,2.807,2.7841,2.7574,2.747,2.7441,2.7226,2.6899,2.6487,2.6487,2.6249,2.5895,2.5895,2.5895,2.5895,3.6911,3.726,3.7529,3.7313,3.7453,3.7606,3.7606,3.7606,3.7606,3.7606,3.7606,3.7606,3.7606,3.7606,3.7606,3.7606,3.7606,3.7772,3.8127,3.781,3.7491,3.7275,3.6652,3.631,3.631,3.631,3.631,3.631,3.6677,3.6872,3.6872,3.6872,3.6872,3.6872,3.6872,3.6872,3.6833,3.6494,3.631,3.627,3.5871,3.571,3.571,3.571,3.571,3.571,3.571,3.571,3.5683,3.5425,3.51,3.4653,3.3865,3.3363,3.2979,3.2395,3.2218,3.2218,3.2218,3.2218,3.2218,3.2218,3.2218,3.2218,3.2218,3.2218,3.2218,3.2218,3.2218,3.2218,3.2218,3.2218,3.2218,3.2218,0.0,3.2218,3.2218,3.2218,3.2218,3.2218,3.2218,3.2218,3.2218,3.2218,3.2218,3.2218,3.2218,3.2218,3.2218,3.2218,3.2218,3.2218,3.2218,3.2096,3.1813,3.1418,3.1071,3.0846,3.0254,2.9909,2.9819,2.9588,2.9172,2.8633,2.8542,2.8195,2.7748,2.7667,2.729,2.6757,2.6757,2.6385,2.5895,2.5895,2.5895,2.5895,3.7644,3.7924,3.8113,3.7924,3.8037,3.8188,3.8188,3.8188,3.8188,3.8188,3.8188,3.8188,3.8188,3.8188,3.8188,3.8188,3.8188,3.8352,3.8738,3.8389,3.8,3.7606,3.7197,3.6964,3.6964,3.6964,3.6964,3.6964,3.739,3.7606,3.7606,3.7606,3.7606,3.7606,3.7606,3.7606,3.7567,3.7159,3.6964,3.6925,3.6494,3.6296,3.6296,3.6296,3.6177,3.5991,3.5991,3.5871,3.571,3.571,3.5398,3.4965,3.4368,3.3688,3.2979,3.2395,3.2218,3.2218,3.2218,3.2218,3.2218,3.2218,3.2218,3.2218,3.2218,3.2218,3.2218,3.2218,3.2218,3.2218,3.2218,3.2218,3.2218,3.2218,3.2218,3.2218,3.2218,3.2218,3.2218,3.2218,3.2218,3.2218,3.2218,3.2218,3.2218,3.2218,3.2218,3.2218,3.2218,3.2218,3.2218,3.2218,3.2218,3.2218,3.2218,3.174,3.1505,3.1505,3.0884,3.0582,3.0582,3.0393,3.0012,2.9471,2.9471,2.9067,2.8391,2.8391,2.7857,2.7085,2.7003,2.6603,2.599,2.5937,2.5895,2.5895,3.772,3.8575,3.9192,3.859,3.901,3.9388,3.9388,3.9388,3.9388,3.9388,3.9388,3.9388,3.9388,3.9388,3.9388,3.9388,3.9388,3.9388,3.9388,3.9388,3.8885,3.7682,3.7606,3.7606,3.7606,3.7606,3.7606,3.7606,3.7606,3.7606,3.7606,3.7606,3.7606,3.7606,3.7606,3.7606,3.7606,3.7606,3.7606,3.7606,3.7606,3.7606,3.7606,3.7606,3.7236,3.6705,3.6705,3.627,3.571,3.571,3.571,3.5601,3.5018,3.4014,3.2993,3.2395,3.2218,3.2218,3.2205,3.2218,3.2218,3.2218,3.2218,3.2218,3.2218,3.2218,3.2218,3.2218,3.2218,3.2218,3.2218,3.2218,3.2218,3.2218,3.2218,3.2218,3.2218,3.2218,3.2218,3.2218,3.2218,3.2218,3.2218,3.2218,3.2218,3.2218,3.2218,3.2218,3.2218,3.2218,3.2218,3.2218,3.2218,3.2218,3.2218,3.2218,3.2218,3.2182,3.1542,3.122,3.1182,3.0582,3.0317,3.0317,3.0317,2.9947,2.9419,2.9419,2.8661,2.747,2.7307,2.6787,2.6199,2.599,2.5895,2.5895,3.909,3.925,3.9337,3.9156,3.9265,3.9388,3.9388,3.9388,3.9388,3.9388,3.9388,3.9388,3.9388,3.9388,3.9388,3.9388,3.9388,3.9388,3.9388,3.9388,3.9228,3.8885,3.8464,3.824,3.824,3.824,3.824,3.824,3.8664,3.8848,3.8848,3.8848,3.8848,3.8848,3.8848,3.8848,3.8848,3.8389,3.824,3.8202,3.7772,3.7606,3.7606,3.7606,3.7491,3.7299,3.7017,3.6964,3.6964,3.6363,3.6363,3.6436,3.5567,3.4472,3.3578,3.377,3.3407,3.3072,3.343,3.3164,3.2682,3.2277,3.2218,3.2218,3.2218,3.2218,3.2218,3.2218,3.2218,3.2218,3.2218,3.2218,3.2218,3.2218,3.2218,3.2218,3.2218,3.2218,3.2218,3.2218,3.2218,3.2218,3.2218,3.2218,3.2218,3.2218,3.2218,3.2218,3.2218,3.2218,3.2218,3.2218,3.2218,3.2218,3.2218,3.2218,3.2218,3.2218,3.2009,3.19,3.19,3.1716,3.1394,3.0921,3.0921,3.0582,3.0024,3.0024,2.9549,2.8755,2.8108,2.7447,2.6828,2.6146,2.5895,2.5895,3.9803,3.9696,3.964,3.964,3.964,3.9604,3.9517,3.9604,3.9604,3.9517,3.9517,3.9517,3.9517,3.946,3.9388,3.9388,3.9388,3.9388,3.9388,3.9481,3.9517,3.9517,3.9265,3.9031,3.8863,3.8863,3.8863,3.8863,3.9228,3.9388,3.9388,3.9388,3.9445,3.9517,3.9517,3.9553,3.9604,3.9265,3.9068,3.9068,3.8708,3.856,3.856,3.856,3.8412,3.8136,3.7924,3.7834,3.7729,3.7222,3.7222,3.7286,3.6434,3.5483,3.4709,3.4775,3.4262,3.3673,3.4016,3.3728,3.3255,3.2917,3.2516,3.2218,3.2218,3.2218,3.2218,3.2218,3.2218,3.2218,3.2218,3.2218,3.2218,3.2218,3.2218,3.2218,3.2218,3.2218,3.2218,3.2218,3.2218,3.2218,3.2218,3.2218,3.2218,3.2218,3.2218,3.2218,3.2218,3.2218,3.2218,3.2218,3.2218,3.2218,3.2218,3.2218,3.2218,3.2218,3.2218,3.2218,3.2218,3.2218,3.1986,3.1579,3.1579,3.1233,3.0658,3.0658,3.0266,2.9563,2.8978,2.8426,2.7851,2.6887,2.6498,2.6385,4.0031,3.9996,4.0011,4.0011,4.0011,3.9925,3.9768,3.9889,3.9925,3.9768,3.9732,3.9732,3.9732,3.9553,3.9424,3.946,3.9445,3.9481,3.9496,3.9661,3.9753,3.9753,3.996,3.9854,3.9496,3.9481,3.9481,3.9481,3.9481,3.9481,3.9481,3.946,3.9553,3.9732,3.9732,3.9839,4.0011,4.0011,4.0011,4.0011,4.0011,4.0011,4.0011,4.0011,3.9661,3.9177,3.9141,3.8752,3.825,3.8213,3.8175,3.8074,3.7506,3.6881,3.6241,3.5671,3.4942,3.4312,3.4269,3.4104,3.3885,3.3899,3.3094,3.235,3.2277,3.2277,3.2241,3.2218,3.2218,3.2218,3.2218,3.2218,3.2218,3.2218,3.2218,3.2218,3.2218,3.2218,3.2218,3.2218,3.2218,3.2218,3.2218,3.2218,3.2218,3.2218,3.2218,3.2218,3.2218,3.2218,3.2218,3.2218,3.2218,3.2218,3.2218,3.2218,3.2218,3.2218,3.2218,3.2218,3.2218,3.2218,3.2218,3.2218,3.2218,3.1863,3.1307,3.1307,3.0846,3.0139,2.9884,2.9549,2.9081,2.7988,2.7476,2.7214,4.0207,4.0101,4.0011,4.0011,4.0011,3.9996,3.9925,3.996,3.996,3.9925,3.9925,3.9925,3.9925,3.9768,3.9696,3.9854,3.9965,4.0091,4.0246,4.0281,4.0316,4.0316,4.0366,4.0366,4.0246,4.0091,4.0021,4.0021,4.0021,4.0021,4.0005,3.991,3.9889,3.9925,3.9925,3.996,4.0011,4.0011,4.0011,4.0011,4.0011,4.0011,4.0011,4.0011,3.9925,3.9768,3.9451,3.9451,3.9523,3.9205,3.8914,3.8627,3.8495,3.7981,3.739,3.7173,3.6518,3.5859,3.5629,3.5121,3.461,3.4461,3.3934,3.3346,3.2917,3.2824,3.2717,3.2277,3.2218,3.2218,3.2218,3.2218,3.2218,3.2218,3.2218,3.2218,3.2218,3.2218,3.2218,3.2218,3.2218,3.2218,3.2218,3.2218,3.2218,3.2218,3.2218,3.2218,3.2218,3.2218,3.2218,3.2218,3.2218,3.2218,3.2218,3.2218,3.2218,3.2218,3.2218,3.2218,3.2218,3.2218,3.2218,3.2218,3.2218,3.2132,3.1973,3.1973,3.179,3.1421,3.0696,3.0266,2.9922,2.8848,2.8402,2.8255,4.0366,4.0296,4.0242,4.0242,4.0242,4.0242,4.0137,4.0207,4.0242,4.0137,4.0207,4.0242,4.0242,4.0141,4.0106,4.0226,4.0316,4.037,4.0489,4.0593,4.0627,4.0627,4.0746,4.0796,4.0796,4.0749,4.0597,4.0335,4.025,4.025,4.0335,4.0086,4.0137,4.0366,4.0261,4.0296,4.0366,4.0366,4.0366,4.0366,4.0366,4.0366,4.0366,4.0366,4.0331,4.0226,3.9985,4.0071,4.0191,4.0001,3.9758,3.9615,3.9615,3.9149,3.8616,3.8523,3.767,3.6756,3.6616,3.5993,3.5397,3.5285,3.5055,3.461,3.3728,3.3325,3.3094,3.2846,3.2538,3.23,3.23,3.2241,3.2218,3.2218,3.2218,3.2218,3.2218,3.2218,3.2218,3.2218,3.2218,3.2218,3.2218,3.2218,3.2218,3.2218,3.2218,3.2218,3.2218,3.2218,3.2218,3.2218,3.2218,3.2218,3.2218,3.2218,3.2218,3.2218,3.2218,3.2218,3.2218,3.2218,3.2218,3.2218,3.2218,3.2218,3.2218,3.2218,3.2146,3.2,3.1542,3.1246,3.0947,2.9973,2.9227,2.856,4.0489,4.0489,4.0489,4.0489,4.0489,4.047,4.0331,4.047,4.0489,4.0401,4.0505,4.0608,4.0608,4.0608,4.0608,4.0593,4.0627,4.0662,4.0696,4.0833,4.0935,4.0935,4.1086,4.1203,4.1203,4.1305,4.1122,4.0627,4.0459,4.0459,4.0627,4.0347,4.0451,4.0833,4.0677,4.0712,4.0833,4.0833,4.0833,4.0833,4.0833,4.0833,4.0833,4.0833,4.0746,4.0608,4.0608,4.0608,4.0608,4.0558,4.0558,4.0608,4.0558,4.0173,3.9696,3.9588,3.8609,3.7543,3.7266,3.6711,3.6174,3.6035,3.6005,3.5735,3.4677,3.4051,3.3638,3.3644,3.3122,3.269,3.269,3.2503,3.235,3.235,3.2241,3.2218,3.2218,3.2218,3.2218,3.2218,3.2218,3.2218,3.2218,3.2218,3.2218,3.2218,3.2218,3.2218,3.2218,3.2218,3.2218,3.2218,3.2218,3.2218,3.2218,3.2218,3.2218,3.2218,3.2218,3.2218,3.2218,3.2218,3.2218,3.2218,3.2218,3.2218,3.2218,3.2218,3.2218,3.2218,3.2218,3.2109,3.184,3.1084,3.0088,2.8993,4.0489,4.0489,4.0489,4.0489,4.0489,4.0489,4.047,4.0627,4.0765,4.073,4.0882,4.1,4.1,4.1,4.1034,4.1037,4.1122,4.1256,4.1423,4.1489,4.1489,4.1489,4.1522,4.1522,4.1522,4.1555,4.1423,4.1189,4.114,4.1156,4.1189,4.1018,4.0982,4.1068,4.1034,4.1034,4.1068,4.1068,4.1068,4.1068,4.1068,4.1068,4.1068,4.1068,4.1034,4.1,4.1,4.1,4.1,4.0814,4.0882,4.1,4.0799,4.0703,4.0501,3.9929,3.9486,3.8918,3.7558,3.7111,3.6865,3.6174,3.6005,3.6005,3.5943,3.5415,3.4791,3.4279,3.4022,3.3865,3.3865,3.3325,3.2881,3.2881,3.2516,3.2218,3.2218,3.2218,3.2218,3.2218,3.2218,3.2218,3.2218,3.2218,3.2218,3.2218,3.2218,3.2218,3.2218,3.2218,3.2218,3.2218,3.2218,3.2218,3.2218,3.2218,3.2218,3.2218,3.2218,3.2218,3.2218,3.2218,3.2218,3.2218,3.2218,3.2218,3.2218,3.2218,3.2218,3.2218,3.2218,3.2182,3.2132,3.184,3.1371,3.0872,4.083,4.083,4.0814,4.0696,4.078,4.078,4.0696,4.0848,4.095,4.095,4.112,4.1221,4.1221,4.1305,4.1372,4.139,4.1423,4.1522,4.1588,4.1588,4.1588,4.1588,4.1588,4.1588,4.1588,4.1588,4.1555,4.1456,4.1357,4.1357,4.1456,4.1236,4.1203,4.1372,4.1239,4.1221,4.1221,4.1221,4.1221,4.1221,4.1221,4.1221,4.1221,4.1221,4.1169,4.1117,4.1117,4.1117,4.1083,4.1,4.1034,4.1083,4.1,4.095,4.0904,4.0476,4.0052,3.9486,3.8703,3.7931,3.7287,3.6932,3.6548,3.6289,3.6352,3.6132,3.5752,3.5204,3.4394,3.3748,3.3748,3.3171,3.2668,3.2668,3.2561,3.2467,3.2467,3.2467,3.2467,3.2467,3.2467,3.2467,3.2467,3.2467,3.2431,3.2322,3.2322,3.2264,3.2205,3.2218,3.2218,3.2218,3.2218,3.2218,3.2218,3.2218,3.2218,3.2218,3.2218,3.2218,3.2218,3.2218,3.2218,3.2218,3.2218,3.2218,3.2218,3.2218,3.2218,3.2218,3.2218,3.2218,3.2182,3.1963,3.178,3.1495]}]]